<?xml version="1.0" encoding="UTF-8"?>
<gpx schemaLocation="http://www.topografix.com/GPX/1/1 http://www.topografix.com/GPX/1/1/gpx.xsd http://www.garmin.com/xmlschemas/GpxExtensions/v3 http://www.garmin.com/xmlschemas/GpxExtensionsv3.xsd http://www.garmin.com/xmlschemas/TrackPointExtension/v1 http://www.garmin.com/xmlschemas/TrackPointExtensionv1.xsd http://www.garmin.com/xmlschemas/PowerExtension/v1 http://www.garmin.com/xmlschemas/PowerExtensionv1.xsd http://www.topografix.com/GPX/gpx_style/0/2 http://www.topografix.com/GPX/gpx_style/0/2/gpx_style.xsd" version="1.1" creator="Enregistré par Geo Tracker pour Android de Ilya Bogdanovich" xmlns="http://www.topografix.com/GPX/1/1" xmlns:xsi="http://www.w3.org/2001/XMLSchema-instance" xsi:schemaLocation="http://www.topografix.com/GPX/1/1 http://www.topografix.com/GPX/1/1/gpx.xsd http://www.garmin.com/xmlschemas/GpxExtensions/v3 http://www.garmin.com/xmlschemas/GpxExtensionsv3.xsd http://www.garmin.com/xmlschemas/TrackPointExtension/v1 http://www.garmin.com/xmlschemas/TrackPointExtensionv1.xsd http://www.garmin.com/xmlschemas/PowerExtension/v1 http://www.garmin.com/xmlschemas/PowerExtensionv1.xsd http://www.topografix.com/GPX/gpx_style/0/2 http://www.topografix.com/GPX/gpx_style/0/2/gpx_style.xsd" xmlns:gpxtpx="http://www.garmin.com/xmlschemas/TrackPointExtension/v1" xmlns:gpxx="http://www.garmin.com/xmlschemas/GpxExtensions/v3" xmlns:gpxpx="http://www.garmin.com/xmlschemas/PowerExtension/v1" xmlns:gpx_style="http://www.topografix.com/GPX/gpx_style/0/2">
  <metadata>
    <name>Vienne en Val 25 km 08/04/25</name>
    <author>
      <name>gpx.studio</name>
      <link href="https://gpx.studio"/>
    </author>
    <link href="https://play.google.com/store/apps/details?id=com.ilyabogdanovich.geotracker"/>
    <time>2025-04-08T06:56:12.000Z</time>
  </metadata>
  <wpt lat="47.77230512" lon="2.16993114">
    <ele>184.87</ele>
    <time>2025-04-08T08:19:38.000Z</time>
    <name>Arrêt de ~3 min</name>
    <desc>Altitude: 185 m
Durée depuis le départ: 01:23:25
Distance depuis le départ: 5,63 km</desc>
  </wpt>
  <wpt lat="47.78408166" lon="2.17053758">
    <ele>182.01</ele>
    <time>2025-04-08T08:39:20.000Z</time>
    <name>Arrêt de ~11 min</name>
    <desc>Altitude: 182 m
Durée depuis le départ: 01:43:07
Distance depuis le départ: 6,97 km</desc>
  </wpt>
  <wpt lat="47.78405105" lon="2.17050175">
    <ele>187.81</ele>
    <time>2025-04-08T09:54:58.000Z</time>
    <name>Arrêt de ~3 min</name>
    <desc>Altitude: 188 m
Durée depuis le départ: 02:58:45
Distance depuis le départ: 10,02 km</desc>
  </wpt>
  <wpt lat="47.78393133" lon="2.1965192">
    <ele>160.97</ele>
    <time>2025-04-08T10:49:33.000Z</time>
    <name>Arrêt de ~5 min</name>
    <desc>Altitude: 161 m
Durée depuis le départ: 03:53:20
Distance depuis le départ: 12,99 km</desc>
  </wpt>
  <wpt lat="47.78195901" lon="2.2072145">
    <ele>163.53</ele>
    <time>2025-04-08T11:57:47.000Z</time>
    <name>Arrêt de ~2 min</name>
    <desc>Altitude: 164 m
Durée depuis le départ: 05:01:34
Distance depuis le départ: 14,89 km</desc>
  </wpt>
  <wpt lat="47.79945075" lon="2.18190815">
    <ele>151.43</ele>
    <time>2025-04-08T13:23:20.000Z</time>
    <name>Arrêt de ~3 min</name>
    <desc>Altitude: 151 m
Durée depuis le départ: 06:27:07
Distance depuis le départ: 19,99 km</desc>
  </wpt>
  <wpt lat="47.80213484" lon="2.169192">
    <ele>151.71</ele>
    <time>2025-04-08T13:39:06.000Z</time>
    <name>Arrêt de ~3 min</name>
    <desc>Altitude: 152 m
Durée depuis le départ: 06:42:53
Distance depuis le départ: 20,99 km</desc>
  </wpt>
  <wpt lat="47.8051282" lon="2.15685892">
    <ele>152.3</ele>
    <time>2025-04-08T13:54:39.000Z</time>
    <name>Arrêt de ~2 min</name>
    <desc>Altitude: 152 m
Durée depuis le départ: 06:58:26
Distance depuis le départ: 21,99 km</desc>
  </wpt>
  <trk>
    <name>Vienne en Val 25 km 08/04/25</name>
    <src>Enregistré par Geo Tracker pour Android de Ilya Bogdanovich</src>
    <link href="https://play.google.com/store/apps/details?id=com.ilyabogdanovich.geotracker"/>
    <trkseg>
      <trkpt lat="47.80115398" lon="2.1353668">
        <ele>158.78</ele>
        <time>2025-04-08T06:56:55.000Z</time>
      </trkpt>
      <trkpt lat="47.80113566" lon="2.13533767">
        <ele>151.19</ele>
        <time>2025-04-08T06:59:53.000Z</time>
      </trkpt>
      <trkpt lat="47.80103897" lon="2.13531608">
        <ele>153.76</ele>
        <time>2025-04-08T07:01:01.000Z</time>
      </trkpt>
      <trkpt lat="47.80094642" lon="2.13531875">
        <ele>150.41</ele>
        <time>2025-04-08T07:01:11.000Z</time>
      </trkpt>
      <trkpt lat="47.800925085357235" lon="2.135368481056223">
        <ele>150.99946319657604</ele>
        <time>2025-04-08T07:01:15.322Z</time>
      </trkpt>
      <trkpt lat="47.80089213" lon="2.1354453">
        <ele>151.91</ele>
        <time>2025-04-08T07:01:22.000Z</time>
      </trkpt>
      <trkpt lat="47.80087779009905" lon="2.1355697176486124">
        <ele>151.31766131524725</ele>
        <time>2025-04-08T07:01:29.956Z</time>
      </trkpt>
      <trkpt lat="47.80087591" lon="2.13558603">
        <ele>151.24</ele>
        <time>2025-04-08T07:01:31.000Z</time>
      </trkpt>
      <trkpt lat="47.80088019" lon="2.13572693">
        <ele>150.22</ele>
        <time>2025-04-08T07:01:40.000Z</time>
      </trkpt>
      <trkpt lat="47.80088954" lon="2.1358694">
        <ele>147.96</ele>
        <time>2025-04-08T07:01:50.000Z</time>
      </trkpt>
      <trkpt lat="47.80089526" lon="2.13601482">
        <ele>144.94</ele>
        <time>2025-04-08T07:02:00.000Z</time>
      </trkpt>
      <trkpt lat="47.80090386" lon="2.13615317">
        <ele>142.53</ele>
        <time>2025-04-08T07:02:10.000Z</time>
      </trkpt>
      <trkpt lat="47.80087141" lon="2.13628257">
        <ele>148.48</ele>
        <time>2025-04-08T07:02:31.000Z</time>
      </trkpt>
      <trkpt lat="47.80085099" lon="2.13641931">
        <ele>148.68</ele>
        <time>2025-04-08T07:02:42.000Z</time>
      </trkpt>
      <trkpt lat="47.80085689" lon="2.13655624">
        <ele>148.6</ele>
        <time>2025-04-08T07:02:51.000Z</time>
      </trkpt>
      <trkpt lat="47.80085077" lon="2.13669166">
        <ele>147.65</ele>
        <time>2025-04-08T07:03:00.000Z</time>
      </trkpt>
      <trkpt lat="47.80083214" lon="2.13683527">
        <ele>146.45</ele>
        <time>2025-04-08T07:03:10.000Z</time>
      </trkpt>
      <trkpt lat="47.80081691" lon="2.13698012">
        <ele>148.18</ele>
        <time>2025-04-08T07:03:18.000Z</time>
      </trkpt>
      <trkpt lat="47.80080910313259" lon="2.137090691213196">
        <ele>149.40813442608865</ele>
        <time>2025-04-08T07:03:23.475Z</time>
      </trkpt>
      <trkpt lat="47.80080693" lon="2.13712147">
        <ele>149.75</ele>
        <time>2025-04-08T07:03:25.000Z</time>
      </trkpt>
      <trkpt lat="47.80078357" lon="2.13725516">
        <ele>152.15</ele>
        <time>2025-04-08T07:03:32.000Z</time>
      </trkpt>
      <trkpt lat="47.80076304" lon="2.13739591">
        <ele>152.61</ele>
        <time>2025-04-08T07:03:39.000Z</time>
      </trkpt>
      <trkpt lat="47.80075325" lon="2.13754196">
        <ele>151.84</ele>
        <time>2025-04-08T07:03:48.000Z</time>
      </trkpt>
      <trkpt lat="47.80073883" lon="2.13768726">
        <ele>151.27</ele>
        <time>2025-04-08T07:03:56.000Z</time>
      </trkpt>
      <trkpt lat="47.80073682" lon="2.13783534">
        <ele>150.06</ele>
        <time>2025-04-08T07:04:05.000Z</time>
      </trkpt>
      <trkpt lat="47.80073072" lon="2.1379771">
        <ele>149.57</ele>
        <time>2025-04-08T07:04:14.000Z</time>
      </trkpt>
      <trkpt lat="47.80073441" lon="2.13811432">
        <ele>148.97</ele>
        <time>2025-04-08T07:04:23.000Z</time>
      </trkpt>
      <trkpt lat="47.80073576" lon="2.13826005">
        <ele>148.32</ele>
        <time>2025-04-08T07:04:31.000Z</time>
      </trkpt>
      <trkpt lat="47.80073335" lon="2.13839543">
        <ele>146.5</ele>
        <time>2025-04-08T07:04:40.000Z</time>
      </trkpt>
      <trkpt lat="47.8007324" lon="2.13854124">
        <ele>146.28</ele>
        <time>2025-04-08T07:04:48.000Z</time>
      </trkpt>
      <trkpt lat="47.80072761" lon="2.13867575">
        <ele>146.58</ele>
        <time>2025-04-08T07:04:56.000Z</time>
      </trkpt>
      <trkpt lat="47.80073034" lon="2.13881774">
        <ele>148.06</ele>
        <time>2025-04-08T07:05:03.000Z</time>
      </trkpt>
      <trkpt lat="47.80071713" lon="2.13895688">
        <ele>151.55</ele>
        <time>2025-04-08T07:05:36.000Z</time>
      </trkpt>
      <trkpt lat="47.80067041" lon="2.13907547">
        <ele>152.93</ele>
        <time>2025-04-08T07:05:46.000Z</time>
      </trkpt>
      <trkpt lat="47.80062334" lon="2.13919412">
        <ele>153.15</ele>
        <time>2025-04-08T07:05:57.000Z</time>
      </trkpt>
      <trkpt lat="47.80058274" lon="2.13933006">
        <ele>154.31</ele>
        <time>2025-04-08T07:06:05.000Z</time>
      </trkpt>
      <trkpt lat="47.8005504" lon="2.13946098">
        <ele>155.05</ele>
        <time>2025-04-08T07:06:14.000Z</time>
      </trkpt>
      <trkpt lat="47.80052" lon="2.13958863">
        <ele>155.4</ele>
        <time>2025-04-08T07:06:22.000Z</time>
      </trkpt>
      <trkpt lat="47.80048078" lon="2.13971459">
        <ele>155.28</ele>
        <time>2025-04-08T07:06:30.000Z</time>
      </trkpt>
      <trkpt lat="47.80044527" lon="2.13984509">
        <ele>154.93</ele>
        <time>2025-04-08T07:06:38.000Z</time>
      </trkpt>
      <trkpt lat="47.80040423" lon="2.13996756">
        <ele>153.84</ele>
        <time>2025-04-08T07:06:46.000Z</time>
      </trkpt>
      <trkpt lat="47.80036515" lon="2.14010206">
        <ele>153.15</ele>
        <time>2025-04-08T07:06:55.000Z</time>
      </trkpt>
      <trkpt lat="47.8003271" lon="2.14022416">
        <ele>152.91</ele>
        <time>2025-04-08T07:07:03.000Z</time>
      </trkpt>
      <trkpt lat="47.80028993" lon="2.14035241">
        <ele>153.42</ele>
        <time>2025-04-08T07:07:11.000Z</time>
      </trkpt>
      <trkpt lat="47.80025698" lon="2.14048064">
        <ele>152.85</ele>
        <time>2025-04-08T07:07:19.000Z</time>
      </trkpt>
      <trkpt lat="47.80022486" lon="2.14060667">
        <ele>153</ele>
        <time>2025-04-08T07:07:27.000Z</time>
      </trkpt>
      <trkpt lat="47.80019258" lon="2.1407474">
        <ele>152.86</ele>
        <time>2025-04-08T07:07:36.000Z</time>
      </trkpt>
      <trkpt lat="47.80016013" lon="2.14088754">
        <ele>152.01</ele>
        <time>2025-04-08T07:07:45.000Z</time>
      </trkpt>
      <trkpt lat="47.80012137" lon="2.14101034">
        <ele>152.61</ele>
        <time>2025-04-08T07:07:53.000Z</time>
      </trkpt>
      <trkpt lat="47.80008738" lon="2.14113869">
        <ele>153.95</ele>
        <time>2025-04-08T07:08:01.000Z</time>
      </trkpt>
      <trkpt lat="47.80004716" lon="2.14126814">
        <ele>153.37</ele>
        <time>2025-04-08T07:08:09.000Z</time>
      </trkpt>
      <trkpt lat="47.80001032" lon="2.14139941">
        <ele>152.7</ele>
        <time>2025-04-08T07:08:17.000Z</time>
      </trkpt>
      <trkpt lat="47.79998465" lon="2.14153317">
        <ele>152.21</ele>
        <time>2025-04-08T07:08:25.000Z</time>
      </trkpt>
      <trkpt lat="47.79996433" lon="2.14166341">
        <ele>152.54</ele>
        <time>2025-04-08T07:08:33.000Z</time>
      </trkpt>
      <trkpt lat="47.79994085" lon="2.14179638">
        <ele>151.95</ele>
        <time>2025-04-08T07:08:41.000Z</time>
      </trkpt>
      <trkpt lat="47.79992124" lon="2.14193258">
        <ele>151.46</ele>
        <time>2025-04-08T07:08:49.000Z</time>
      </trkpt>
      <trkpt lat="47.79990103" lon="2.14206575">
        <ele>152.26</ele>
        <time>2025-04-08T07:08:57.000Z</time>
      </trkpt>
      <trkpt lat="47.7998807" lon="2.14219749">
        <ele>152.05</ele>
        <time>2025-04-08T07:09:05.000Z</time>
      </trkpt>
      <trkpt lat="47.79984721" lon="2.14232981">
        <ele>151.52</ele>
        <time>2025-04-08T07:09:15.000Z</time>
      </trkpt>
      <trkpt lat="47.79982012" lon="2.14246841">
        <ele>151.41</ele>
        <time>2025-04-08T07:09:24.000Z</time>
      </trkpt>
      <trkpt lat="47.79979721" lon="2.1426028">
        <ele>152.03</ele>
        <time>2025-04-08T07:09:32.000Z</time>
      </trkpt>
      <trkpt lat="47.79977417" lon="2.14273891">
        <ele>151.36</ele>
        <time>2025-04-08T07:09:40.000Z</time>
      </trkpt>
      <trkpt lat="47.79974213" lon="2.14287607">
        <ele>151.78</ele>
        <time>2025-04-08T07:09:48.000Z</time>
      </trkpt>
      <trkpt lat="47.79971916" lon="2.14301237">
        <ele>152.02</ele>
        <time>2025-04-08T07:09:56.000Z</time>
      </trkpt>
      <trkpt lat="47.79969769" lon="2.14315271">
        <ele>152.09</ele>
        <time>2025-04-08T07:10:04.000Z</time>
      </trkpt>
      <trkpt lat="47.79967546" lon="2.14329042">
        <ele>152.1</ele>
        <time>2025-04-08T07:10:12.000Z</time>
      </trkpt>
      <trkpt lat="47.79965661" lon="2.14343143">
        <ele>151.87</ele>
        <time>2025-04-08T07:10:20.000Z</time>
      </trkpt>
      <trkpt lat="47.7996248" lon="2.14357476">
        <ele>152.19</ele>
        <time>2025-04-08T07:10:28.000Z</time>
      </trkpt>
      <trkpt lat="47.79959759" lon="2.14371513">
        <ele>152.39</ele>
        <time>2025-04-08T07:10:36.000Z</time>
      </trkpt>
      <trkpt lat="47.79957478" lon="2.14384571">
        <ele>152.79</ele>
        <time>2025-04-08T07:10:44.000Z</time>
      </trkpt>
      <trkpt lat="47.79954358" lon="2.14397211">
        <ele>151.95</ele>
        <time>2025-04-08T07:10:52.000Z</time>
      </trkpt>
      <trkpt lat="47.79951667" lon="2.14411233">
        <ele>151.5</ele>
        <time>2025-04-08T07:11:00.000Z</time>
      </trkpt>
      <trkpt lat="47.79948851" lon="2.14425172">
        <ele>151.03</ele>
        <time>2025-04-08T07:11:08.000Z</time>
      </trkpt>
      <trkpt lat="47.79946042" lon="2.14438494">
        <ele>150.25</ele>
        <time>2025-04-08T07:11:16.000Z</time>
      </trkpt>
      <trkpt lat="47.7994322" lon="2.14453134">
        <ele>150.87</ele>
        <time>2025-04-08T07:11:24.000Z</time>
      </trkpt>
      <trkpt lat="47.79940616" lon="2.14466342">
        <ele>151.32</ele>
        <time>2025-04-08T07:11:31.000Z</time>
      </trkpt>
      <trkpt lat="47.799379" lon="2.14480481">
        <ele>151.87</ele>
        <time>2025-04-08T07:11:39.000Z</time>
      </trkpt>
      <trkpt lat="47.79935136" lon="2.14493194">
        <ele>152.13</ele>
        <time>2025-04-08T07:11:46.000Z</time>
      </trkpt>
      <trkpt lat="47.79932112" lon="2.1450582">
        <ele>152.95</ele>
        <time>2025-04-08T07:11:53.000Z</time>
      </trkpt>
      <trkpt lat="47.79929008" lon="2.14519092">
        <ele>152.4</ele>
        <time>2025-04-08T07:12:02.000Z</time>
      </trkpt>
      <trkpt lat="47.79925803" lon="2.1453217">
        <ele>150.6</ele>
        <time>2025-04-08T07:12:11.000Z</time>
      </trkpt>
      <trkpt lat="47.79920758" lon="2.14544307">
        <ele>149.89</ele>
        <time>2025-04-08T07:12:21.000Z</time>
      </trkpt>
      <trkpt lat="47.79916653" lon="2.14557362">
        <ele>148.77</ele>
        <time>2025-04-08T07:12:30.000Z</time>
      </trkpt>
      <trkpt lat="47.7991184" lon="2.14570087">
        <ele>148.96</ele>
        <time>2025-04-08T07:12:38.000Z</time>
      </trkpt>
      <trkpt lat="47.7990865" lon="2.1458375">
        <ele>150.44</ele>
        <time>2025-04-08T07:12:46.000Z</time>
      </trkpt>
      <trkpt lat="47.7990305" lon="2.14594875">
        <ele>151.1</ele>
        <time>2025-04-08T07:12:54.000Z</time>
      </trkpt>
      <trkpt lat="47.79896571" lon="2.14604423">
        <ele>151.06</ele>
        <time>2025-04-08T07:13:03.000Z</time>
      </trkpt>
      <trkpt lat="47.79890859" lon="2.14614981">
        <ele>151.83</ele>
        <time>2025-04-08T07:13:13.000Z</time>
      </trkpt>
      <trkpt lat="47.7988485" lon="2.14625267">
        <ele>150.84</ele>
        <time>2025-04-08T07:13:23.000Z</time>
      </trkpt>
      <trkpt lat="47.79878362" lon="2.1463536">
        <ele>151.24</ele>
        <time>2025-04-08T07:13:31.000Z</time>
      </trkpt>
      <trkpt lat="47.79871502" lon="2.14645411">
        <ele>147.58</ele>
        <time>2025-04-08T07:13:42.000Z</time>
      </trkpt>
      <trkpt lat="47.79864537" lon="2.14654077">
        <ele>147.64</ele>
        <time>2025-04-08T07:13:49.000Z</time>
      </trkpt>
      <trkpt lat="47.79856471" lon="2.14662195">
        <ele>149.54</ele>
        <time>2025-04-08T07:13:56.000Z</time>
      </trkpt>
      <trkpt lat="47.79848761" lon="2.14671051">
        <ele>150.89</ele>
        <time>2025-04-08T07:14:04.000Z</time>
      </trkpt>
      <trkpt lat="47.79842356" lon="2.14682512">
        <ele>152.97</ele>
        <time>2025-04-08T07:14:20.000Z</time>
      </trkpt>
      <trkpt lat="47.79834607" lon="2.14691145">
        <ele>150.18</ele>
        <time>2025-04-08T07:14:36.000Z</time>
      </trkpt>
      <trkpt lat="47.79826587" lon="2.14700097">
        <ele>152.06</ele>
        <time>2025-04-08T07:14:45.000Z</time>
      </trkpt>
      <trkpt lat="47.79818608" lon="2.1470795">
        <ele>151.45</ele>
        <time>2025-04-08T07:14:52.000Z</time>
      </trkpt>
      <trkpt lat="47.79811166" lon="2.14717068">
        <ele>154.02</ele>
        <time>2025-04-08T07:15:01.000Z</time>
      </trkpt>
      <trkpt lat="47.79803503" lon="2.14724596">
        <ele>157.44</ele>
        <time>2025-04-08T07:15:08.000Z</time>
      </trkpt>
      <trkpt lat="47.79796386" lon="2.14735027">
        <ele>158.11</ele>
        <time>2025-04-08T07:15:16.000Z</time>
      </trkpt>
      <trkpt lat="47.79788641" lon="2.14743685">
        <ele>160.38</ele>
        <time>2025-04-08T07:15:24.000Z</time>
      </trkpt>
      <trkpt lat="47.79780987" lon="2.14752601">
        <ele>161.01</ele>
        <time>2025-04-08T07:15:31.000Z</time>
      </trkpt>
      <trkpt lat="47.79773595" lon="2.14761353">
        <ele>159.46</ele>
        <time>2025-04-08T07:15:40.000Z</time>
      </trkpt>
      <trkpt lat="47.79765149" lon="2.14768094">
        <ele>165.14</ele>
        <time>2025-04-08T07:15:48.000Z</time>
      </trkpt>
      <trkpt lat="47.79756847" lon="2.14774525">
        <ele>166.78</ele>
        <time>2025-04-08T07:15:56.000Z</time>
      </trkpt>
      <trkpt lat="47.79748084" lon="2.14780274">
        <ele>168.26</ele>
        <time>2025-04-08T07:16:07.000Z</time>
      </trkpt>
      <trkpt lat="47.79739438" lon="2.14786227">
        <ele>167.08</ele>
        <time>2025-04-08T07:16:16.000Z</time>
      </trkpt>
      <trkpt lat="47.79731455" lon="2.14793606">
        <ele>165.75</ele>
        <time>2025-04-08T07:16:25.000Z</time>
      </trkpt>
      <trkpt lat="47.79723515" lon="2.14800767">
        <ele>167.17</ele>
        <time>2025-04-08T07:16:32.000Z</time>
      </trkpt>
      <trkpt lat="47.79715243" lon="2.14808253">
        <ele>165.38</ele>
        <time>2025-04-08T07:16:41.000Z</time>
      </trkpt>
      <trkpt lat="47.79708158" lon="2.14816678">
        <ele>161.31</ele>
        <time>2025-04-08T07:16:48.000Z</time>
      </trkpt>
      <trkpt lat="47.79701494" lon="2.14826761">
        <ele>156.05</ele>
        <time>2025-04-08T07:16:57.000Z</time>
      </trkpt>
      <trkpt lat="47.79696335" lon="2.14838353">
        <ele>153.06</ele>
        <time>2025-04-08T07:17:05.000Z</time>
      </trkpt>
      <trkpt lat="47.79690983" lon="2.14850149">
        <ele>153.56</ele>
        <time>2025-04-08T07:17:12.000Z</time>
      </trkpt>
      <trkpt lat="47.79686861" lon="2.14863244">
        <ele>153.82</ele>
        <time>2025-04-08T07:17:20.000Z</time>
      </trkpt>
      <trkpt lat="47.79680996" lon="2.14875056">
        <ele>155.07</ele>
        <time>2025-04-08T07:17:27.000Z</time>
      </trkpt>
      <trkpt lat="47.79676488" lon="2.14887075">
        <ele>152.76</ele>
        <time>2025-04-08T07:17:35.000Z</time>
      </trkpt>
      <trkpt lat="47.79672204" lon="2.14901124">
        <ele>152.88</ele>
        <time>2025-04-08T07:17:43.000Z</time>
      </trkpt>
      <trkpt lat="47.7966787" lon="2.14913629">
        <ele>153.56</ele>
        <time>2025-04-08T07:17:51.000Z</time>
      </trkpt>
      <trkpt lat="47.796637" lon="2.14925464">
        <ele>152.54</ele>
        <time>2025-04-08T07:17:59.000Z</time>
      </trkpt>
      <trkpt lat="47.7965847" lon="2.14937084">
        <ele>153.2</ele>
        <time>2025-04-08T07:18:08.000Z</time>
      </trkpt>
      <trkpt lat="47.79652912" lon="2.14948832">
        <ele>152.84</ele>
        <time>2025-04-08T07:18:15.000Z</time>
      </trkpt>
      <trkpt lat="47.7964499" lon="2.14957865">
        <ele>153.52</ele>
        <time>2025-04-08T07:18:29.000Z</time>
      </trkpt>
      <trkpt lat="47.79635407" lon="2.14960127">
        <ele>153.07</ele>
        <time>2025-04-08T07:18:45.000Z</time>
      </trkpt>
      <trkpt lat="47.79625955" lon="2.14965168">
        <ele>156.58</ele>
        <time>2025-04-08T07:18:53.000Z</time>
      </trkpt>
      <trkpt lat="47.7961801" lon="2.14971507">
        <ele>156.38</ele>
        <time>2025-04-08T07:19:01.000Z</time>
      </trkpt>
      <trkpt lat="47.79609233" lon="2.14977273">
        <ele>154.29</ele>
        <time>2025-04-08T07:19:10.000Z</time>
      </trkpt>
      <trkpt lat="47.79600572" lon="2.14982281">
        <ele>155.82</ele>
        <time>2025-04-08T07:19:18.000Z</time>
      </trkpt>
      <trkpt lat="47.79590662" lon="2.14986478">
        <ele>157.64</ele>
        <time>2025-04-08T07:19:26.000Z</time>
      </trkpt>
      <trkpt lat="47.79582007" lon="2.14991574">
        <ele>151.35</ele>
        <time>2025-04-08T07:19:37.000Z</time>
      </trkpt>
      <trkpt lat="47.79573862" lon="2.14998885">
        <ele>151.04</ele>
        <time>2025-04-08T07:19:45.000Z</time>
      </trkpt>
      <trkpt lat="47.79565138" lon="2.15004624">
        <ele>151.92</ele>
        <time>2025-04-08T07:19:54.000Z</time>
      </trkpt>
      <trkpt lat="47.79557024" lon="2.15011757">
        <ele>153.32</ele>
        <time>2025-04-08T07:20:02.000Z</time>
      </trkpt>
      <trkpt lat="47.79549358" lon="2.15019905">
        <ele>152.72</ele>
        <time>2025-04-08T07:20:10.000Z</time>
      </trkpt>
      <trkpt lat="47.79541214" lon="2.15026486">
        <ele>161.5</ele>
        <time>2025-04-08T07:20:15.000Z</time>
      </trkpt>
      <trkpt lat="47.79533063" lon="2.150347">
        <ele>162.74</ele>
        <time>2025-04-08T07:20:21.000Z</time>
      </trkpt>
      <trkpt lat="47.79526636" lon="2.15046194">
        <ele>162.7</ele>
        <time>2025-04-08T07:20:30.000Z</time>
      </trkpt>
      <trkpt lat="47.79519834" lon="2.15055942">
        <ele>163.27</ele>
        <time>2025-04-08T07:20:39.000Z</time>
      </trkpt>
      <trkpt lat="47.79514023" lon="2.15066828">
        <ele>163.51</ele>
        <time>2025-04-08T07:20:49.000Z</time>
      </trkpt>
      <trkpt lat="47.79507293" lon="2.15076162">
        <ele>164.14</ele>
        <time>2025-04-08T07:21:00.000Z</time>
      </trkpt>
      <trkpt lat="47.79502801" lon="2.15088858">
        <ele>170.51</ele>
        <time>2025-04-08T07:21:09.000Z</time>
      </trkpt>
      <trkpt lat="47.79496038" lon="2.15098243">
        <ele>172.88</ele>
        <time>2025-04-08T07:21:16.000Z</time>
      </trkpt>
      <trkpt lat="47.79489006" lon="2.1510716">
        <ele>178.19</ele>
        <time>2025-04-08T07:21:24.000Z</time>
      </trkpt>
      <trkpt lat="47.7948294" lon="2.15118106">
        <ele>175.96</ele>
        <time>2025-04-08T07:21:31.000Z</time>
      </trkpt>
      <trkpt lat="47.79476903" lon="2.15128777">
        <ele>173.95</ele>
        <time>2025-04-08T07:21:40.000Z</time>
      </trkpt>
      <trkpt lat="47.79471809" lon="2.15141827">
        <ele>173.68</ele>
        <time>2025-04-08T07:21:49.000Z</time>
      </trkpt>
      <trkpt lat="47.7946711" lon="2.15153706">
        <ele>173.63</ele>
        <time>2025-04-08T07:21:57.000Z</time>
      </trkpt>
      <trkpt lat="47.79462439" lon="2.15166956">
        <ele>171.79</ele>
        <time>2025-04-08T07:22:06.000Z</time>
      </trkpt>
      <trkpt lat="47.79456911" lon="2.15178046">
        <ele>170.14</ele>
        <time>2025-04-08T07:22:14.000Z</time>
      </trkpt>
      <trkpt lat="47.79453229" lon="2.15190505">
        <ele>168.44</ele>
        <time>2025-04-08T07:22:24.000Z</time>
      </trkpt>
      <trkpt lat="47.79448238" lon="2.15201839">
        <ele>164.48</ele>
        <time>2025-04-08T07:22:34.000Z</time>
      </trkpt>
      <trkpt lat="47.79444094" lon="2.15215353">
        <ele>163.57</ele>
        <time>2025-04-08T07:22:43.000Z</time>
      </trkpt>
      <trkpt lat="47.7944102" lon="2.15229468">
        <ele>163.87</ele>
        <time>2025-04-08T07:22:52.000Z</time>
      </trkpt>
      <trkpt lat="47.79436935" lon="2.15243102">
        <ele>163.17</ele>
        <time>2025-04-08T07:23:00.000Z</time>
      </trkpt>
      <trkpt lat="47.79431897" lon="2.15254719">
        <ele>162.33</ele>
        <time>2025-04-08T07:23:08.000Z</time>
      </trkpt>
      <trkpt lat="47.79429309" lon="2.1526904">
        <ele>161.43</ele>
        <time>2025-04-08T07:23:17.000Z</time>
      </trkpt>
      <trkpt lat="47.79425976" lon="2.1528147">
        <ele>162.15</ele>
        <time>2025-04-08T07:23:24.000Z</time>
      </trkpt>
      <trkpt lat="47.79423196" lon="2.15294321">
        <ele>163.79</ele>
        <time>2025-04-08T07:23:31.000Z</time>
      </trkpt>
      <trkpt lat="47.79417842" lon="2.15305986">
        <ele>164.13</ele>
        <time>2025-04-08T07:23:39.000Z</time>
      </trkpt>
      <trkpt lat="47.79412573" lon="2.15318936">
        <ele>165.03</ele>
        <time>2025-04-08T07:23:47.000Z</time>
      </trkpt>
      <trkpt lat="47.79407751" lon="2.15331901">
        <ele>165.47</ele>
        <time>2025-04-08T07:23:55.000Z</time>
      </trkpt>
      <trkpt lat="47.79401725" lon="2.15344123">
        <ele>165.45</ele>
        <time>2025-04-08T07:24:03.000Z</time>
      </trkpt>
      <trkpt lat="47.79395109" lon="2.15354456">
        <ele>165.54</ele>
        <time>2025-04-08T07:24:12.000Z</time>
      </trkpt>
      <trkpt lat="47.79390849" lon="2.15368583">
        <ele>168.32</ele>
        <time>2025-04-08T07:24:20.000Z</time>
      </trkpt>
      <trkpt lat="47.79386109" lon="2.15380073">
        <ele>167.79</ele>
        <time>2025-04-08T07:24:26.000Z</time>
      </trkpt>
      <trkpt lat="47.79382214" lon="2.15393379">
        <ele>166.73</ele>
        <time>2025-04-08T07:24:36.000Z</time>
      </trkpt>
      <trkpt lat="47.79377381" lon="2.15405923">
        <ele>165.58</ele>
        <time>2025-04-08T07:24:47.000Z</time>
      </trkpt>
      <trkpt lat="47.79368448" lon="2.15410424">
        <ele>165.46</ele>
        <time>2025-04-08T07:25:01.000Z</time>
      </trkpt>
      <trkpt lat="47.79358547" lon="2.15409742">
        <ele>162.57</ele>
        <time>2025-04-08T07:25:30.000Z</time>
      </trkpt>
      <trkpt lat="47.79349209" lon="2.15405293">
        <ele>161.2</ele>
        <time>2025-04-08T07:25:39.000Z</time>
      </trkpt>
      <trkpt lat="47.79339429" lon="2.15404039">
        <ele>160.59</ele>
        <time>2025-04-08T07:25:48.000Z</time>
      </trkpt>
      <trkpt lat="47.79330516" lon="2.15400856">
        <ele>160.04</ele>
        <time>2025-04-08T07:25:56.000Z</time>
      </trkpt>
      <trkpt lat="47.79322184" lon="2.1539369">
        <ele>155.57</ele>
        <time>2025-04-08T07:26:06.000Z</time>
      </trkpt>
      <trkpt lat="47.79313955" lon="2.1538595">
        <ele>162.1</ele>
        <time>2025-04-08T07:26:14.000Z</time>
      </trkpt>
      <trkpt lat="47.79305907" lon="2.15377244">
        <ele>165.13</ele>
        <time>2025-04-08T07:26:21.000Z</time>
      </trkpt>
      <trkpt lat="47.79297544" lon="2.15371536">
        <ele>167.34</ele>
        <time>2025-04-08T07:26:29.000Z</time>
      </trkpt>
      <trkpt lat="47.79289537" lon="2.15364584">
        <ele>167.63</ele>
        <time>2025-04-08T07:26:39.000Z</time>
      </trkpt>
      <trkpt lat="47.79281108" lon="2.15357067">
        <ele>169.75</ele>
        <time>2025-04-08T07:26:47.000Z</time>
      </trkpt>
      <trkpt lat="47.79272507" lon="2.15350292">
        <ele>166.83</ele>
        <time>2025-04-08T07:26:55.000Z</time>
      </trkpt>
      <trkpt lat="47.7926339" lon="2.15344323">
        <ele>164.75</ele>
        <time>2025-04-08T07:27:08.000Z</time>
      </trkpt>
      <trkpt lat="47.79254912" lon="2.15336934">
        <ele>162.53</ele>
        <time>2025-04-08T07:27:18.000Z</time>
      </trkpt>
      <trkpt lat="47.79247253" lon="2.15328907">
        <ele>165.27</ele>
        <time>2025-04-08T07:27:25.000Z</time>
      </trkpt>
      <trkpt lat="47.7923928" lon="2.15319129">
        <ele>164.72</ele>
        <time>2025-04-08T07:27:33.000Z</time>
      </trkpt>
      <trkpt lat="47.79231539" lon="2.15310629">
        <ele>163.39</ele>
        <time>2025-04-08T07:27:40.000Z</time>
      </trkpt>
      <trkpt lat="47.79222862" lon="2.15303406">
        <ele>161.07</ele>
        <time>2025-04-08T07:27:50.000Z</time>
      </trkpt>
      <trkpt lat="47.79215907" lon="2.15294433">
        <ele>161.2</ele>
        <time>2025-04-08T07:27:57.000Z</time>
      </trkpt>
      <trkpt lat="47.79207981" lon="2.15285151">
        <ele>162.17</ele>
        <time>2025-04-08T07:28:05.000Z</time>
      </trkpt>
      <trkpt lat="47.79200797" lon="2.15275734">
        <ele>166.37</ele>
        <time>2025-04-08T07:28:13.000Z</time>
      </trkpt>
      <trkpt lat="47.7919492" lon="2.15264249">
        <ele>170.13</ele>
        <time>2025-04-08T07:28:19.000Z</time>
      </trkpt>
      <trkpt lat="47.791867" lon="2.15256334">
        <ele>171.43</ele>
        <time>2025-04-08T07:28:27.000Z</time>
      </trkpt>
      <trkpt lat="47.79178714" lon="2.15248522">
        <ele>171.41</ele>
        <time>2025-04-08T07:28:37.000Z</time>
      </trkpt>
      <trkpt lat="47.79170893" lon="2.15241468">
        <ele>170.93</ele>
        <time>2025-04-08T07:28:46.000Z</time>
      </trkpt>
      <trkpt lat="47.79163594" lon="2.15231363">
        <ele>176.24</ele>
        <time>2025-04-08T07:28:54.000Z</time>
      </trkpt>
      <trkpt lat="47.79155743" lon="2.15224259">
        <ele>177.79</ele>
        <time>2025-04-08T07:29:01.000Z</time>
      </trkpt>
      <trkpt lat="47.79148487" lon="2.15215279">
        <ele>179.69</ele>
        <time>2025-04-08T07:29:08.000Z</time>
      </trkpt>
      <trkpt lat="47.79141106" lon="2.15205533">
        <ele>180.33</ele>
        <time>2025-04-08T07:29:16.000Z</time>
      </trkpt>
      <trkpt lat="47.791329" lon="2.15195884">
        <ele>184.36</ele>
        <time>2025-04-08T07:29:23.000Z</time>
      </trkpt>
      <trkpt lat="47.79125027" lon="2.1518794">
        <ele>179.43</ele>
        <time>2025-04-08T07:29:33.000Z</time>
      </trkpt>
      <trkpt lat="47.79117154" lon="2.15180654">
        <ele>178.4</ele>
        <time>2025-04-08T07:29:42.000Z</time>
      </trkpt>
      <trkpt lat="47.7910896" lon="2.15173073">
        <ele>177.42</ele>
        <time>2025-04-08T07:29:51.000Z</time>
      </trkpt>
      <trkpt lat="47.79101187" lon="2.151653">
        <ele>175.55</ele>
        <time>2025-04-08T07:30:00.000Z</time>
      </trkpt>
      <trkpt lat="47.79094301" lon="2.15156341">
        <ele>177.1</ele>
        <time>2025-04-08T07:30:07.000Z</time>
      </trkpt>
      <trkpt lat="47.79086585" lon="2.15148159">
        <ele>176.06</ele>
        <time>2025-04-08T07:30:16.000Z</time>
      </trkpt>
      <trkpt lat="47.79078648" lon="2.15140899">
        <ele>172.56</ele>
        <time>2025-04-08T07:30:25.000Z</time>
      </trkpt>
      <trkpt lat="47.79070727" lon="2.15133332">
        <ele>171.44</ele>
        <time>2025-04-08T07:30:34.000Z</time>
      </trkpt>
      <trkpt lat="47.79063174" lon="2.15125707">
        <ele>169.7</ele>
        <time>2025-04-08T07:30:42.000Z</time>
      </trkpt>
      <trkpt lat="47.7905537" lon="2.15117357">
        <ele>169.43</ele>
        <time>2025-04-08T07:30:51.000Z</time>
      </trkpt>
      <trkpt lat="47.79047733" lon="2.15109215">
        <ele>167.01</ele>
        <time>2025-04-08T07:31:00.000Z</time>
      </trkpt>
      <trkpt lat="47.79039192" lon="2.15100478">
        <ele>171.23</ele>
        <time>2025-04-08T07:31:07.000Z</time>
      </trkpt>
      <trkpt lat="47.79031359" lon="2.1509248">
        <ele>169.35</ele>
        <time>2025-04-08T07:31:16.000Z</time>
      </trkpt>
      <trkpt lat="47.79023651" lon="2.15083137">
        <ele>169.2</ele>
        <time>2025-04-08T07:31:25.000Z</time>
      </trkpt>
      <trkpt lat="47.79016393" lon="2.15074777">
        <ele>172.46</ele>
        <time>2025-04-08T07:31:32.000Z</time>
      </trkpt>
      <trkpt lat="47.79008825" lon="2.15067243">
        <ele>173.3</ele>
        <time>2025-04-08T07:31:40.000Z</time>
      </trkpt>
      <trkpt lat="47.78999209" lon="2.15070429">
        <ele>175.14</ele>
        <time>2025-04-08T07:31:50.000Z</time>
      </trkpt>
      <trkpt lat="47.78989347" lon="2.15072812">
        <ele>175.95</ele>
        <time>2025-04-08T07:31:58.000Z</time>
      </trkpt>
      <trkpt lat="47.78979875" lon="2.15076016">
        <ele>172.1</ele>
        <time>2025-04-08T07:32:09.000Z</time>
      </trkpt>
      <trkpt lat="47.7896921" lon="2.15076628">
        <ele>177.63</ele>
        <time>2025-04-08T07:32:17.000Z</time>
      </trkpt>
      <trkpt lat="47.78960254" lon="2.15080173">
        <ele>177.68</ele>
        <time>2025-04-08T07:32:24.000Z</time>
      </trkpt>
      <trkpt lat="47.78679252" lon="2.15161612">
        <ele>186.75</ele>
        <time>2025-04-08T07:36:21.000Z</time>
      </trkpt>
      <trkpt lat="47.78669435" lon="2.15164443">
        <ele>185.06</ele>
        <time>2025-04-08T07:36:35.000Z</time>
      </trkpt>
      <trkpt lat="47.78659351" lon="2.15162098">
        <ele>184.5</ele>
        <time>2025-04-08T07:36:44.000Z</time>
      </trkpt>
      <trkpt lat="47.78650077" lon="2.15164404">
        <ele>181.04</ele>
        <time>2025-04-08T07:36:50.000Z</time>
      </trkpt>
      <trkpt lat="47.78640995" lon="2.15166444">
        <ele>184.16</ele>
        <time>2025-04-08T07:36:56.000Z</time>
      </trkpt>
      <trkpt lat="47.78631999" lon="2.15163592">
        <ele>181.76</ele>
        <time>2025-04-08T07:37:03.000Z</time>
      </trkpt>
      <trkpt lat="47.78622675" lon="2.15162234">
        <ele>181.9</ele>
        <time>2025-04-08T07:37:12.000Z</time>
      </trkpt>
      <trkpt lat="47.78613801" lon="2.15164562">
        <ele>179.49</ele>
        <time>2025-04-08T07:37:18.000Z</time>
      </trkpt>
      <trkpt lat="47.78604043" lon="2.15164009">
        <ele>182.57</ele>
        <time>2025-04-08T07:37:26.000Z</time>
      </trkpt>
      <trkpt lat="47.7859406" lon="2.15165442">
        <ele>183.04</ele>
        <time>2025-04-08T07:37:35.000Z</time>
      </trkpt>
      <trkpt lat="47.78583984" lon="2.15166445">
        <ele>183.6</ele>
        <time>2025-04-08T07:37:45.000Z</time>
      </trkpt>
      <trkpt lat="47.78574346" lon="2.15167243">
        <ele>184.02</ele>
        <time>2025-04-08T07:37:54.000Z</time>
      </trkpt>
      <trkpt lat="47.78564554" lon="2.15165265">
        <ele>186.49</ele>
        <time>2025-04-08T07:38:03.000Z</time>
      </trkpt>
      <trkpt lat="47.78555106" lon="2.1516437">
        <ele>186.59</ele>
        <time>2025-04-08T07:38:10.000Z</time>
      </trkpt>
      <trkpt lat="47.78545052" lon="2.15162712">
        <ele>186.86</ele>
        <time>2025-04-08T07:38:18.000Z</time>
      </trkpt>
      <trkpt lat="47.78535668" lon="2.15161047">
        <ele>186.82</ele>
        <time>2025-04-08T07:38:24.000Z</time>
      </trkpt>
      <trkpt lat="47.78525577" lon="2.15158811">
        <ele>188.38</ele>
        <time>2025-04-08T07:38:31.000Z</time>
      </trkpt>
      <trkpt lat="47.78515968" lon="2.15160459">
        <ele>184.91</ele>
        <time>2025-04-08T07:38:37.000Z</time>
      </trkpt>
      <trkpt lat="47.78506421" lon="2.15160172">
        <ele>186.07</ele>
        <time>2025-04-08T07:38:45.000Z</time>
      </trkpt>
      <trkpt lat="47.78496881" lon="2.15161341">
        <ele>183.9</ele>
        <time>2025-04-08T07:38:55.000Z</time>
      </trkpt>
      <trkpt lat="47.78487264" lon="2.15161591">
        <ele>185.71</ele>
        <time>2025-04-08T07:39:05.000Z</time>
      </trkpt>
      <trkpt lat="47.78478115" lon="2.15163137">
        <ele>186.74</ele>
        <time>2025-04-08T07:39:14.000Z</time>
      </trkpt>
      <trkpt lat="47.78468935" lon="2.15162151">
        <ele>187.11</ele>
        <time>2025-04-08T07:39:22.000Z</time>
      </trkpt>
      <trkpt lat="47.78459055" lon="2.15161794">
        <ele>185.78</ele>
        <time>2025-04-08T07:39:30.000Z</time>
      </trkpt>
      <trkpt lat="47.78449212" lon="2.1516133">
        <ele>180.67</ele>
        <time>2025-04-08T07:39:39.000Z</time>
      </trkpt>
      <trkpt lat="47.78439643" lon="2.15160805">
        <ele>186.01</ele>
        <time>2025-04-08T07:39:47.000Z</time>
      </trkpt>
      <trkpt lat="47.78430211" lon="2.1516043">
        <ele>183.6</ele>
        <time>2025-04-08T07:39:54.000Z</time>
      </trkpt>
      <trkpt lat="47.78420301" lon="2.15159924">
        <ele>185.82</ele>
        <time>2025-04-08T07:40:02.000Z</time>
      </trkpt>
      <trkpt lat="47.78410841" lon="2.15159676">
        <ele>185.47</ele>
        <time>2025-04-08T07:40:11.000Z</time>
      </trkpt>
      <trkpt lat="47.78401289" lon="2.1515673">
        <ele>185.67</ele>
        <time>2025-04-08T07:40:19.000Z</time>
      </trkpt>
      <trkpt lat="47.78392788" lon="2.15151581">
        <ele>186.84</ele>
        <time>2025-04-08T07:40:25.000Z</time>
      </trkpt>
      <trkpt lat="47.78383164" lon="2.15151273">
        <ele>193.68</ele>
        <time>2025-04-08T07:40:34.000Z</time>
      </trkpt>
      <trkpt lat="47.78373665" lon="2.15146985">
        <ele>194.77</ele>
        <time>2025-04-08T07:40:41.000Z</time>
      </trkpt>
      <trkpt lat="47.78364778" lon="2.15144006">
        <ele>195.14</ele>
        <time>2025-04-08T07:40:48.000Z</time>
      </trkpt>
      <trkpt lat="47.78355223" lon="2.15140682">
        <ele>195.05</ele>
        <time>2025-04-08T07:40:56.000Z</time>
      </trkpt>
      <trkpt lat="47.78345582" lon="2.15138593">
        <ele>195.73</ele>
        <time>2025-04-08T07:41:03.000Z</time>
      </trkpt>
      <trkpt lat="47.78336538" lon="2.15140698">
        <ele>200.81</ele>
        <time>2025-04-08T07:41:10.000Z</time>
      </trkpt>
      <trkpt lat="47.78327054" lon="2.15136891">
        <ele>198.39</ele>
        <time>2025-04-08T07:41:17.000Z</time>
      </trkpt>
      <trkpt lat="47.78317646" lon="2.15133967">
        <ele>194.32</ele>
        <time>2025-04-08T07:41:26.000Z</time>
      </trkpt>
      <trkpt lat="47.78308349" lon="2.15130931">
        <ele>195.65</ele>
        <time>2025-04-08T07:41:33.000Z</time>
      </trkpt>
      <trkpt lat="47.78299373" lon="2.15128591">
        <ele>197.4</ele>
        <time>2025-04-08T07:41:40.000Z</time>
      </trkpt>
      <trkpt lat="47.78290682" lon="2.15124069">
        <ele>194.56</ele>
        <time>2025-04-08T07:41:49.000Z</time>
      </trkpt>
      <trkpt lat="47.78281397" lon="2.15118633">
        <ele>192.48</ele>
        <time>2025-04-08T07:41:58.000Z</time>
      </trkpt>
      <trkpt lat="47.78271408" lon="2.15114471">
        <ele>192.84</ele>
        <time>2025-04-08T07:42:05.000Z</time>
      </trkpt>
      <trkpt lat="47.78262278" lon="2.15111289">
        <ele>191.24</ele>
        <time>2025-04-08T07:42:13.000Z</time>
      </trkpt>
      <trkpt lat="47.78252451" lon="2.15109533">
        <ele>186.02</ele>
        <time>2025-04-08T07:42:22.000Z</time>
      </trkpt>
      <trkpt lat="47.78242951" lon="2.15110356">
        <ele>186.64</ele>
        <time>2025-04-08T07:42:30.000Z</time>
      </trkpt>
      <trkpt lat="47.78233384" lon="2.15113519">
        <ele>187.3</ele>
        <time>2025-04-08T07:42:38.000Z</time>
      </trkpt>
      <trkpt lat="47.78224496" lon="2.15117897">
        <ele>184.48</ele>
        <time>2025-04-08T07:42:46.000Z</time>
      </trkpt>
      <trkpt lat="47.782159" lon="2.15122266">
        <ele>185.72</ele>
        <time>2025-04-08T07:42:55.000Z</time>
      </trkpt>
      <trkpt lat="47.78205965" lon="2.15123443">
        <ele>186.15</ele>
        <time>2025-04-08T07:43:02.000Z</time>
      </trkpt>
      <trkpt lat="47.7819646" lon="2.15126766">
        <ele>182.85</ele>
        <time>2025-04-08T07:43:13.000Z</time>
      </trkpt>
      <trkpt lat="47.78187162" lon="2.15129401">
        <ele>185.98</ele>
        <time>2025-04-08T07:43:20.000Z</time>
      </trkpt>
      <trkpt lat="47.78178337" lon="2.15132116">
        <ele>185.09</ele>
        <time>2025-04-08T07:43:27.000Z</time>
      </trkpt>
      <trkpt lat="47.78169125" lon="2.15137359">
        <ele>181.39</ele>
        <time>2025-04-08T07:43:38.000Z</time>
      </trkpt>
      <trkpt lat="47.78159433" lon="2.15140272">
        <ele>180.88</ele>
        <time>2025-04-08T07:43:46.000Z</time>
      </trkpt>
      <trkpt lat="47.7815008" lon="2.15140595">
        <ele>181.02</ele>
        <time>2025-04-08T07:43:54.000Z</time>
      </trkpt>
      <trkpt lat="47.7814124" lon="2.15143772">
        <ele>183.99</ele>
        <time>2025-04-08T07:44:01.000Z</time>
      </trkpt>
      <trkpt lat="47.78131528" lon="2.15147663">
        <ele>183.32</ele>
        <time>2025-04-08T07:44:10.000Z</time>
      </trkpt>
      <trkpt lat="47.78121122" lon="2.15148711">
        <ele>179.85</ele>
        <time>2025-04-08T07:44:19.000Z</time>
      </trkpt>
      <trkpt lat="47.781116" lon="2.15152621">
        <ele>182.12</ele>
        <time>2025-04-08T07:44:27.000Z</time>
      </trkpt>
      <trkpt lat="47.78102411" lon="2.15153727">
        <ele>183.06</ele>
        <time>2025-04-08T07:44:33.000Z</time>
      </trkpt>
      <trkpt lat="47.78092674" lon="2.15156911">
        <ele>184.42</ele>
        <time>2025-04-08T07:44:41.000Z</time>
      </trkpt>
      <trkpt lat="47.78083975" lon="2.15161416">
        <ele>186.23</ele>
        <time>2025-04-08T07:44:47.000Z</time>
      </trkpt>
      <trkpt lat="47.78074824" lon="2.15165846">
        <ele>186.36</ele>
        <time>2025-04-08T07:44:54.000Z</time>
      </trkpt>
      <trkpt lat="47.78065048" lon="2.15169077">
        <ele>187.29</ele>
        <time>2025-04-08T07:45:03.000Z</time>
      </trkpt>
      <trkpt lat="47.78055552" lon="2.15170526">
        <ele>187.84</ele>
        <time>2025-04-08T07:45:11.000Z</time>
      </trkpt>
      <trkpt lat="47.78046563" lon="2.15171271">
        <ele>187.14</ele>
        <time>2025-04-08T07:45:18.000Z</time>
      </trkpt>
      <trkpt lat="47.78036706" lon="2.15173918">
        <ele>188.4</ele>
        <time>2025-04-08T07:45:25.000Z</time>
      </trkpt>
      <trkpt lat="47.78026247" lon="2.15172395">
        <ele>189.64</ele>
        <time>2025-04-08T07:45:33.000Z</time>
      </trkpt>
      <trkpt lat="47.78016215" lon="2.15171411">
        <ele>189.54</ele>
        <time>2025-04-08T07:45:40.000Z</time>
      </trkpt>
      <trkpt lat="47.78007236" lon="2.15169654">
        <ele>190.23</ele>
        <time>2025-04-08T07:45:48.000Z</time>
      </trkpt>
      <trkpt lat="47.77997456" lon="2.15167761">
        <ele>190.57</ele>
        <time>2025-04-08T07:45:57.000Z</time>
      </trkpt>
      <trkpt lat="47.77988341" lon="2.15167513">
        <ele>191.79</ele>
        <time>2025-04-08T07:46:05.000Z</time>
      </trkpt>
      <trkpt lat="47.77978718" lon="2.1516529">
        <ele>191.44</ele>
        <time>2025-04-08T07:46:13.000Z</time>
      </trkpt>
      <trkpt lat="47.77969076" lon="2.15164608">
        <ele>192.26</ele>
        <time>2025-04-08T07:46:20.000Z</time>
      </trkpt>
      <trkpt lat="47.77959507" lon="2.15163506">
        <ele>192.83</ele>
        <time>2025-04-08T07:46:27.000Z</time>
      </trkpt>
      <trkpt lat="47.77950049" lon="2.15162701">
        <ele>194.17</ele>
        <time>2025-04-08T07:46:35.000Z</time>
      </trkpt>
      <trkpt lat="47.77940064" lon="2.15161502">
        <ele>193.18</ele>
        <time>2025-04-08T07:46:43.000Z</time>
      </trkpt>
      <trkpt lat="47.77930779" lon="2.15160445">
        <ele>190.53</ele>
        <time>2025-04-08T07:46:53.000Z</time>
      </trkpt>
      <trkpt lat="47.77921588" lon="2.15163604">
        <ele>190.05</ele>
        <time>2025-04-08T07:47:01.000Z</time>
      </trkpt>
      <trkpt lat="47.77911921" lon="2.15160185">
        <ele>189.31</ele>
        <time>2025-04-08T07:47:08.000Z</time>
      </trkpt>
      <trkpt lat="47.77902581" lon="2.15158869">
        <ele>190.55</ele>
        <time>2025-04-08T07:47:15.000Z</time>
      </trkpt>
      <trkpt lat="47.77893141" lon="2.15156538">
        <ele>185.06</ele>
        <time>2025-04-08T07:47:25.000Z</time>
      </trkpt>
      <trkpt lat="47.7788423" lon="2.15154588">
        <ele>184.04</ele>
        <time>2025-04-08T07:47:33.000Z</time>
      </trkpt>
      <trkpt lat="47.77875086" lon="2.1515707">
        <ele>185.1</ele>
        <time>2025-04-08T07:47:40.000Z</time>
      </trkpt>
      <trkpt lat="47.77865038" lon="2.15155008">
        <ele>181.27</ele>
        <time>2025-04-08T07:47:51.000Z</time>
      </trkpt>
      <trkpt lat="47.778552" lon="2.15152057">
        <ele>183.96</ele>
        <time>2025-04-08T07:47:57.000Z</time>
      </trkpt>
      <trkpt lat="47.77845586" lon="2.15149706">
        <ele>185.25</ele>
        <time>2025-04-08T07:48:04.000Z</time>
      </trkpt>
      <trkpt lat="47.77835941" lon="2.15149055">
        <ele>185.51</ele>
        <time>2025-04-08T07:48:13.000Z</time>
      </trkpt>
      <trkpt lat="47.77826184" lon="2.15148423">
        <ele>183.85</ele>
        <time>2025-04-08T07:48:21.000Z</time>
      </trkpt>
      <trkpt lat="47.7781715" lon="2.15147514">
        <ele>181.31</ele>
        <time>2025-04-08T07:48:28.000Z</time>
      </trkpt>
      <trkpt lat="47.77807932" lon="2.15147126">
        <ele>179.57</ele>
        <time>2025-04-08T07:48:36.000Z</time>
      </trkpt>
      <trkpt lat="47.77798817" lon="2.15146737">
        <ele>179.83</ele>
        <time>2025-04-08T07:48:43.000Z</time>
      </trkpt>
      <trkpt lat="47.77789658" lon="2.15145608">
        <ele>180.06</ele>
        <time>2025-04-08T07:48:51.000Z</time>
      </trkpt>
      <trkpt lat="47.77780039" lon="2.15141465">
        <ele>184.11</ele>
        <time>2025-04-08T07:48:58.000Z</time>
      </trkpt>
      <trkpt lat="47.77770664" lon="2.15137855">
        <ele>181.7</ele>
        <time>2025-04-08T07:49:08.000Z</time>
      </trkpt>
      <trkpt lat="47.7776518" lon="2.15126055">
        <ele>183.58</ele>
        <time>2025-04-08T07:49:15.000Z</time>
      </trkpt>
      <trkpt lat="47.77760108" lon="2.15114136">
        <ele>182.91</ele>
        <time>2025-04-08T07:49:23.000Z</time>
      </trkpt>
      <trkpt lat="47.77756154" lon="2.1510215">
        <ele>180.95</ele>
        <time>2025-04-08T07:49:31.000Z</time>
      </trkpt>
      <trkpt lat="47.77750472" lon="2.15091608">
        <ele>178.31</ele>
        <time>2025-04-08T07:49:38.000Z</time>
      </trkpt>
      <trkpt lat="47.77745256" lon="2.15079625">
        <ele>176.68</ele>
        <time>2025-04-08T07:49:46.000Z</time>
      </trkpt>
      <trkpt lat="47.77739776" lon="2.15067617">
        <ele>173.88</ele>
        <time>2025-04-08T07:49:55.000Z</time>
      </trkpt>
      <trkpt lat="47.77734293" lon="2.15057019">
        <ele>174.15</ele>
        <time>2025-04-08T07:50:02.000Z</time>
      </trkpt>
      <trkpt lat="47.77728651" lon="2.15044829">
        <ele>176.25</ele>
        <time>2025-04-08T07:50:09.000Z</time>
      </trkpt>
      <trkpt lat="47.77721399" lon="2.15035676">
        <ele>178.47</ele>
        <time>2025-04-08T07:50:16.000Z</time>
      </trkpt>
      <trkpt lat="47.77715333" lon="2.1502377">
        <ele>181.13</ele>
        <time>2025-04-08T07:50:23.000Z</time>
      </trkpt>
      <trkpt lat="47.77709507" lon="2.15012667">
        <ele>177.32</ele>
        <time>2025-04-08T07:50:33.000Z</time>
      </trkpt>
      <trkpt lat="47.77703921" lon="2.15000089">
        <ele>176.05</ele>
        <time>2025-04-08T07:50:43.000Z</time>
      </trkpt>
      <trkpt lat="47.77698276" lon="2.14988234">
        <ele>176.85</ele>
        <time>2025-04-08T07:50:49.000Z</time>
      </trkpt>
      <trkpt lat="47.77692486" lon="2.14977777">
        <ele>175.91</ele>
        <time>2025-04-08T07:50:57.000Z</time>
      </trkpt>
      <trkpt lat="47.77685607" lon="2.1496834">
        <ele>173.31</ele>
        <time>2025-04-08T07:51:09.000Z</time>
      </trkpt>
      <trkpt lat="47.77680367" lon="2.14957293">
        <ele>170.35</ele>
        <time>2025-04-08T07:52:40.000Z</time>
      </trkpt>
      <trkpt lat="47.7766781" lon="2.1494693">
        <ele>169.33</ele>
        <time>2025-04-08T07:52:53.000Z</time>
      </trkpt>
      <trkpt lat="47.77658962" lon="2.14939819">
        <ele>168.29</ele>
        <time>2025-04-08T07:53:01.000Z</time>
      </trkpt>
      <trkpt lat="47.77650001" lon="2.14933913">
        <ele>168.98</ele>
        <time>2025-04-08T07:53:09.000Z</time>
      </trkpt>
      <trkpt lat="47.77641437" lon="2.14927595">
        <ele>170.37</ele>
        <time>2025-04-08T07:53:31.000Z</time>
      </trkpt>
      <trkpt lat="47.77632442" lon="2.1492656">
        <ele>168.59</ele>
        <time>2025-04-08T07:53:42.000Z</time>
      </trkpt>
      <trkpt lat="47.77623107" lon="2.14923361">
        <ele>171.79</ele>
        <time>2025-04-08T07:53:53.000Z</time>
      </trkpt>
      <trkpt lat="47.77613608" lon="2.14920931">
        <ele>173.72</ele>
        <time>2025-04-08T07:54:00.000Z</time>
      </trkpt>
      <trkpt lat="47.77604444" lon="2.14918204">
        <ele>174.58</ele>
        <time>2025-04-08T07:54:07.000Z</time>
      </trkpt>
      <trkpt lat="47.77594423" lon="2.1491448">
        <ele>174.98</ele>
        <time>2025-04-08T07:54:16.000Z</time>
      </trkpt>
      <trkpt lat="47.77585511" lon="2.14909929">
        <ele>172.88</ele>
        <time>2025-04-08T07:54:25.000Z</time>
      </trkpt>
      <trkpt lat="47.77575128" lon="2.14909484">
        <ele>175.01</ele>
        <time>2025-04-08T07:54:33.000Z</time>
      </trkpt>
      <trkpt lat="47.77565469" lon="2.14911105">
        <ele>173.77</ele>
        <time>2025-04-08T07:54:40.000Z</time>
      </trkpt>
      <trkpt lat="47.7755666" lon="2.14915168">
        <ele>177.31</ele>
        <time>2025-04-08T07:54:48.000Z</time>
      </trkpt>
      <trkpt lat="47.77550175" lon="2.14927282">
        <ele>176.46</ele>
        <time>2025-04-08T07:54:56.000Z</time>
      </trkpt>
      <trkpt lat="47.77547834" lon="2.14941412">
        <ele>174.07</ele>
        <time>2025-04-08T07:55:04.000Z</time>
      </trkpt>
      <trkpt lat="47.77546608" lon="2.14954694">
        <ele>174.28</ele>
        <time>2025-04-08T07:55:11.000Z</time>
      </trkpt>
      <trkpt lat="47.77546564" lon="2.14968649">
        <ele>173.75</ele>
        <time>2025-04-08T07:55:17.000Z</time>
      </trkpt>
      <trkpt lat="47.77545491" lon="2.14982861">
        <ele>173.13</ele>
        <time>2025-04-08T07:55:24.000Z</time>
      </trkpt>
      <trkpt lat="47.77544325" lon="2.14997871">
        <ele>172.92</ele>
        <time>2025-04-08T07:55:33.000Z</time>
      </trkpt>
      <trkpt lat="47.77541755" lon="2.15012864">
        <ele>173.83</ele>
        <time>2025-04-08T07:55:40.000Z</time>
      </trkpt>
      <trkpt lat="47.77538404" lon="2.15025342">
        <ele>172.71</ele>
        <time>2025-04-08T07:55:51.000Z</time>
      </trkpt>
      <trkpt lat="47.77535619" lon="2.15039095">
        <ele>173.4</ele>
        <time>2025-04-08T07:56:00.000Z</time>
      </trkpt>
      <trkpt lat="47.77532977" lon="2.15052032">
        <ele>174.34</ele>
        <time>2025-04-08T07:56:07.000Z</time>
      </trkpt>
      <trkpt lat="47.77528468" lon="2.15065674">
        <ele>177.51</ele>
        <time>2025-04-08T07:56:14.000Z</time>
      </trkpt>
      <trkpt lat="47.77523988" lon="2.15078512">
        <ele>176.81</ele>
        <time>2025-04-08T07:56:23.000Z</time>
      </trkpt>
      <trkpt lat="47.77522498" lon="2.15092146">
        <ele>172.01</ele>
        <time>2025-04-08T07:56:32.000Z</time>
      </trkpt>
      <trkpt lat="47.77519601" lon="2.1510539">
        <ele>172.12</ele>
        <time>2025-04-08T07:56:40.000Z</time>
      </trkpt>
      <trkpt lat="47.77516238" lon="2.1511844">
        <ele>172.89</ele>
        <time>2025-04-08T07:56:48.000Z</time>
      </trkpt>
      <trkpt lat="47.77514284" lon="2.15132622">
        <ele>175.86</ele>
        <time>2025-04-08T07:56:57.000Z</time>
      </trkpt>
      <trkpt lat="47.77512747" lon="2.15146218">
        <ele>177.34</ele>
        <time>2025-04-08T07:57:04.000Z</time>
      </trkpt>
      <trkpt lat="47.77508696" lon="2.15158721">
        <ele>178.74</ele>
        <time>2025-04-08T07:57:11.000Z</time>
      </trkpt>
      <trkpt lat="47.77505179" lon="2.15171614">
        <ele>178.39</ele>
        <time>2025-04-08T07:57:19.000Z</time>
      </trkpt>
      <trkpt lat="47.77502679" lon="2.15185164">
        <ele>177.84</ele>
        <time>2025-04-08T07:57:28.000Z</time>
      </trkpt>
      <trkpt lat="47.77499331" lon="2.15197803">
        <ele>176.56</ele>
        <time>2025-04-08T07:57:36.000Z</time>
      </trkpt>
      <trkpt lat="47.77495457" lon="2.15209909">
        <ele>175.87</ele>
        <time>2025-04-08T07:57:43.000Z</time>
      </trkpt>
      <trkpt lat="47.77492779" lon="2.15223366">
        <ele>177.35</ele>
        <time>2025-04-08T07:57:51.000Z</time>
      </trkpt>
      <trkpt lat="47.77489396" lon="2.15237262">
        <ele>178.26</ele>
        <time>2025-04-08T07:57:59.000Z</time>
      </trkpt>
      <trkpt lat="47.77486548" lon="2.15250398">
        <ele>177.55</ele>
        <time>2025-04-08T07:58:07.000Z</time>
      </trkpt>
      <trkpt lat="47.7748321" lon="2.15263302">
        <ele>176.62</ele>
        <time>2025-04-08T07:58:15.000Z</time>
      </trkpt>
      <trkpt lat="47.77480675" lon="2.15277536">
        <ele>174.99</ele>
        <time>2025-04-08T07:58:23.000Z</time>
      </trkpt>
      <trkpt lat="47.77477917" lon="2.15291503">
        <ele>175.46</ele>
        <time>2025-04-08T07:58:30.000Z</time>
      </trkpt>
      <trkpt lat="47.77475242" lon="2.15305521">
        <ele>176.44</ele>
        <time>2025-04-08T07:58:38.000Z</time>
      </trkpt>
      <trkpt lat="47.77472909" lon="2.15318441">
        <ele>173.83</ele>
        <time>2025-04-08T07:58:45.000Z</time>
      </trkpt>
      <trkpt lat="47.77468735" lon="2.15331888">
        <ele>171.53</ele>
        <time>2025-04-08T07:58:54.000Z</time>
      </trkpt>
      <trkpt lat="47.7746554" lon="2.15345008">
        <ele>170.43</ele>
        <time>2025-04-08T07:59:02.000Z</time>
      </trkpt>
      <trkpt lat="47.77462822" lon="2.15358">
        <ele>171.44</ele>
        <time>2025-04-08T07:59:11.000Z</time>
      </trkpt>
      <trkpt lat="47.77459767" lon="2.15370799">
        <ele>170.35</ele>
        <time>2025-04-08T07:59:21.000Z</time>
      </trkpt>
      <trkpt lat="47.77455511" lon="2.15382757">
        <ele>171.07</ele>
        <time>2025-04-08T07:59:31.000Z</time>
      </trkpt>
      <trkpt lat="47.77453023" lon="2.15396498">
        <ele>174.5</ele>
        <time>2025-04-08T07:59:38.000Z</time>
      </trkpt>
      <trkpt lat="47.77452594" lon="2.15410364">
        <ele>178.24</ele>
        <time>2025-04-08T07:59:53.000Z</time>
      </trkpt>
      <trkpt lat="47.77446756" lon="2.15421547">
        <ele>178.49</ele>
        <time>2025-04-08T08:00:04.000Z</time>
      </trkpt>
      <trkpt lat="47.77442231" lon="2.15434363">
        <ele>177.24</ele>
        <time>2025-04-08T08:00:16.000Z</time>
      </trkpt>
      <trkpt lat="47.77436451" lon="2.1544546">
        <ele>176.96</ele>
        <time>2025-04-08T08:00:27.000Z</time>
      </trkpt>
      <trkpt lat="47.77428523" lon="2.15454516">
        <ele>177.17</ele>
        <time>2025-04-08T08:00:36.000Z</time>
      </trkpt>
      <trkpt lat="47.77419964" lon="2.15461836">
        <ele>178.57</ele>
        <time>2025-04-08T08:00:44.000Z</time>
      </trkpt>
      <trkpt lat="47.77411505" lon="2.15468512">
        <ele>181.57</ele>
        <time>2025-04-08T08:00:52.000Z</time>
      </trkpt>
      <trkpt lat="47.77403282" lon="2.15475136">
        <ele>179.52</ele>
        <time>2025-04-08T08:00:59.000Z</time>
      </trkpt>
      <trkpt lat="47.77395409" lon="2.15481677">
        <ele>178.1</ele>
        <time>2025-04-08T08:01:07.000Z</time>
      </trkpt>
      <trkpt lat="47.77386644" lon="2.1549041">
        <ele>175.87</ele>
        <time>2025-04-08T08:01:16.000Z</time>
      </trkpt>
      <trkpt lat="47.7737852" lon="2.15499402">
        <ele>176.89</ele>
        <time>2025-04-08T08:01:27.000Z</time>
      </trkpt>
      <trkpt lat="47.77371027" lon="2.15509632">
        <ele>177.48</ele>
        <time>2025-04-08T08:01:37.000Z</time>
      </trkpt>
      <trkpt lat="47.7736536" lon="2.15520082">
        <ele>178.02</ele>
        <time>2025-04-08T08:01:45.000Z</time>
      </trkpt>
      <trkpt lat="47.77359433" lon="2.15530377">
        <ele>179.85</ele>
        <time>2025-04-08T08:01:52.000Z</time>
      </trkpt>
      <trkpt lat="47.77353185" lon="2.15541922">
        <ele>175.85</ele>
        <time>2025-04-08T08:02:00.000Z</time>
      </trkpt>
      <trkpt lat="47.77348448" lon="2.15553936">
        <ele>177.81</ele>
        <time>2025-04-08T08:02:08.000Z</time>
      </trkpt>
      <trkpt lat="47.77342316" lon="2.15564319">
        <ele>176.38</ele>
        <time>2025-04-08T08:02:24.000Z</time>
      </trkpt>
      <trkpt lat="47.77336845" lon="2.1557549">
        <ele>176.28</ele>
        <time>2025-04-08T08:02:33.000Z</time>
      </trkpt>
      <trkpt lat="47.7733329" lon="2.15587856">
        <ele>177.26</ele>
        <time>2025-04-08T08:02:43.000Z</time>
      </trkpt>
      <trkpt lat="47.77327506" lon="2.15599658">
        <ele>177.81</ele>
        <time>2025-04-08T08:02:52.000Z</time>
      </trkpt>
      <trkpt lat="47.77323528" lon="2.15612127">
        <ele>176.69</ele>
        <time>2025-04-08T08:03:00.000Z</time>
      </trkpt>
      <trkpt lat="47.77318534" lon="2.15625486">
        <ele>177.02</ele>
        <time>2025-04-08T08:03:09.000Z</time>
      </trkpt>
      <trkpt lat="47.77314096" lon="2.1563769">
        <ele>175.99</ele>
        <time>2025-04-08T08:03:17.000Z</time>
      </trkpt>
      <trkpt lat="47.77308094" lon="2.15647841">
        <ele>176.26</ele>
        <time>2025-04-08T08:03:26.000Z</time>
      </trkpt>
      <trkpt lat="47.77300251" lon="2.15654657">
        <ele>175.27</ele>
        <time>2025-04-08T08:03:34.000Z</time>
      </trkpt>
      <trkpt lat="47.77292176" lon="2.15662201">
        <ele>175.83</ele>
        <time>2025-04-08T08:03:44.000Z</time>
      </trkpt>
      <trkpt lat="47.77286379" lon="2.1567406">
        <ele>175.83</ele>
        <time>2025-04-08T08:03:52.000Z</time>
      </trkpt>
      <trkpt lat="47.77287362" lon="2.15687396">
        <ele>176.04</ele>
        <time>2025-04-08T08:04:00.000Z</time>
      </trkpt>
      <trkpt lat="47.77293338" lon="2.15699094">
        <ele>177.56</ele>
        <time>2025-04-08T08:04:08.000Z</time>
      </trkpt>
      <trkpt lat="47.77301062" lon="2.15707236">
        <ele>177.68</ele>
        <time>2025-04-08T08:04:17.000Z</time>
      </trkpt>
      <trkpt lat="47.77307133" lon="2.15718398">
        <ele>176.2</ele>
        <time>2025-04-08T08:04:24.000Z</time>
      </trkpt>
      <trkpt lat="47.7731204" lon="2.15731608">
        <ele>176.96</ele>
        <time>2025-04-08T08:04:32.000Z</time>
      </trkpt>
      <trkpt lat="47.77314205" lon="2.15745434">
        <ele>176.67</ele>
        <time>2025-04-08T08:04:39.000Z</time>
      </trkpt>
      <trkpt lat="47.77314124" lon="2.15760199">
        <ele>178.82</ele>
        <time>2025-04-08T08:04:48.000Z</time>
      </trkpt>
      <trkpt lat="47.77311693" lon="2.15773817">
        <ele>179.99</ele>
        <time>2025-04-08T08:04:56.000Z</time>
      </trkpt>
      <trkpt lat="47.77308689" lon="2.15787035">
        <ele>180.55</ele>
        <time>2025-04-08T08:05:03.000Z</time>
      </trkpt>
      <trkpt lat="47.77306567" lon="2.15800464">
        <ele>180.62</ele>
        <time>2025-04-08T08:05:11.000Z</time>
      </trkpt>
      <trkpt lat="47.77304952" lon="2.15814134">
        <ele>178.92</ele>
        <time>2025-04-08T08:05:20.000Z</time>
      </trkpt>
      <trkpt lat="47.77303839" lon="2.15827512">
        <ele>179.25</ele>
        <time>2025-04-08T08:05:28.000Z</time>
      </trkpt>
      <trkpt lat="47.77301481" lon="2.15840854">
        <ele>179.51</ele>
        <time>2025-04-08T08:05:36.000Z</time>
      </trkpt>
      <trkpt lat="47.7730002" lon="2.15856016">
        <ele>179.88</ele>
        <time>2025-04-08T08:05:46.000Z</time>
      </trkpt>
      <trkpt lat="47.77297996" lon="2.15869262">
        <ele>179.04</ele>
        <time>2025-04-08T08:05:53.000Z</time>
      </trkpt>
      <trkpt lat="47.77297054" lon="2.15883587">
        <ele>179.35</ele>
        <time>2025-04-08T08:06:01.000Z</time>
      </trkpt>
      <trkpt lat="47.77294618" lon="2.15897253">
        <ele>178.07</ele>
        <time>2025-04-08T08:06:09.000Z</time>
      </trkpt>
      <trkpt lat="47.77292396" lon="2.15910954">
        <ele>177.58</ele>
        <time>2025-04-08T08:06:17.000Z</time>
      </trkpt>
      <trkpt lat="47.77290803" lon="2.15924136">
        <ele>179.24</ele>
        <time>2025-04-08T08:06:24.000Z</time>
      </trkpt>
      <trkpt lat="47.77289861" lon="2.15938655">
        <ele>179.7</ele>
        <time>2025-04-08T08:06:32.000Z</time>
      </trkpt>
      <trkpt lat="47.77288771" lon="2.15952841">
        <ele>179.45</ele>
        <time>2025-04-08T08:06:40.000Z</time>
      </trkpt>
      <trkpt lat="47.77287307" lon="2.15966033">
        <ele>181.31</ele>
        <time>2025-04-08T08:06:48.000Z</time>
      </trkpt>
      <trkpt lat="47.77286173" lon="2.15980396">
        <ele>180.79</ele>
        <time>2025-04-08T08:06:57.000Z</time>
      </trkpt>
      <trkpt lat="47.77285912" lon="2.15995604">
        <ele>180.85</ele>
        <time>2025-04-08T08:07:05.000Z</time>
      </trkpt>
      <trkpt lat="47.77284628" lon="2.16009605">
        <ele>180.57</ele>
        <time>2025-04-08T08:07:12.000Z</time>
      </trkpt>
      <trkpt lat="47.77283147" lon="2.16023593">
        <ele>179.86</ele>
        <time>2025-04-08T08:07:19.000Z</time>
      </trkpt>
      <trkpt lat="47.77281664" lon="2.16037599">
        <ele>179.29</ele>
        <time>2025-04-08T08:07:27.000Z</time>
      </trkpt>
      <trkpt lat="47.77280626" lon="2.16051854">
        <ele>177.94</ele>
        <time>2025-04-08T08:07:36.000Z</time>
      </trkpt>
      <trkpt lat="47.77278773" lon="2.1606515">
        <ele>179.12</ele>
        <time>2025-04-08T08:07:44.000Z</time>
      </trkpt>
      <trkpt lat="47.77277" lon="2.16079535">
        <ele>178.5</ele>
        <time>2025-04-08T08:07:52.000Z</time>
      </trkpt>
      <trkpt lat="47.77275922" lon="2.16093909">
        <ele>178.02</ele>
        <time>2025-04-08T08:08:00.000Z</time>
      </trkpt>
      <trkpt lat="47.77274593" lon="2.16108428">
        <ele>179.18</ele>
        <time>2025-04-08T08:08:08.000Z</time>
      </trkpt>
      <trkpt lat="47.7727357" lon="2.16122847">
        <ele>178.92</ele>
        <time>2025-04-08T08:08:15.000Z</time>
      </trkpt>
      <trkpt lat="47.77271853" lon="2.16136082">
        <ele>180.92</ele>
        <time>2025-04-08T08:08:22.000Z</time>
      </trkpt>
      <trkpt lat="47.7727019" lon="2.16150681">
        <ele>181.64</ele>
        <time>2025-04-08T08:08:30.000Z</time>
      </trkpt>
      <trkpt lat="47.77269233" lon="2.16164667">
        <ele>181.88</ele>
        <time>2025-04-08T08:08:38.000Z</time>
      </trkpt>
      <trkpt lat="47.77267234" lon="2.16178541">
        <ele>180.72</ele>
        <time>2025-04-08T08:08:45.000Z</time>
      </trkpt>
      <trkpt lat="47.77265839" lon="2.16192269">
        <ele>181.59</ele>
        <time>2025-04-08T08:08:53.000Z</time>
      </trkpt>
      <trkpt lat="47.77264817" lon="2.16207014">
        <ele>179.7</ele>
        <time>2025-04-08T08:09:03.000Z</time>
      </trkpt>
      <trkpt lat="47.77262306" lon="2.16221304">
        <ele>181.1</ele>
        <time>2025-04-08T08:09:11.000Z</time>
      </trkpt>
      <trkpt lat="47.77259947" lon="2.16235656">
        <ele>183.03</ele>
        <time>2025-04-08T08:09:19.000Z</time>
      </trkpt>
      <trkpt lat="47.7725683" lon="2.16248233">
        <ele>182.97</ele>
        <time>2025-04-08T08:09:27.000Z</time>
      </trkpt>
      <trkpt lat="47.77252761" lon="2.16260288">
        <ele>184.62</ele>
        <time>2025-04-08T08:09:34.000Z</time>
      </trkpt>
      <trkpt lat="47.77248656" lon="2.16272906">
        <ele>185.92</ele>
        <time>2025-04-08T08:09:41.000Z</time>
      </trkpt>
      <trkpt lat="47.77245217" lon="2.1628706">
        <ele>186.62</ele>
        <time>2025-04-08T08:09:49.000Z</time>
      </trkpt>
      <trkpt lat="47.77241916" lon="2.16299588">
        <ele>185.85</ele>
        <time>2025-04-08T08:09:57.000Z</time>
      </trkpt>
      <trkpt lat="47.77237619" lon="2.16311722">
        <ele>186.59</ele>
        <time>2025-04-08T08:10:05.000Z</time>
      </trkpt>
      <trkpt lat="47.77233011" lon="2.16324983">
        <ele>185.59</ele>
        <time>2025-04-08T08:10:14.000Z</time>
      </trkpt>
      <trkpt lat="47.77230012" lon="2.1633767">
        <ele>185.08</ele>
        <time>2025-04-08T08:10:21.000Z</time>
      </trkpt>
      <trkpt lat="47.77228336" lon="2.16351552">
        <ele>184.75</ele>
        <time>2025-04-08T08:10:30.000Z</time>
      </trkpt>
      <trkpt lat="47.77226669" lon="2.16364759">
        <ele>186.21</ele>
        <time>2025-04-08T08:10:38.000Z</time>
      </trkpt>
      <trkpt lat="47.77224352" lon="2.16378773">
        <ele>186.37</ele>
        <time>2025-04-08T08:10:46.000Z</time>
      </trkpt>
      <trkpt lat="47.77222075" lon="2.16391894">
        <ele>186.79</ele>
        <time>2025-04-08T08:10:53.000Z</time>
      </trkpt>
      <trkpt lat="47.77220728" lon="2.16405554">
        <ele>185.27</ele>
        <time>2025-04-08T08:11:01.000Z</time>
      </trkpt>
      <trkpt lat="47.77219404" lon="2.16420496">
        <ele>184.8</ele>
        <time>2025-04-08T08:11:09.000Z</time>
      </trkpt>
      <trkpt lat="47.77217406" lon="2.16435195">
        <ele>184.58</ele>
        <time>2025-04-08T08:11:17.000Z</time>
      </trkpt>
      <trkpt lat="47.77216531" lon="2.1644912">
        <ele>185.04</ele>
        <time>2025-04-08T08:11:24.000Z</time>
      </trkpt>
      <trkpt lat="47.77214784" lon="2.16463058">
        <ele>187.08</ele>
        <time>2025-04-08T08:11:32.000Z</time>
      </trkpt>
      <trkpt lat="47.77212892" lon="2.16476328">
        <ele>186.93</ele>
        <time>2025-04-08T08:11:39.000Z</time>
      </trkpt>
      <trkpt lat="47.77212547" lon="2.1649013">
        <ele>185.26</ele>
        <time>2025-04-08T08:11:47.000Z</time>
      </trkpt>
      <trkpt lat="47.77211563" lon="2.16505109">
        <ele>184.4</ele>
        <time>2025-04-08T08:11:57.000Z</time>
      </trkpt>
      <trkpt lat="47.77209715" lon="2.16518195">
        <ele>183.27</ele>
        <time>2025-04-08T08:12:06.000Z</time>
      </trkpt>
      <trkpt lat="47.77207951" lon="2.16532297">
        <ele>184.27</ele>
        <time>2025-04-08T08:12:29.000Z</time>
      </trkpt>
      <trkpt lat="47.77205831" lon="2.16546317">
        <ele>182.84</ele>
        <time>2025-04-08T08:12:37.000Z</time>
      </trkpt>
      <trkpt lat="47.77205097" lon="2.1656042">
        <ele>183.98</ele>
        <time>2025-04-08T08:12:45.000Z</time>
      </trkpt>
      <trkpt lat="47.77203661" lon="2.16574739">
        <ele>184.54</ele>
        <time>2025-04-08T08:12:53.000Z</time>
      </trkpt>
      <trkpt lat="47.77203415" lon="2.16589182">
        <ele>184.75</ele>
        <time>2025-04-08T08:13:01.000Z</time>
      </trkpt>
      <trkpt lat="47.77201586" lon="2.16603226">
        <ele>181.32</ele>
        <time>2025-04-08T08:13:12.000Z</time>
      </trkpt>
      <trkpt lat="47.77200585" lon="2.16617964">
        <ele>178.42</ele>
        <time>2025-04-08T08:13:22.000Z</time>
      </trkpt>
      <trkpt lat="47.77198395" lon="2.16632326">
        <ele>177.61</ele>
        <time>2025-04-08T08:13:29.000Z</time>
      </trkpt>
      <trkpt lat="47.77196582" lon="2.16645701">
        <ele>178.97</ele>
        <time>2025-04-08T08:13:56.000Z</time>
      </trkpt>
      <trkpt lat="47.77196707" lon="2.16659367">
        <ele>179.08</ele>
        <time>2025-04-08T08:14:03.000Z</time>
      </trkpt>
      <trkpt lat="47.77198768" lon="2.16672713">
        <ele>179.24</ele>
        <time>2025-04-08T08:14:10.000Z</time>
      </trkpt>
      <trkpt lat="47.77203032" lon="2.16686488">
        <ele>178.7</ele>
        <time>2025-04-08T08:14:17.000Z</time>
      </trkpt>
      <trkpt lat="47.77209101" lon="2.1669822">
        <ele>179.19</ele>
        <time>2025-04-08T08:14:25.000Z</time>
      </trkpt>
      <trkpt lat="47.77214546" lon="2.16709516">
        <ele>180.27</ele>
        <time>2025-04-08T08:14:33.000Z</time>
      </trkpt>
      <trkpt lat="47.77218829" lon="2.16721954">
        <ele>179.16</ele>
        <time>2025-04-08T08:14:45.000Z</time>
      </trkpt>
      <trkpt lat="47.77222226" lon="2.16735156">
        <ele>182.15</ele>
        <time>2025-04-08T08:14:53.000Z</time>
      </trkpt>
      <trkpt lat="47.77224037" lon="2.16748698">
        <ele>182.6</ele>
        <time>2025-04-08T08:15:01.000Z</time>
      </trkpt>
      <trkpt lat="47.77222507" lon="2.16762391">
        <ele>179.55</ele>
        <time>2025-04-08T08:15:11.000Z</time>
      </trkpt>
      <trkpt lat="47.77219978" lon="2.16776848">
        <ele>179.18</ele>
        <time>2025-04-08T08:15:19.000Z</time>
      </trkpt>
      <trkpt lat="47.77218666" lon="2.16790378">
        <ele>178.63</ele>
        <time>2025-04-08T08:15:26.000Z</time>
      </trkpt>
      <trkpt lat="47.77217843" lon="2.1680487">
        <ele>179.68</ele>
        <time>2025-04-08T08:15:34.000Z</time>
      </trkpt>
      <trkpt lat="47.7721802" lon="2.16820352">
        <ele>180.88</ele>
        <time>2025-04-08T08:15:42.000Z</time>
      </trkpt>
      <trkpt lat="47.77218809" lon="2.16834685">
        <ele>182.63</ele>
        <time>2025-04-08T08:15:49.000Z</time>
      </trkpt>
      <trkpt lat="47.77218854" lon="2.16848091">
        <ele>181.8</ele>
        <time>2025-04-08T08:15:55.000Z</time>
      </trkpt>
      <trkpt lat="47.77219189" lon="2.16862822">
        <ele>181.87</ele>
        <time>2025-04-08T08:16:04.000Z</time>
      </trkpt>
      <trkpt lat="47.77220576" lon="2.16876981">
        <ele>182.15</ele>
        <time>2025-04-08T08:16:12.000Z</time>
      </trkpt>
      <trkpt lat="47.77222974" lon="2.16891225">
        <ele>181.51</ele>
        <time>2025-04-08T08:16:20.000Z</time>
      </trkpt>
      <trkpt lat="47.77222091" lon="2.16905003">
        <ele>178.95</ele>
        <time>2025-04-08T08:16:45.000Z</time>
      </trkpt>
      <trkpt lat="47.77223361" lon="2.16918529">
        <ele>178.79</ele>
        <time>2025-04-08T08:16:53.000Z</time>
      </trkpt>
      <trkpt lat="47.77223716" lon="2.16932107">
        <ele>178.71</ele>
        <time>2025-04-08T08:17:01.000Z</time>
      </trkpt>
      <trkpt lat="47.77224693" lon="2.16945415">
        <ele>179.7</ele>
        <time>2025-04-08T08:17:09.000Z</time>
      </trkpt>
      <trkpt lat="47.77225878" lon="2.16960093">
        <ele>179.84</ele>
        <time>2025-04-08T08:17:18.000Z</time>
      </trkpt>
      <trkpt lat="47.77226419" lon="2.16974548">
        <ele>180.41</ele>
        <time>2025-04-08T08:17:27.000Z</time>
      </trkpt>
      <trkpt lat="47.77227223" lon="2.16988552">
        <ele>179.7</ele>
        <time>2025-04-08T08:17:37.000Z</time>
      </trkpt>
      <trkpt lat="47.77230512" lon="2.16993114">
        <ele>184.87</ele>
        <time>2025-04-08T08:17:40.852Z</time>
      </trkpt>
      <trkpt lat="47.77230512" lon="2.16993114">
        <ele>138.26356851891708</ele>
        <time>2025-04-08T08:17:40.852Z</time>
      </trkpt>
      <trkpt lat="47.77241571364685" lon="2.1705796543380966">
        <ele>139.54776592510862</ele>
        <time>2025-04-08T08:18:19.378Z</time>
      </trkpt>
      <trkpt lat="47.7725263072937" lon="2.171228168676193">
        <ele>139.95876323001087</ele>
        <time>2025-04-08T08:18:57.904Z</time>
      </trkpt>
      <trkpt lat="47.77263690094056" lon="2.1718766830142897">
        <ele>139.21295839729794</ele>
        <time>2025-04-08T08:19:36.429Z</time>
      </trkpt>
      <trkpt lat="47.77274749458741" lon="2.1725251973523863">
        <ele>140.07477479786672</ele>
        <time>2025-04-08T08:20:14.954Z</time>
      </trkpt>
      <trkpt lat="47.772858088234265" lon="2.173173711690483">
        <ele>141.90000000000146</ele>
        <time>2025-04-08T08:20:53.479Z</time>
      </trkpt>
      <trkpt lat="47.77296868188112" lon="2.1738222260285793">
        <ele>141.39781413138965</ele>
        <time>2025-04-08T08:21:32.004Z</time>
      </trkpt>
      <trkpt lat="47.77307927552798" lon="2.174470740366676">
        <ele>140.5847239855939</ele>
        <time>2025-04-08T08:22:10.529Z</time>
      </trkpt>
      <trkpt lat="47.77318986917483" lon="2.1751192547047724">
        <ele>142.1928254043691</ele>
        <time>2025-04-08T08:22:49.054Z</time>
      </trkpt>
      <trkpt lat="47.77330046282168" lon="2.175767769042869">
        <ele>143.8452384198414</ele>
        <time>2025-04-08T08:23:27.579Z</time>
      </trkpt>
      <trkpt lat="47.77341105646853" lon="2.1764162833809655">
        <ele>143.55724308874957</ele>
        <time>2025-04-08T08:24:06.104Z</time>
      </trkpt>
      <trkpt lat="47.77344575363287" lon="2.176619745417014">
        <ele>143.40508935579078</ele>
        <time>2025-04-08T08:24:18.199Z</time>
      </trkpt>
      <trkpt lat="47.77344575363287" lon="2.176619745417014">
        <ele>143.40508935579078</ele>
        <time>2025-04-08T08:24:18.199Z</time>
      </trkpt>
      <trkpt lat="47.77387110785899" lon="2.176402735679765">
        <ele>145.64968163246073</ele>
        <time>2025-04-08T08:24:56.753Z</time>
      </trkpt>
      <trkpt lat="47.774296462085104" lon="2.176185725942516">
        <ele>144.50714438102636</ele>
        <time>2025-04-08T08:25:35.307Z</time>
      </trkpt>
      <trkpt lat="47.774721816311214" lon="2.175968716205267">
        <ele>141.48039437728093</ele>
        <time>2025-04-08T08:26:13.861Z</time>
      </trkpt>
      <trkpt lat="47.77514717053733" lon="2.1757517064680183">
        <ele>141.03446817933596</ele>
        <time>2025-04-08T08:26:52.415Z</time>
      </trkpt>
      <trkpt lat="47.77557252476345" lon="2.1755346967307694">
        <ele>141.66580558558985</ele>
        <time>2025-04-08T08:27:30.969Z</time>
      </trkpt>
      <trkpt lat="47.775997878989564" lon="2.1753176869935205">
        <ele>143.18991918163442</ele>
        <time>2025-04-08T08:28:09.523Z</time>
      </trkpt>
      <trkpt lat="47.77642323321568" lon="2.1751006772562715">
        <ele>143.55192834371766</ele>
        <time>2025-04-08T08:28:48.077Z</time>
      </trkpt>
      <trkpt lat="47.7768485874418" lon="2.174883667519023">
        <ele>142.0120342642307</ele>
        <time>2025-04-08T08:29:26.631Z</time>
      </trkpt>
      <trkpt lat="47.77727394166791" lon="2.174666657781774">
        <ele>142.84333331026264</ele>
        <time>2025-04-08T08:30:05.185Z</time>
      </trkpt>
      <trkpt lat="47.777699295894024" lon="2.1744496480445252">
        <ele>143.36149509516645</ele>
        <time>2025-04-08T08:30:43.738Z</time>
      </trkpt>
      <trkpt lat="47.77812465012014" lon="2.1742326383072763">
        <ele>143.58701364952205</ele>
        <time>2025-04-08T08:31:22.291Z</time>
      </trkpt>
      <trkpt lat="47.77855000434626" lon="2.1740156285700274">
        <ele>142.36731528793547</ele>
        <time>2025-04-08T08:32:00.844Z</time>
      </trkpt>
      <trkpt lat="47.778975358572374" lon="2.1737986188327785">
        <ele>141.59312321301667</ele>
        <time>2025-04-08T08:32:39.397Z</time>
      </trkpt>
      <trkpt lat="47.77940071279849" lon="2.1735816090955296">
        <ele>142.15688589462263</ele>
        <time>2025-04-08T08:33:17.950Z</time>
      </trkpt>
      <trkpt lat="47.7796243114461" lon="2.173467532213749">
        <ele>141.61963686188776</ele>
        <time>2025-04-08T08:33:38.216Z</time>
      </trkpt>
      <trkpt lat="47.780031172388306" lon="2.1731825964663103">
        <ele>142.57764229133167</ele>
        <time>2025-04-08T08:34:16.770Z</time>
      </trkpt>
      <trkpt lat="47.78043803333052" lon="2.172897660718871">
        <ele>143.8960611029559</ele>
        <time>2025-04-08T08:34:55.324Z</time>
      </trkpt>
      <trkpt lat="47.780844894272725" lon="2.172612724971432">
        <ele>143.86290955259597</ele>
        <time>2025-04-08T08:35:33.878Z</time>
      </trkpt>
      <trkpt lat="47.78125175521493" lon="2.1723277892239934">
        <ele>141.91291831084595</ele>
        <time>2025-04-08T08:36:12.432Z</time>
      </trkpt>
      <trkpt lat="47.78165861615714" lon="2.172042853476554">
        <ele>140.33699160887556</ele>
        <time>2025-04-08T08:36:50.986Z</time>
      </trkpt>
      <trkpt lat="47.78206547709935" lon="2.1717579177291153">
        <ele>139.0064276393221</ele>
        <time>2025-04-08T08:37:29.540Z</time>
      </trkpt>
      <trkpt lat="47.78247233804156" lon="2.171472981981676">
        <ele>139.82339286627393</ele>
        <time>2025-04-08T08:38:08.094Z</time>
      </trkpt>
      <trkpt lat="47.782879198983764" lon="2.1711880462342372">
        <ele>142.54019084381918</ele>
        <time>2025-04-08T08:38:46.647Z</time>
      </trkpt>
      <trkpt lat="47.78328605992598" lon="2.1709031104867984">
        <ele>142.17519646318908</ele>
        <time>2025-04-08T08:39:25.200Z</time>
      </trkpt>
      <trkpt lat="47.783692920868184" lon="2.170618174739359">
        <ele>141.84652978279752</ele>
        <time>2025-04-08T08:40:03.753Z</time>
      </trkpt>
      <trkpt lat="47.78409978181039" lon="2.1703332389919203">
        <ele>142.45700797960185</ele>
        <time>2025-04-08T08:40:42.306Z</time>
      </trkpt>
      <trkpt lat="47.784125369826626" lon="2.1703153190104842">
        <ele>142.49876456279307</ele>
        <time>2025-04-08T08:40:44.730Z</time>
      </trkpt>
      <trkpt lat="47.784125369826626" lon="2.1703153190104842">
        <ele>142.49876456279307</ele>
        <time>2025-04-08T08:40:44.730Z</time>
      </trkpt>
      <trkpt lat="47.784570254692326" lon="2.170218044908273">
        <ele>144.00508873351038</ele>
        <time>2025-04-08T08:41:21.670Z</time>
      </trkpt>
      <trkpt lat="47.785015139558034" lon="2.1701207708060615">
        <ele>145.58696700541145</ele>
        <time>2025-04-08T08:42:00.218Z</time>
      </trkpt>
      <trkpt lat="47.785460024423735" lon="2.1700234967038496">
        <ele>145.61503929123364</ele>
        <time>2025-04-08T08:42:38.766Z</time>
      </trkpt>
      <trkpt lat="47.78590490928944" lon="2.1699262226016383">
        <ele>144.4333448037518</ele>
        <time>2025-04-08T08:43:17.314Z</time>
      </trkpt>
      <trkpt lat="47.78634979415514" lon="2.169828948499427">
        <ele>139.1052952657961</ele>
        <time>2025-04-08T08:43:55.862Z</time>
      </trkpt>
      <trkpt lat="47.78679467902085" lon="2.1697316743972155">
        <ele>136.1542537329208</ele>
        <time>2025-04-08T08:44:34.410Z</time>
      </trkpt>
      <trkpt lat="47.78723956388655" lon="2.1696344002950037">
        <ele>137.4726736217746</ele>
        <time>2025-04-08T08:45:12.958Z</time>
      </trkpt>
      <trkpt lat="47.78768444875226" lon="2.1695371261927923">
        <ele>136.40805799798142</ele>
        <time>2025-04-08T08:45:51.506Z</time>
      </trkpt>
      <trkpt lat="47.78804734" lon="2.16945778">
        <ele>133.37646929463423</ele>
        <time>2025-04-08T08:46:22.949Z</time>
      </trkpt>
      <trkpt lat="47.78804734" lon="2.16945778">
        <ele>177.43</ele>
        <time>2025-04-08T08:46:22.949Z</time>
      </trkpt>
      <trkpt lat="47.78805911" lon="2.1696062">
        <ele>175.3</ele>
        <time>2025-04-08T10:05:59.000Z</time>
      </trkpt>
      <trkpt lat="47.78806122" lon="2.16975163">
        <ele>177.65</ele>
        <time>2025-04-08T10:06:08.000Z</time>
      </trkpt>
      <trkpt lat="47.78807688" lon="2.16990288">
        <ele>173.49</ele>
        <time>2025-04-08T10:06:16.000Z</time>
      </trkpt>
      <trkpt lat="47.78809961" lon="2.17003726">
        <ele>172.22</ele>
        <time>2025-04-08T10:06:23.000Z</time>
      </trkpt>
      <trkpt lat="47.7881045" lon="2.17017389">
        <ele>172.05</ele>
        <time>2025-04-08T10:06:30.000Z</time>
      </trkpt>
      <trkpt lat="47.78811258" lon="2.17031611">
        <ele>172.73</ele>
        <time>2025-04-08T10:06:57.000Z</time>
      </trkpt>
      <trkpt lat="47.78810648" lon="2.17046165">
        <ele>172.78</ele>
        <time>2025-04-08T10:07:07.000Z</time>
      </trkpt>
      <trkpt lat="47.78806339" lon="2.17058609">
        <ele>174.24</ele>
        <time>2025-04-08T10:07:40.000Z</time>
      </trkpt>
      <trkpt lat="47.78802535" lon="2.17072487">
        <ele>175.4</ele>
        <time>2025-04-08T10:07:49.000Z</time>
      </trkpt>
      <trkpt lat="47.78798028" lon="2.17084926">
        <ele>176.2</ele>
        <time>2025-04-08T10:07:58.000Z</time>
      </trkpt>
      <trkpt lat="47.78793383" lon="2.17096871">
        <ele>178.41</ele>
        <time>2025-04-08T10:08:06.000Z</time>
      </trkpt>
      <trkpt lat="47.7878942" lon="2.17109721">
        <ele>178.21</ele>
        <time>2025-04-08T10:08:14.000Z</time>
      </trkpt>
      <trkpt lat="47.78785665" lon="2.17121859">
        <ele>179.31</ele>
        <time>2025-04-08T10:08:21.000Z</time>
      </trkpt>
      <trkpt lat="47.78781256" lon="2.1713376">
        <ele>179.35</ele>
        <time>2025-04-08T10:08:29.000Z</time>
      </trkpt>
      <trkpt lat="47.78778461" lon="2.17147303">
        <ele>180.86</ele>
        <time>2025-04-08T10:08:37.000Z</time>
      </trkpt>
      <trkpt lat="47.78773133" lon="2.17159652">
        <ele>180.24</ele>
        <time>2025-04-08T10:08:46.000Z</time>
      </trkpt>
      <trkpt lat="47.78769037" lon="2.17173137">
        <ele>179.6</ele>
        <time>2025-04-08T10:08:56.000Z</time>
      </trkpt>
      <trkpt lat="47.78765851" lon="2.17186317">
        <ele>179.77</ele>
        <time>2025-04-08T10:09:04.000Z</time>
      </trkpt>
      <trkpt lat="47.78761537" lon="2.17198613">
        <ele>179.35</ele>
        <time>2025-04-08T10:09:12.000Z</time>
      </trkpt>
      <trkpt lat="47.78757182" lon="2.17211809">
        <ele>179.19</ele>
        <time>2025-04-08T10:09:21.000Z</time>
      </trkpt>
      <trkpt lat="47.78753166" lon="2.17224138">
        <ele>177.95</ele>
        <time>2025-04-08T10:09:29.000Z</time>
      </trkpt>
      <trkpt lat="47.78748846" lon="2.17237332">
        <ele>178.33</ele>
        <time>2025-04-08T10:09:37.000Z</time>
      </trkpt>
      <trkpt lat="47.7874499" lon="2.17250558">
        <ele>178.55</ele>
        <time>2025-04-08T10:09:45.000Z</time>
      </trkpt>
      <trkpt lat="47.7874069" lon="2.17263996">
        <ele>179.33</ele>
        <time>2025-04-08T10:09:54.000Z</time>
      </trkpt>
      <trkpt lat="47.78736753" lon="2.17276308">
        <ele>178.97</ele>
        <time>2025-04-08T10:10:02.000Z</time>
      </trkpt>
      <trkpt lat="47.78733769" lon="2.1728919">
        <ele>178.51</ele>
        <time>2025-04-08T10:10:10.000Z</time>
      </trkpt>
      <trkpt lat="47.78730637" lon="2.17302602">
        <ele>177.79</ele>
        <time>2025-04-08T10:10:18.000Z</time>
      </trkpt>
      <trkpt lat="47.78727094" lon="2.17316684">
        <ele>177.65</ele>
        <time>2025-04-08T10:10:27.000Z</time>
      </trkpt>
      <trkpt lat="47.78721882" lon="2.17328309">
        <ele>176.84</ele>
        <time>2025-04-08T10:10:35.000Z</time>
      </trkpt>
      <trkpt lat="47.78716639" lon="2.17339238">
        <ele>176.72</ele>
        <time>2025-04-08T10:10:43.000Z</time>
      </trkpt>
      <trkpt lat="47.78710659" lon="2.1734929">
        <ele>176.94</ele>
        <time>2025-04-08T10:10:50.000Z</time>
      </trkpt>
      <trkpt lat="47.78704553" lon="2.17359113">
        <ele>177.6</ele>
        <time>2025-04-08T10:10:57.000Z</time>
      </trkpt>
      <trkpt lat="47.78697791" lon="2.17369993">
        <ele>177.58</ele>
        <time>2025-04-08T10:11:05.000Z</time>
      </trkpt>
      <trkpt lat="47.78689529" lon="2.17377682">
        <ele>178.55</ele>
        <time>2025-04-08T10:11:13.000Z</time>
      </trkpt>
      <trkpt lat="47.78681756" lon="2.17385525">
        <ele>178.1</ele>
        <time>2025-04-08T10:11:21.000Z</time>
      </trkpt>
      <trkpt lat="47.78674523" lon="2.17393782">
        <ele>178.98</ele>
        <time>2025-04-08T10:11:29.000Z</time>
      </trkpt>
      <trkpt lat="47.78666535" lon="2.17401005">
        <ele>181.43</ele>
        <time>2025-04-08T10:11:37.000Z</time>
      </trkpt>
      <trkpt lat="47.78658965" lon="2.17408273">
        <ele>183.87</ele>
        <time>2025-04-08T10:11:44.000Z</time>
      </trkpt>
      <trkpt lat="47.78651234" lon="2.17416948">
        <ele>185.7</ele>
        <time>2025-04-08T10:11:52.000Z</time>
      </trkpt>
      <trkpt lat="47.78643004" lon="2.17425476">
        <ele>186.82</ele>
        <time>2025-04-08T10:12:01.000Z</time>
      </trkpt>
      <trkpt lat="47.78636211" lon="2.17435055">
        <ele>185.2</ele>
        <time>2025-04-08T10:12:10.000Z</time>
      </trkpt>
      <trkpt lat="47.78632229" lon="2.1744787">
        <ele>184.63</ele>
        <time>2025-04-08T10:12:19.000Z</time>
      </trkpt>
      <trkpt lat="47.78629177" lon="2.17461938">
        <ele>183.04</ele>
        <time>2025-04-08T10:12:28.000Z</time>
      </trkpt>
      <trkpt lat="47.7862732" lon="2.17476118">
        <ele>181.83</ele>
        <time>2025-04-08T10:12:36.000Z</time>
      </trkpt>
      <trkpt lat="47.78625678" lon="2.17489639">
        <ele>181.72</ele>
        <time>2025-04-08T10:12:44.000Z</time>
      </trkpt>
      <trkpt lat="47.78622539" lon="2.17503078">
        <ele>181.8</ele>
        <time>2025-04-08T10:12:52.000Z</time>
      </trkpt>
      <trkpt lat="47.78620457" lon="2.17517245">
        <ele>182.02</ele>
        <time>2025-04-08T10:13:00.000Z</time>
      </trkpt>
      <trkpt lat="47.78617022" lon="2.17530788">
        <ele>181.61</ele>
        <time>2025-04-08T10:13:09.000Z</time>
      </trkpt>
      <trkpt lat="47.7861125" lon="2.17541919">
        <ele>181.77</ele>
        <time>2025-04-08T10:13:17.000Z</time>
      </trkpt>
      <trkpt lat="47.786059" lon="2.17552913">
        <ele>181.3</ele>
        <time>2025-04-08T10:13:25.000Z</time>
      </trkpt>
      <trkpt lat="47.78604731" lon="2.17566514">
        <ele>182.7</ele>
        <time>2025-04-08T10:14:29.000Z</time>
      </trkpt>
      <trkpt lat="47.7860478" lon="2.17585178">
        <ele>182.76</ele>
        <time>2025-04-08T10:15:16.000Z</time>
      </trkpt>
      <trkpt lat="47.78600885" lon="2.17597446">
        <ele>181.76</ele>
        <time>2025-04-08T10:15:28.000Z</time>
      </trkpt>
      <trkpt lat="47.78601324" lon="2.17610915">
        <ele>182.89</ele>
        <time>2025-04-08T10:15:39.000Z</time>
      </trkpt>
      <trkpt lat="47.78599977" lon="2.17625066">
        <ele>180.85</ele>
        <time>2025-04-08T10:15:49.000Z</time>
      </trkpt>
      <trkpt lat="47.78598727" lon="2.17639754">
        <ele>181.89</ele>
        <time>2025-04-08T10:15:58.000Z</time>
      </trkpt>
      <trkpt lat="47.78596668" lon="2.17654077">
        <ele>181.18</ele>
        <time>2025-04-08T10:16:07.000Z</time>
      </trkpt>
      <trkpt lat="47.78594976" lon="2.17667838">
        <ele>181.96</ele>
        <time>2025-04-08T10:16:15.000Z</time>
      </trkpt>
      <trkpt lat="47.7859329" lon="2.17682562">
        <ele>181.65</ele>
        <time>2025-04-08T10:16:24.000Z</time>
      </trkpt>
      <trkpt lat="47.78592562" lon="2.17696184">
        <ele>182.28</ele>
        <time>2025-04-08T10:16:32.000Z</time>
      </trkpt>
      <trkpt lat="47.78591794" lon="2.1771021">
        <ele>180.73</ele>
        <time>2025-04-08T10:16:41.000Z</time>
      </trkpt>
      <trkpt lat="47.7859051" lon="2.17723882">
        <ele>180.88</ele>
        <time>2025-04-08T10:16:49.000Z</time>
      </trkpt>
      <trkpt lat="47.78589038" lon="2.1773749">
        <ele>181.93</ele>
        <time>2025-04-08T10:16:58.000Z</time>
      </trkpt>
      <trkpt lat="47.78586607" lon="2.17750985">
        <ele>180.48</ele>
        <time>2025-04-08T10:17:06.000Z</time>
      </trkpt>
      <trkpt lat="47.7858543" lon="2.17764288">
        <ele>180.13</ele>
        <time>2025-04-08T10:17:14.000Z</time>
      </trkpt>
      <trkpt lat="47.78584999" lon="2.1777791">
        <ele>181.08</ele>
        <time>2025-04-08T10:17:22.000Z</time>
      </trkpt>
      <trkpt lat="47.78583225" lon="2.17791792">
        <ele>180.85</ele>
        <time>2025-04-08T10:17:30.000Z</time>
      </trkpt>
      <trkpt lat="47.78580955" lon="2.17805653">
        <ele>180.26</ele>
        <time>2025-04-08T10:17:41.000Z</time>
      </trkpt>
      <trkpt lat="47.78581205" lon="2.17819043">
        <ele>180.17</ele>
        <time>2025-04-08T10:17:49.000Z</time>
      </trkpt>
      <trkpt lat="47.78579073" lon="2.1783254">
        <ele>179.8</ele>
        <time>2025-04-08T10:17:57.000Z</time>
      </trkpt>
      <trkpt lat="47.78577666" lon="2.17846643">
        <ele>179.43</ele>
        <time>2025-04-08T10:18:05.000Z</time>
      </trkpt>
      <trkpt lat="47.78576859" lon="2.17860819">
        <ele>178.36</ele>
        <time>2025-04-08T10:18:13.000Z</time>
      </trkpt>
      <trkpt lat="47.78575948" lon="2.17875762">
        <ele>178.96</ele>
        <time>2025-04-08T10:18:22.000Z</time>
      </trkpt>
      <trkpt lat="47.78575029" lon="2.17890409">
        <ele>178.94</ele>
        <time>2025-04-08T10:18:31.000Z</time>
      </trkpt>
      <trkpt lat="47.78573269" lon="2.1790488">
        <ele>179.16</ele>
        <time>2025-04-08T10:18:39.000Z</time>
      </trkpt>
      <trkpt lat="47.78571033" lon="2.17917892">
        <ele>178.63</ele>
        <time>2025-04-08T10:18:47.000Z</time>
      </trkpt>
      <trkpt lat="47.78569324" lon="2.17931555">
        <ele>179.02</ele>
        <time>2025-04-08T10:18:56.000Z</time>
      </trkpt>
      <trkpt lat="47.7856796" lon="2.17944925">
        <ele>177.54</ele>
        <time>2025-04-08T10:19:04.000Z</time>
      </trkpt>
      <trkpt lat="47.78567027" lon="2.17959161">
        <ele>178.13</ele>
        <time>2025-04-08T10:19:13.000Z</time>
      </trkpt>
      <trkpt lat="47.78566602" lon="2.17973985">
        <ele>180.66</ele>
        <time>2025-04-08T10:19:23.000Z</time>
      </trkpt>
      <trkpt lat="47.78564531" lon="2.17988369">
        <ele>180.04</ele>
        <time>2025-04-08T10:19:32.000Z</time>
      </trkpt>
      <trkpt lat="47.78561867" lon="2.18002262">
        <ele>180.75</ele>
        <time>2025-04-08T10:19:42.000Z</time>
      </trkpt>
      <trkpt lat="47.78558803" lon="2.18015503">
        <ele>180.1</ele>
        <time>2025-04-08T10:19:52.000Z</time>
      </trkpt>
      <trkpt lat="47.78554757" lon="2.18028076">
        <ele>178.58</ele>
        <time>2025-04-08T10:20:00.000Z</time>
      </trkpt>
      <trkpt lat="47.78550329" lon="2.18040778">
        <ele>177.97</ele>
        <time>2025-04-08T10:20:08.000Z</time>
      </trkpt>
      <trkpt lat="47.78546569" lon="2.18053347">
        <ele>177.51</ele>
        <time>2025-04-08T10:20:16.000Z</time>
      </trkpt>
      <trkpt lat="47.78542992" lon="2.18066126">
        <ele>178.37</ele>
        <time>2025-04-08T10:20:24.000Z</time>
      </trkpt>
      <trkpt lat="47.78537686" lon="2.18078218">
        <ele>179.07</ele>
        <time>2025-04-08T10:20:32.000Z</time>
      </trkpt>
      <trkpt lat="47.78534029" lon="2.18091048">
        <ele>176.23</ele>
        <time>2025-04-08T10:20:41.000Z</time>
      </trkpt>
      <trkpt lat="47.78529901" lon="2.18103726">
        <ele>176.31</ele>
        <time>2025-04-08T10:20:48.000Z</time>
      </trkpt>
      <trkpt lat="47.78525392" lon="2.18115788">
        <ele>177.49</ele>
        <time>2025-04-08T10:20:55.000Z</time>
      </trkpt>
      <trkpt lat="47.78521353" lon="2.18128027">
        <ele>178.45</ele>
        <time>2025-04-08T10:21:03.000Z</time>
      </trkpt>
      <trkpt lat="47.78518351" lon="2.18141382">
        <ele>176.34</ele>
        <time>2025-04-08T10:21:12.000Z</time>
      </trkpt>
      <trkpt lat="47.7851405" lon="2.18153927">
        <ele>175.02</ele>
        <time>2025-04-08T10:21:20.000Z</time>
      </trkpt>
      <trkpt lat="47.78510772" lon="2.18167825">
        <ele>176.01</ele>
        <time>2025-04-08T10:21:28.000Z</time>
      </trkpt>
      <trkpt lat="47.78507054" lon="2.18181417">
        <ele>176.62</ele>
        <time>2025-04-08T10:21:36.000Z</time>
      </trkpt>
      <trkpt lat="47.78503705" lon="2.18194202">
        <ele>177.82</ele>
        <time>2025-04-08T10:21:43.000Z</time>
      </trkpt>
      <trkpt lat="47.7849886" lon="2.18206715">
        <ele>177.69</ele>
        <time>2025-04-08T10:21:51.000Z</time>
      </trkpt>
      <trkpt lat="47.78492765" lon="2.1821833">
        <ele>176.82</ele>
        <time>2025-04-08T10:22:00.000Z</time>
      </trkpt>
      <trkpt lat="47.78486108" lon="2.18227514">
        <ele>176.61</ele>
        <time>2025-04-08T10:22:08.000Z</time>
      </trkpt>
      <trkpt lat="47.78480229" lon="2.18237908">
        <ele>178.55</ele>
        <time>2025-04-08T10:22:17.000Z</time>
      </trkpt>
      <trkpt lat="47.78474138" lon="2.18248314">
        <ele>181.02</ele>
        <time>2025-04-08T10:22:27.000Z</time>
      </trkpt>
      <trkpt lat="47.7846685" lon="2.18257958">
        <ele>180.91</ele>
        <time>2025-04-08T10:22:35.000Z</time>
      </trkpt>
      <trkpt lat="47.78458927" lon="2.18265978">
        <ele>185.88</ele>
        <time>2025-04-08T10:22:43.000Z</time>
      </trkpt>
      <trkpt lat="47.7845097" lon="2.18275066">
        <ele>185.18</ele>
        <time>2025-04-08T10:22:52.000Z</time>
      </trkpt>
      <trkpt lat="47.78445135" lon="2.18286505">
        <ele>180.99</ele>
        <time>2025-04-08T10:23:02.000Z</time>
      </trkpt>
      <trkpt lat="47.78437582" lon="2.18296251">
        <ele>182.78</ele>
        <time>2025-04-08T10:23:12.000Z</time>
      </trkpt>
      <trkpt lat="47.78429384" lon="2.18305023">
        <ele>186.42</ele>
        <time>2025-04-08T10:23:21.000Z</time>
      </trkpt>
      <trkpt lat="47.78421841" lon="2.18314887">
        <ele>188.58</ele>
        <time>2025-04-08T10:23:29.000Z</time>
      </trkpt>
      <trkpt lat="47.78415539" lon="2.18326039">
        <ele>189.13</ele>
        <time>2025-04-08T10:23:36.000Z</time>
      </trkpt>
      <trkpt lat="47.78409561" lon="2.18336719">
        <ele>189.21</ele>
        <time>2025-04-08T10:23:44.000Z</time>
      </trkpt>
      <trkpt lat="47.78405194" lon="2.18349971">
        <ele>183.71</ele>
        <time>2025-04-08T10:23:53.000Z</time>
      </trkpt>
      <trkpt lat="47.78400823" lon="2.18361851">
        <ele>181.58</ele>
        <time>2025-04-08T10:24:01.000Z</time>
      </trkpt>
      <trkpt lat="47.78396148" lon="2.18373358">
        <ele>180.69</ele>
        <time>2025-04-08T10:24:08.000Z</time>
      </trkpt>
      <trkpt lat="47.78391496" lon="2.18385848">
        <ele>180.57</ele>
        <time>2025-04-08T10:24:16.000Z</time>
      </trkpt>
      <trkpt lat="47.78387891" lon="2.18399758">
        <ele>178.55</ele>
        <time>2025-04-08T10:24:24.000Z</time>
      </trkpt>
      <trkpt lat="47.78382267" lon="2.18411276">
        <ele>182.21</ele>
        <time>2025-04-08T10:24:33.000Z</time>
      </trkpt>
      <trkpt lat="47.78376506" lon="2.1842339">
        <ele>187.58</ele>
        <time>2025-04-08T10:24:41.000Z</time>
      </trkpt>
      <trkpt lat="47.78372564" lon="2.18436772">
        <ele>184.18</ele>
        <time>2025-04-08T10:24:50.000Z</time>
      </trkpt>
      <trkpt lat="47.78367049" lon="2.18448195">
        <ele>182.74</ele>
        <time>2025-04-08T10:24:58.000Z</time>
      </trkpt>
      <trkpt lat="47.78360996" lon="2.18460176">
        <ele>184.81</ele>
        <time>2025-04-08T10:25:06.000Z</time>
      </trkpt>
      <trkpt lat="47.78355612" lon="2.18472569">
        <ele>184.06</ele>
        <time>2025-04-08T10:25:14.000Z</time>
      </trkpt>
      <trkpt lat="47.78350266" lon="2.18485398">
        <ele>184.07</ele>
        <time>2025-04-08T10:25:22.000Z</time>
      </trkpt>
      <trkpt lat="47.78345696" lon="2.1849698">
        <ele>185.17</ele>
        <time>2025-04-08T10:25:29.000Z</time>
      </trkpt>
      <trkpt lat="47.7834074" lon="2.18509504">
        <ele>184.35</ele>
        <time>2025-04-08T10:25:37.000Z</time>
      </trkpt>
      <trkpt lat="47.78336473" lon="2.18521722">
        <ele>180.87</ele>
        <time>2025-04-08T10:25:45.000Z</time>
      </trkpt>
      <trkpt lat="47.78331478" lon="2.18534777">
        <ele>182.25</ele>
        <time>2025-04-08T10:25:53.000Z</time>
      </trkpt>
      <trkpt lat="47.78325776" lon="2.1854731">
        <ele>182.4</ele>
        <time>2025-04-08T10:26:02.000Z</time>
      </trkpt>
      <trkpt lat="47.78320084" lon="2.18559317">
        <ele>183.91</ele>
        <time>2025-04-08T10:26:11.000Z</time>
      </trkpt>
      <trkpt lat="47.78315963" lon="2.18572702">
        <ele>181.66</ele>
        <time>2025-04-08T10:26:21.000Z</time>
      </trkpt>
      <trkpt lat="47.78311191" lon="2.18586148">
        <ele>184.51</ele>
        <time>2025-04-08T10:26:29.000Z</time>
      </trkpt>
      <trkpt lat="47.7830622" lon="2.1859827">
        <ele>183.47</ele>
        <time>2025-04-08T10:26:36.000Z</time>
      </trkpt>
      <trkpt lat="47.78301957" lon="2.18611047">
        <ele>181.6</ele>
        <time>2025-04-08T10:26:44.000Z</time>
      </trkpt>
      <trkpt lat="47.7829652" lon="2.18623233">
        <ele>179.36</ele>
        <time>2025-04-08T10:26:53.000Z</time>
      </trkpt>
      <trkpt lat="47.7829101" lon="2.18634827">
        <ele>181.82</ele>
        <time>2025-04-08T10:27:00.000Z</time>
      </trkpt>
      <trkpt lat="47.78284524" lon="2.18645179">
        <ele>181.18</ele>
        <time>2025-04-08T10:27:07.000Z</time>
      </trkpt>
      <trkpt lat="47.78279833" lon="2.1865668">
        <ele>182.1</ele>
        <time>2025-04-08T10:27:15.000Z</time>
      </trkpt>
      <trkpt lat="47.78275142" lon="2.18669618">
        <ele>182.77</ele>
        <time>2025-04-08T10:27:23.000Z</time>
      </trkpt>
      <trkpt lat="47.78270939" lon="2.18681713">
        <ele>180.02</ele>
        <time>2025-04-08T10:27:31.000Z</time>
      </trkpt>
      <trkpt lat="47.78266093" lon="2.18694662">
        <ele>179.29</ele>
        <time>2025-04-08T10:27:40.000Z</time>
      </trkpt>
      <trkpt lat="47.78260934" lon="2.18707208">
        <ele>179.51</ele>
        <time>2025-04-08T10:27:49.000Z</time>
      </trkpt>
      <trkpt lat="47.78255559" lon="2.18719273">
        <ele>177.64</ele>
        <time>2025-04-08T10:27:57.000Z</time>
      </trkpt>
      <trkpt lat="47.78251753" lon="2.18731367">
        <ele>176.34</ele>
        <time>2025-04-08T10:28:44.000Z</time>
      </trkpt>
      <trkpt lat="47.78254996" lon="2.18744734">
        <ele>172.01</ele>
        <time>2025-04-08T10:28:53.000Z</time>
      </trkpt>
      <trkpt lat="47.7825982" lon="2.18756344">
        <ele>169.52</ele>
        <time>2025-04-08T10:29:01.000Z</time>
      </trkpt>
      <trkpt lat="47.78263171" lon="2.18768995">
        <ele>170.76</ele>
        <time>2025-04-08T10:29:07.000Z</time>
      </trkpt>
      <trkpt lat="47.7826783" lon="2.18780755">
        <ele>173.34</ele>
        <time>2025-04-08T10:29:14.000Z</time>
      </trkpt>
      <trkpt lat="47.78271777" lon="2.18794376">
        <ele>172.13</ele>
        <time>2025-04-08T10:29:22.000Z</time>
      </trkpt>
      <trkpt lat="47.78276678" lon="2.18806048">
        <ele>170.54</ele>
        <time>2025-04-08T10:29:30.000Z</time>
      </trkpt>
      <trkpt lat="47.78281963" lon="2.18817935">
        <ele>171.07</ele>
        <time>2025-04-08T10:29:38.000Z</time>
      </trkpt>
      <trkpt lat="47.78287165" lon="2.18829581">
        <ele>170.44</ele>
        <time>2025-04-08T10:29:46.000Z</time>
      </trkpt>
      <trkpt lat="47.78292374" lon="2.18842361">
        <ele>170.19</ele>
        <time>2025-04-08T10:29:55.000Z</time>
      </trkpt>
      <trkpt lat="47.78297162" lon="2.18855664">
        <ele>169.55</ele>
        <time>2025-04-08T10:30:03.000Z</time>
      </trkpt>
      <trkpt lat="47.78302618" lon="2.18868621">
        <ele>169.26</ele>
        <time>2025-04-08T10:30:11.000Z</time>
      </trkpt>
      <trkpt lat="47.78308687" lon="2.18879576">
        <ele>169.74</ele>
        <time>2025-04-08T10:30:18.000Z</time>
      </trkpt>
      <trkpt lat="47.78313451" lon="2.18892067">
        <ele>170.64</ele>
        <time>2025-04-08T10:30:25.000Z</time>
      </trkpt>
      <trkpt lat="47.78318772" lon="2.18903865">
        <ele>168.91</ele>
        <time>2025-04-08T10:30:33.000Z</time>
      </trkpt>
      <trkpt lat="47.78325965" lon="2.18914036">
        <ele>169.07</ele>
        <time>2025-04-08T10:30:41.000Z</time>
      </trkpt>
      <trkpt lat="47.78331764" lon="2.18924878">
        <ele>169.72</ele>
        <time>2025-04-08T10:30:49.000Z</time>
      </trkpt>
      <trkpt lat="47.78336909" lon="2.18936815">
        <ele>168.76</ele>
        <time>2025-04-08T10:31:01.000Z</time>
      </trkpt>
      <trkpt lat="47.78336797" lon="2.18951336">
        <ele>167.91</ele>
        <time>2025-04-08T10:31:09.000Z</time>
      </trkpt>
      <trkpt lat="47.78329583" lon="2.18960551">
        <ele>167.11</ele>
        <time>2025-04-08T10:31:28.000Z</time>
      </trkpt>
      <trkpt lat="47.78321828" lon="2.18968477">
        <ele>168.2</ele>
        <time>2025-04-08T10:31:36.000Z</time>
      </trkpt>
      <trkpt lat="47.78314972" lon="2.18977119">
        <ele>168.81</ele>
        <time>2025-04-08T10:31:44.000Z</time>
      </trkpt>
      <trkpt lat="47.78306752" lon="2.18986615">
        <ele>169.47</ele>
        <time>2025-04-08T10:31:52.000Z</time>
      </trkpt>
      <trkpt lat="47.78299079" lon="2.18995775">
        <ele>166.15</ele>
        <time>2025-04-08T10:32:01.000Z</time>
      </trkpt>
      <trkpt lat="47.78292241" lon="2.19004597">
        <ele>165.51</ele>
        <time>2025-04-08T10:32:09.000Z</time>
      </trkpt>
      <trkpt lat="47.78284815" lon="2.19012811">
        <ele>169.5</ele>
        <time>2025-04-08T10:32:16.000Z</time>
      </trkpt>
      <trkpt lat="47.78277513" lon="2.19021388">
        <ele>168.16</ele>
        <time>2025-04-08T10:32:24.000Z</time>
      </trkpt>
      <trkpt lat="47.78270436" lon="2.19030507">
        <ele>167.06</ele>
        <time>2025-04-08T10:32:33.000Z</time>
      </trkpt>
      <trkpt lat="47.7826101" lon="2.19028869">
        <ele>166.86</ele>
        <time>2025-04-08T10:32:44.000Z</time>
      </trkpt>
      <trkpt lat="47.78266683" lon="2.19039487">
        <ele>165.44</ele>
        <time>2025-04-08T10:34:31.000Z</time>
      </trkpt>
      <trkpt lat="47.78276857" lon="2.19053223">
        <ele>165.28</ele>
        <time>2025-04-08T10:34:43.000Z</time>
      </trkpt>
      <trkpt lat="47.78280979" lon="2.19066115">
        <ele>164.31</ele>
        <time>2025-04-08T10:34:51.000Z</time>
      </trkpt>
      <trkpt lat="47.78286074" lon="2.1907805">
        <ele>163.87</ele>
        <time>2025-04-08T10:34:59.000Z</time>
      </trkpt>
      <trkpt lat="47.78288544" lon="2.19090989">
        <ele>162.46</ele>
        <time>2025-04-08T10:35:07.000Z</time>
      </trkpt>
      <trkpt lat="47.78294234" lon="2.19101737">
        <ele>161.99</ele>
        <time>2025-04-08T10:35:15.000Z</time>
      </trkpt>
      <trkpt lat="47.78299666" lon="2.1911414">
        <ele>163.05</ele>
        <time>2025-04-08T10:35:24.000Z</time>
      </trkpt>
      <trkpt lat="47.78304779" lon="2.19125795">
        <ele>163.48</ele>
        <time>2025-04-08T10:35:32.000Z</time>
      </trkpt>
      <trkpt lat="47.7831021" lon="2.19137705">
        <ele>165.25</ele>
        <time>2025-04-08T10:35:40.000Z</time>
      </trkpt>
      <trkpt lat="47.78315594" lon="2.19149532">
        <ele>165.01</ele>
        <time>2025-04-08T10:35:48.000Z</time>
      </trkpt>
      <trkpt lat="47.78319934" lon="2.19161797">
        <ele>166.44</ele>
        <time>2025-04-08T10:35:56.000Z</time>
      </trkpt>
      <trkpt lat="47.78325921" lon="2.19172758">
        <ele>165.15</ele>
        <time>2025-04-08T10:36:05.000Z</time>
      </trkpt>
      <trkpt lat="47.78330398" lon="2.19184677">
        <ele>166.38</ele>
        <time>2025-04-08T10:36:14.000Z</time>
      </trkpt>
      <trkpt lat="47.78336888" lon="2.19195423">
        <ele>163.96</ele>
        <time>2025-04-08T10:36:23.000Z</time>
      </trkpt>
      <trkpt lat="47.78344488" lon="2.19205124">
        <ele>164.45</ele>
        <time>2025-04-08T10:36:31.000Z</time>
      </trkpt>
      <trkpt lat="47.78350519" lon="2.19216485">
        <ele>166.69</ele>
        <time>2025-04-08T10:36:39.000Z</time>
      </trkpt>
      <trkpt lat="47.78356298" lon="2.19228663">
        <ele>167.51</ele>
        <time>2025-04-08T10:36:47.000Z</time>
      </trkpt>
      <trkpt lat="47.783626" lon="2.19239981">
        <ele>167.12</ele>
        <time>2025-04-08T10:36:55.000Z</time>
      </trkpt>
      <trkpt lat="47.7837032" lon="2.19249271">
        <ele>167.17</ele>
        <time>2025-04-08T10:37:03.000Z</time>
      </trkpt>
      <trkpt lat="47.7837665" lon="2.19260164">
        <ele>166.9</ele>
        <time>2025-04-08T10:37:12.000Z</time>
      </trkpt>
      <trkpt lat="47.78382883" lon="2.19270974">
        <ele>166.41</ele>
        <time>2025-04-08T10:37:21.000Z</time>
      </trkpt>
      <trkpt lat="47.78390257" lon="2.19281313">
        <ele>164.33</ele>
        <time>2025-04-08T10:37:28.000Z</time>
      </trkpt>
      <trkpt lat="47.78396918" lon="2.19292838">
        <ele>166.05</ele>
        <time>2025-04-08T10:37:35.000Z</time>
      </trkpt>
      <trkpt lat="47.78403407" lon="2.19303261">
        <ele>164.79</ele>
        <time>2025-04-08T10:37:44.000Z</time>
      </trkpt>
      <trkpt lat="47.78408905" lon="2.19314695">
        <ele>164.64</ele>
        <time>2025-04-08T10:37:53.000Z</time>
      </trkpt>
      <trkpt lat="47.78415566" lon="2.19325938">
        <ele>167.02</ele>
        <time>2025-04-08T10:38:02.000Z</time>
      </trkpt>
      <trkpt lat="47.78420021" lon="2.1933854">
        <ele>166.83</ele>
        <time>2025-04-08T10:38:12.000Z</time>
      </trkpt>
      <trkpt lat="47.78418394" lon="2.19351833">
        <ele>164.88</ele>
        <time>2025-04-08T10:38:24.000Z</time>
      </trkpt>
      <trkpt lat="47.7841925" lon="2.19365336">
        <ele>163.14</ele>
        <time>2025-04-08T10:38:41.000Z</time>
      </trkpt>
      <trkpt lat="47.78419329" lon="2.19378891">
        <ele>162.41</ele>
        <time>2025-04-08T10:38:50.000Z</time>
      </trkpt>
      <trkpt lat="47.78416616" lon="2.1939203">
        <ele>164.18</ele>
        <time>2025-04-08T10:39:21.000Z</time>
      </trkpt>
      <trkpt lat="47.7841588" lon="2.19405918">
        <ele>163</ele>
        <time>2025-04-08T10:39:31.000Z</time>
      </trkpt>
      <trkpt lat="47.78413565" lon="2.19419504">
        <ele>163.16</ele>
        <time>2025-04-08T10:39:39.000Z</time>
      </trkpt>
      <trkpt lat="47.78413258" lon="2.19433531">
        <ele>163</ele>
        <time>2025-04-08T10:39:49.000Z</time>
      </trkpt>
      <trkpt lat="47.78413148" lon="2.1944698">
        <ele>161.68</ele>
        <time>2025-04-08T10:39:58.000Z</time>
      </trkpt>
      <trkpt lat="47.78411597" lon="2.19461732">
        <ele>162.56</ele>
        <time>2025-04-08T10:40:06.000Z</time>
      </trkpt>
      <trkpt lat="47.7840846" lon="2.19475581">
        <ele>164.99</ele>
        <time>2025-04-08T10:40:14.000Z</time>
      </trkpt>
      <trkpt lat="47.78408425" lon="2.19490359">
        <ele>162.44</ele>
        <time>2025-04-08T10:40:23.000Z</time>
      </trkpt>
      <trkpt lat="47.78408731" lon="2.19504323">
        <ele>161.8</ele>
        <time>2025-04-08T10:40:31.000Z</time>
      </trkpt>
      <trkpt lat="47.78409151" lon="2.1951852">
        <ele>161.13</ele>
        <time>2025-04-08T10:40:39.000Z</time>
      </trkpt>
      <trkpt lat="47.78409286" lon="2.1953293">
        <ele>162.33</ele>
        <time>2025-04-08T10:40:47.000Z</time>
      </trkpt>
      <trkpt lat="47.78410468" lon="2.19546815">
        <ele>159.99</ele>
        <time>2025-04-08T10:40:55.000Z</time>
      </trkpt>
      <trkpt lat="47.78409908" lon="2.19560917">
        <ele>158.69</ele>
        <time>2025-04-08T10:41:04.000Z</time>
      </trkpt>
      <trkpt lat="47.78408817" lon="2.19574747">
        <ele>158.68</ele>
        <time>2025-04-08T10:41:14.000Z</time>
      </trkpt>
      <trkpt lat="47.78406812" lon="2.19588387">
        <ele>159.99</ele>
        <time>2025-04-08T10:41:22.000Z</time>
      </trkpt>
      <trkpt lat="47.7840414" lon="2.19601372">
        <ele>160.62</ele>
        <time>2025-04-08T10:41:31.000Z</time>
      </trkpt>
      <trkpt lat="47.78402718" lon="2.1961494">
        <ele>162.89</ele>
        <time>2025-04-08T10:42:56.000Z</time>
      </trkpt>
      <trkpt lat="47.78400739" lon="2.19628491">
        <ele>161.08</ele>
        <time>2025-04-08T10:43:17.000Z</time>
      </trkpt>
      <trkpt lat="47.78402049" lon="2.19642302">
        <ele>161.39</ele>
        <time>2025-04-08T10:43:48.000Z</time>
      </trkpt>
      <trkpt lat="47.78402235" lon="2.19656359">
        <ele>163.81</ele>
        <time>2025-04-08T10:43:57.000Z</time>
      </trkpt>
      <trkpt lat="47.78401056" lon="2.19670314">
        <ele>166.23</ele>
        <time>2025-04-08T10:44:07.000Z</time>
      </trkpt>
      <trkpt lat="47.78401349" lon="2.19685234">
        <ele>165.09</ele>
        <time>2025-04-08T10:44:16.000Z</time>
      </trkpt>
      <trkpt lat="47.78399724" lon="2.19699476">
        <ele>165.29</ele>
        <time>2025-04-08T10:44:25.000Z</time>
      </trkpt>
      <trkpt lat="47.78399594" lon="2.19713612">
        <ele>166.49</ele>
        <time>2025-04-08T10:44:33.000Z</time>
      </trkpt>
      <trkpt lat="47.78398745" lon="2.1972748">
        <ele>165.98</ele>
        <time>2025-04-08T10:44:41.000Z</time>
      </trkpt>
      <trkpt lat="47.78396771" lon="2.19741567">
        <ele>165.8</ele>
        <time>2025-04-08T10:45:08.000Z</time>
      </trkpt>
      <trkpt lat="47.78400509" lon="2.19729382">
        <ele>168.55</ele>
        <time>2025-04-08T10:46:16.000Z</time>
      </trkpt>
      <trkpt lat="47.78402522" lon="2.19712218">
        <ele>167.61</ele>
        <time>2025-04-08T10:46:26.000Z</time>
      </trkpt>
      <trkpt lat="47.78403794" lon="2.19698089">
        <ele>168.18</ele>
        <time>2025-04-08T10:46:34.000Z</time>
      </trkpt>
      <trkpt lat="47.78403002" lon="2.19684191">
        <ele>169.21</ele>
        <time>2025-04-08T10:46:55.000Z</time>
      </trkpt>
      <trkpt lat="47.78403665" lon="2.19670545">
        <ele>165.97</ele>
        <time>2025-04-08T10:47:06.000Z</time>
      </trkpt>
      <trkpt lat="47.7840076" lon="2.19657534">
        <ele>166.05</ele>
        <time>2025-04-08T10:47:17.000Z</time>
      </trkpt>
      <trkpt lat="47.78393198" lon="2.19650086">
        <ele>163.84</ele>
        <time>2025-04-08T10:47:32.000Z</time>
      </trkpt>
      <trkpt lat="47.78393133" lon="2.1965192">
        <ele>160.97</ele>
        <time>2025-04-08T10:49:33.000Z</time>
      </trkpt>
      <trkpt lat="47.7839316" lon="2.19652754">
        <ele>160.83</ele>
        <time>2025-04-08T10:53:12.000Z</time>
      </trkpt>
      <trkpt lat="47.78393226" lon="2.19653128">
        <ele>160.78</ele>
        <time>2025-04-08T10:55:13.000Z</time>
      </trkpt>
      <trkpt lat="47.78393209" lon="2.19653334">
        <ele>160.61</ele>
        <time>2025-04-08T10:57:14.000Z</time>
      </trkpt>
      <trkpt lat="47.78393135" lon="2.19653504">
        <ele>160.68</ele>
        <time>2025-04-08T10:59:15.000Z</time>
      </trkpt>
      <trkpt lat="47.78393134" lon="2.19653621">
        <ele>160.9</ele>
        <time>2025-04-08T11:01:16.000Z</time>
      </trkpt>
      <trkpt lat="47.7839294" lon="2.19653793">
        <ele>160.96</ele>
        <time>2025-04-08T11:03:17.000Z</time>
      </trkpt>
      <trkpt lat="47.78392789" lon="2.19653808">
        <ele>160.93</ele>
        <time>2025-04-08T11:05:18.000Z</time>
      </trkpt>
      <trkpt lat="47.78392617" lon="2.19653891">
        <ele>160.83</ele>
        <time>2025-04-08T11:07:19.000Z</time>
      </trkpt>
      <trkpt lat="47.7839275" lon="2.19655016">
        <ele>161.25</ele>
        <time>2025-04-08T11:09:20.000Z</time>
      </trkpt>
      <trkpt lat="47.78392662" lon="2.19654381">
        <ele>160.58</ele>
        <time>2025-04-08T11:11:21.000Z</time>
      </trkpt>
      <trkpt lat="47.78391444" lon="2.19653544">
        <ele>160.26</ele>
        <time>2025-04-08T11:13:22.000Z</time>
      </trkpt>
      <trkpt lat="47.78391916" lon="2.19652989">
        <ele>160.24</ele>
        <time>2025-04-08T11:15:23.000Z</time>
      </trkpt>
      <trkpt lat="47.78391136" lon="2.19652571">
        <ele>158.72</ele>
        <time>2025-04-08T11:17:24.000Z</time>
      </trkpt>
      <trkpt lat="47.78401024" lon="2.19654146">
        <ele>158.44</ele>
        <time>2025-04-08T11:18:20.000Z</time>
      </trkpt>
      <trkpt lat="47.78409549" lon="2.19648597">
        <ele>158</ele>
        <time>2025-04-08T11:18:28.000Z</time>
      </trkpt>
      <trkpt lat="47.78419267" lon="2.19646302">
        <ele>159.12</ele>
        <time>2025-04-08T11:18:38.000Z</time>
      </trkpt>
      <trkpt lat="47.78409642" lon="2.19644606">
        <ele>157.66</ele>
        <time>2025-04-08T11:20:26.000Z</time>
      </trkpt>
      <trkpt lat="47.78399872" lon="2.19646942">
        <ele>159.93</ele>
        <time>2025-04-08T11:20:36.000Z</time>
      </trkpt>
      <trkpt lat="47.78391844" lon="2.19653477">
        <ele>159.69</ele>
        <time>2025-04-08T11:20:48.000Z</time>
      </trkpt>
      <trkpt lat="47.78392413" lon="2.19656236">
        <ele>158.94</ele>
        <time>2025-04-08T11:22:49.000Z</time>
      </trkpt>
      <trkpt lat="47.7839226" lon="2.1965932">
        <ele>159.3</ele>
        <time>2025-04-08T11:24:50.000Z</time>
      </trkpt>
      <trkpt lat="47.78400194" lon="2.19666811">
        <ele>160.44</ele>
        <time>2025-04-08T11:26:34.000Z</time>
      </trkpt>
      <trkpt lat="47.78402967" lon="2.19679681">
        <ele>162.1</ele>
        <time>2025-04-08T11:26:50.000Z</time>
      </trkpt>
      <trkpt lat="47.78399752" lon="2.19693126">
        <ele>164.55</ele>
        <time>2025-04-08T11:27:00.000Z</time>
      </trkpt>
      <trkpt lat="47.78399468" lon="2.19707234">
        <ele>164.87</ele>
        <time>2025-04-08T11:27:10.000Z</time>
      </trkpt>
      <trkpt lat="47.78399703" lon="2.19721619">
        <ele>164.65</ele>
        <time>2025-04-08T11:27:20.000Z</time>
      </trkpt>
      <trkpt lat="47.7839582" lon="2.19733793">
        <ele>166.33</ele>
        <time>2025-04-08T11:27:28.000Z</time>
      </trkpt>
      <trkpt lat="47.78394215" lon="2.19747706">
        <ele>165.9</ele>
        <time>2025-04-08T11:27:37.000Z</time>
      </trkpt>
      <trkpt lat="47.78394928" lon="2.19761105">
        <ele>165.47</ele>
        <time>2025-04-08T11:27:45.000Z</time>
      </trkpt>
      <trkpt lat="47.78394754" lon="2.19776023">
        <ele>164.44</ele>
        <time>2025-04-08T11:27:54.000Z</time>
      </trkpt>
      <trkpt lat="47.78393266" lon="2.19790733">
        <ele>165.77</ele>
        <time>2025-04-08T11:28:04.000Z</time>
      </trkpt>
      <trkpt lat="47.78391808" lon="2.19805311">
        <ele>167.37</ele>
        <time>2025-04-08T11:28:14.000Z</time>
      </trkpt>
      <trkpt lat="47.78388875" lon="2.19818528">
        <ele>169.85</ele>
        <time>2025-04-08T11:28:22.000Z</time>
      </trkpt>
      <trkpt lat="47.78388625" lon="2.19833527">
        <ele>167.43</ele>
        <time>2025-04-08T11:28:31.000Z</time>
      </trkpt>
      <trkpt lat="47.78393591" lon="2.19845549">
        <ele>163.06</ele>
        <time>2025-04-08T11:28:41.000Z</time>
      </trkpt>
      <trkpt lat="47.78402512" lon="2.19850161">
        <ele>162.13</ele>
        <time>2025-04-08T11:28:50.000Z</time>
      </trkpt>
      <trkpt lat="47.78412195" lon="2.19850875">
        <ele>161.42</ele>
        <time>2025-04-08T11:28:58.000Z</time>
      </trkpt>
      <trkpt lat="47.78422087" lon="2.19851299">
        <ele>162.09</ele>
        <time>2025-04-08T11:29:05.000Z</time>
      </trkpt>
      <trkpt lat="47.78431495" lon="2.19852453">
        <ele>162.96</ele>
        <time>2025-04-08T11:29:13.000Z</time>
      </trkpt>
      <trkpt lat="47.78440224" lon="2.19856132">
        <ele>162.59</ele>
        <time>2025-04-08T11:29:21.000Z</time>
      </trkpt>
      <trkpt lat="47.78450124" lon="2.19858727">
        <ele>161.86</ele>
        <time>2025-04-08T11:29:30.000Z</time>
      </trkpt>
      <trkpt lat="47.78459612" lon="2.19859671">
        <ele>161.22</ele>
        <time>2025-04-08T11:29:38.000Z</time>
      </trkpt>
      <trkpt lat="47.78469648" lon="2.19862866">
        <ele>161.36</ele>
        <time>2025-04-08T11:29:46.000Z</time>
      </trkpt>
      <trkpt lat="47.78479027" lon="2.19863175">
        <ele>161.25</ele>
        <time>2025-04-08T11:29:55.000Z</time>
      </trkpt>
      <trkpt lat="47.78488423" lon="2.19865983">
        <ele>164.33</ele>
        <time>2025-04-08T11:30:03.000Z</time>
      </trkpt>
      <trkpt lat="47.78497631" lon="2.19868257">
        <ele>164.18</ele>
        <time>2025-04-08T11:30:11.000Z</time>
      </trkpt>
      <trkpt lat="47.78507605" lon="2.198661">
        <ele>162.12</ele>
        <time>2025-04-08T11:30:20.000Z</time>
      </trkpt>
      <trkpt lat="47.78516931" lon="2.19863649">
        <ele>160.91</ele>
        <time>2025-04-08T11:30:28.000Z</time>
      </trkpt>
      <trkpt lat="47.78526081" lon="2.19862622">
        <ele>161.01</ele>
        <time>2025-04-08T11:30:37.000Z</time>
      </trkpt>
      <trkpt lat="47.78535693" lon="2.19865558">
        <ele>161.76</ele>
        <time>2025-04-08T11:30:45.000Z</time>
      </trkpt>
      <trkpt lat="47.78545569" lon="2.19868398">
        <ele>162.44</ele>
        <time>2025-04-08T11:30:53.000Z</time>
      </trkpt>
      <trkpt lat="47.78555066" lon="2.19870614">
        <ele>162</ele>
        <time>2025-04-08T11:31:01.000Z</time>
      </trkpt>
      <trkpt lat="47.78564572" lon="2.19871155">
        <ele>161.78</ele>
        <time>2025-04-08T11:31:10.000Z</time>
      </trkpt>
      <trkpt lat="47.78574167" lon="2.19871816">
        <ele>160.95</ele>
        <time>2025-04-08T11:31:19.000Z</time>
      </trkpt>
      <trkpt lat="47.78583337" lon="2.19873424">
        <ele>161.8</ele>
        <time>2025-04-08T11:31:29.000Z</time>
      </trkpt>
      <trkpt lat="47.7859296" lon="2.19873245">
        <ele>160.52</ele>
        <time>2025-04-08T11:31:48.000Z</time>
      </trkpt>
      <trkpt lat="47.78602684" lon="2.19871743">
        <ele>159.38</ele>
        <time>2025-04-08T11:32:03.000Z</time>
      </trkpt>
      <trkpt lat="47.78612217" lon="2.19873881">
        <ele>158.42</ele>
        <time>2025-04-08T11:32:13.000Z</time>
      </trkpt>
      <trkpt lat="47.78621261" lon="2.19877374">
        <ele>158.55</ele>
        <time>2025-04-08T11:32:22.000Z</time>
      </trkpt>
      <trkpt lat="47.78630802" lon="2.19876301">
        <ele>160.3</ele>
        <time>2025-04-08T11:32:31.000Z</time>
      </trkpt>
      <trkpt lat="47.78640372" lon="2.19875935">
        <ele>158.9</ele>
        <time>2025-04-08T11:32:42.000Z</time>
      </trkpt>
      <trkpt lat="47.78650082" lon="2.1987712">
        <ele>157.85</ele>
        <time>2025-04-08T11:32:51.000Z</time>
      </trkpt>
      <trkpt lat="47.78660093" lon="2.19878024">
        <ele>156.22</ele>
        <time>2025-04-08T11:33:00.000Z</time>
      </trkpt>
      <trkpt lat="47.78669089" lon="2.19877456">
        <ele>155.61</ele>
        <time>2025-04-08T11:33:08.000Z</time>
      </trkpt>
      <trkpt lat="47.78676711" lon="2.19885187">
        <ele>155.03</ele>
        <time>2025-04-08T11:33:17.000Z</time>
      </trkpt>
      <trkpt lat="47.78684583" lon="2.19891647">
        <ele>155.16</ele>
        <time>2025-04-08T11:33:26.000Z</time>
      </trkpt>
      <trkpt lat="47.7869373" lon="2.19893268">
        <ele>153.97</ele>
        <time>2025-04-08T11:34:09.000Z</time>
      </trkpt>
      <trkpt lat="47.7870367" lon="2.19894776">
        <ele>154.66</ele>
        <time>2025-04-08T11:34:20.000Z</time>
      </trkpt>
      <trkpt lat="47.78713137" lon="2.19897335">
        <ele>155.12</ele>
        <time>2025-04-08T11:34:29.000Z</time>
      </trkpt>
      <trkpt lat="47.78722381" lon="2.19899326">
        <ele>157.54</ele>
        <time>2025-04-08T11:34:38.000Z</time>
      </trkpt>
      <trkpt lat="47.7873125" lon="2.19901772">
        <ele>158.18</ele>
        <time>2025-04-08T11:34:47.000Z</time>
      </trkpt>
      <trkpt lat="47.78740706" lon="2.19902162">
        <ele>158.02</ele>
        <time>2025-04-08T11:34:56.000Z</time>
      </trkpt>
      <trkpt lat="47.78749559" lon="2.19897313">
        <ele>158.25</ele>
        <time>2025-04-08T11:36:15.000Z</time>
      </trkpt>
      <trkpt lat="47.78755981" lon="2.19897625">
        <ele>156.6</ele>
        <time>2025-04-08T11:38:16.000Z</time>
      </trkpt>
      <trkpt lat="47.78746796" lon="2.19898707">
        <ele>156.69</ele>
        <time>2025-04-08T11:40:15.000Z</time>
      </trkpt>
      <trkpt lat="47.78756349" lon="2.19897453">
        <ele>156.23</ele>
        <time>2025-04-08T11:40:46.000Z</time>
      </trkpt>
      <trkpt lat="47.78766981" lon="2.19898729">
        <ele>155.53</ele>
        <time>2025-04-08T11:41:09.000Z</time>
      </trkpt>
      <trkpt lat="47.78776361" lon="2.19897342">
        <ele>157.41</ele>
        <time>2025-04-08T11:41:17.000Z</time>
      </trkpt>
      <trkpt lat="47.78785668" lon="2.19897868">
        <ele>158.47</ele>
        <time>2025-04-08T11:41:29.000Z</time>
      </trkpt>
      <trkpt lat="47.7879595" lon="2.19897268">
        <ele>159.12</ele>
        <time>2025-04-08T11:41:36.000Z</time>
      </trkpt>
      <trkpt lat="47.78805753" lon="2.19895103">
        <ele>159.56</ele>
        <time>2025-04-08T11:41:44.000Z</time>
      </trkpt>
      <trkpt lat="47.78815871" lon="2.19895349">
        <ele>160</ele>
        <time>2025-04-08T11:41:52.000Z</time>
      </trkpt>
      <trkpt lat="47.78825541" lon="2.19893881">
        <ele>161.04</ele>
        <time>2025-04-08T11:42:00.000Z</time>
      </trkpt>
      <trkpt lat="47.78834696" lon="2.19894248">
        <ele>159.48</ele>
        <time>2025-04-08T11:42:07.000Z</time>
      </trkpt>
      <trkpt lat="47.78844877" lon="2.19894372">
        <ele>158.22</ele>
        <time>2025-04-08T11:42:15.000Z</time>
      </trkpt>
      <trkpt lat="47.78854948" lon="2.19894476">
        <ele>158.34</ele>
        <time>2025-04-08T11:42:22.000Z</time>
      </trkpt>
      <trkpt lat="47.78864319" lon="2.19893057">
        <ele>157.98</ele>
        <time>2025-04-08T11:42:29.000Z</time>
      </trkpt>
      <trkpt lat="47.78874038" lon="2.19891264">
        <ele>157.32</ele>
        <time>2025-04-08T11:42:36.000Z</time>
      </trkpt>
      <trkpt lat="47.78883525" lon="2.19890367">
        <ele>157.52</ele>
        <time>2025-04-08T11:42:43.000Z</time>
      </trkpt>
      <trkpt lat="47.78893679" lon="2.19889301">
        <ele>156.79</ele>
        <time>2025-04-08T11:42:51.000Z</time>
      </trkpt>
      <trkpt lat="47.78903601" lon="2.19888018">
        <ele>156.05</ele>
        <time>2025-04-08T11:42:59.000Z</time>
      </trkpt>
      <trkpt lat="47.78912686" lon="2.19884261">
        <ele>156.21</ele>
        <time>2025-04-08T11:43:07.000Z</time>
      </trkpt>
      <trkpt lat="47.78922249" lon="2.1988388">
        <ele>156.41</ele>
        <time>2025-04-08T11:43:16.000Z</time>
      </trkpt>
      <trkpt lat="47.78923394" lon="2.19897373">
        <ele>156.33</ele>
        <time>2025-04-08T11:43:24.000Z</time>
      </trkpt>
      <trkpt lat="47.78918602" lon="2.19910291">
        <ele>156.71</ele>
        <time>2025-04-08T11:43:32.000Z</time>
      </trkpt>
      <trkpt lat="47.7891296" lon="2.19921332">
        <ele>156.77</ele>
        <time>2025-04-08T11:43:40.000Z</time>
      </trkpt>
      <trkpt lat="47.78905821" lon="2.19931255">
        <ele>156.7</ele>
        <time>2025-04-08T11:43:50.000Z</time>
      </trkpt>
      <trkpt lat="47.78897874" lon="2.19940591">
        <ele>157.13</ele>
        <time>2025-04-08T11:43:58.000Z</time>
      </trkpt>
      <trkpt lat="47.78889487" lon="2.19949078">
        <ele>157.02</ele>
        <time>2025-04-08T11:44:06.000Z</time>
      </trkpt>
      <trkpt lat="47.78880843" lon="2.19956686">
        <ele>157.53</ele>
        <time>2025-04-08T11:44:14.000Z</time>
      </trkpt>
      <trkpt lat="47.78872235" lon="2.19963245">
        <ele>157.29</ele>
        <time>2025-04-08T11:44:22.000Z</time>
      </trkpt>
      <trkpt lat="47.78864331" lon="2.19972733">
        <ele>157.24</ele>
        <time>2025-04-08T11:44:31.000Z</time>
      </trkpt>
      <trkpt lat="47.78857331" lon="2.19981837">
        <ele>157.22</ele>
        <time>2025-04-08T11:44:39.000Z</time>
      </trkpt>
      <trkpt lat="47.78849867" lon="2.19990738">
        <ele>157</ele>
        <time>2025-04-08T11:44:47.000Z</time>
      </trkpt>
      <trkpt lat="47.78842698" lon="2.19999891">
        <ele>155.68</ele>
        <time>2025-04-08T11:44:56.000Z</time>
      </trkpt>
      <trkpt lat="47.78835754" lon="2.20010125">
        <ele>156.79</ele>
        <time>2025-04-08T11:45:05.000Z</time>
      </trkpt>
      <trkpt lat="47.78826935" lon="2.20015475">
        <ele>157.48</ele>
        <time>2025-04-08T11:45:13.000Z</time>
      </trkpt>
      <trkpt lat="47.78819253" lon="2.20023716">
        <ele>159.18</ele>
        <time>2025-04-08T11:45:21.000Z</time>
      </trkpt>
      <trkpt lat="47.78811132" lon="2.20031278">
        <ele>162.8</ele>
        <time>2025-04-08T11:45:29.000Z</time>
      </trkpt>
      <trkpt lat="47.78803334" lon="2.2003923">
        <ele>161.46</ele>
        <time>2025-04-08T11:45:37.000Z</time>
      </trkpt>
      <trkpt lat="47.78795783" lon="2.2004762">
        <ele>161.86</ele>
        <time>2025-04-08T11:45:46.000Z</time>
      </trkpt>
      <trkpt lat="47.78788222" lon="2.20057662">
        <ele>160.09</ele>
        <time>2025-04-08T11:45:54.000Z</time>
      </trkpt>
      <trkpt lat="47.78780643" lon="2.20066968">
        <ele>160.9</ele>
        <time>2025-04-08T11:46:02.000Z</time>
      </trkpt>
      <trkpt lat="47.78773312" lon="2.20076536">
        <ele>159.98</ele>
        <time>2025-04-08T11:46:10.000Z</time>
      </trkpt>
      <trkpt lat="47.78765018" lon="2.20084602">
        <ele>165.25</ele>
        <time>2025-04-08T11:46:18.000Z</time>
      </trkpt>
      <trkpt lat="47.78756686" lon="2.20090671">
        <ele>167.13</ele>
        <time>2025-04-08T11:46:26.000Z</time>
      </trkpt>
      <trkpt lat="47.78748599" lon="2.20098832">
        <ele>166.97</ele>
        <time>2025-04-08T11:46:35.000Z</time>
      </trkpt>
      <trkpt lat="47.78740359" lon="2.20104944">
        <ele>167.88</ele>
        <time>2025-04-08T11:46:43.000Z</time>
      </trkpt>
      <trkpt lat="47.78732535" lon="2.20112349">
        <ele>165.16</ele>
        <time>2025-04-08T11:46:50.000Z</time>
      </trkpt>
      <trkpt lat="47.78722954" lon="2.20117477">
        <ele>169.37</ele>
        <time>2025-04-08T11:46:58.000Z</time>
      </trkpt>
      <trkpt lat="47.78714155" lon="2.20121141">
        <ele>168.65</ele>
        <time>2025-04-08T11:47:05.000Z</time>
      </trkpt>
      <trkpt lat="47.78705517" lon="2.20127773">
        <ele>169.37</ele>
        <time>2025-04-08T11:47:13.000Z</time>
      </trkpt>
      <trkpt lat="47.78697703" lon="2.20135771">
        <ele>170.51</ele>
        <time>2025-04-08T11:47:21.000Z</time>
      </trkpt>
      <trkpt lat="47.78690003" lon="2.20142909">
        <ele>170.16</ele>
        <time>2025-04-08T11:47:30.000Z</time>
      </trkpt>
      <trkpt lat="47.78680907" lon="2.20148591">
        <ele>170.13</ele>
        <time>2025-04-08T11:47:39.000Z</time>
      </trkpt>
      <trkpt lat="47.78673928" lon="2.2015773">
        <ele>166.51</ele>
        <time>2025-04-08T11:47:47.000Z</time>
      </trkpt>
      <trkpt lat="47.78666051" lon="2.20165134">
        <ele>163.69</ele>
        <time>2025-04-08T11:47:55.000Z</time>
      </trkpt>
      <trkpt lat="47.78658198" lon="2.20173249">
        <ele>162.34</ele>
        <time>2025-04-08T11:48:09.000Z</time>
      </trkpt>
      <trkpt lat="47.78650859" lon="2.20181547">
        <ele>161.47</ele>
        <time>2025-04-08T11:48:20.000Z</time>
      </trkpt>
      <trkpt lat="47.78643132" lon="2.20190812">
        <ele>162.05</ele>
        <time>2025-04-08T11:48:29.000Z</time>
      </trkpt>
      <trkpt lat="47.78635003" lon="2.20198266">
        <ele>160.95</ele>
        <time>2025-04-08T11:48:38.000Z</time>
      </trkpt>
      <trkpt lat="47.78627171" lon="2.20206006">
        <ele>160.93</ele>
        <time>2025-04-08T11:48:45.000Z</time>
      </trkpt>
      <trkpt lat="47.78619711" lon="2.20213502">
        <ele>160.94</ele>
        <time>2025-04-08T11:48:52.000Z</time>
      </trkpt>
      <trkpt lat="47.7861252" lon="2.20222054">
        <ele>160.68</ele>
        <time>2025-04-08T11:49:02.000Z</time>
      </trkpt>
      <trkpt lat="47.78604724" lon="2.20230903">
        <ele>161.38</ele>
        <time>2025-04-08T11:49:12.000Z</time>
      </trkpt>
      <trkpt lat="47.78597534" lon="2.20240269">
        <ele>161.98</ele>
        <time>2025-04-08T11:49:20.000Z</time>
      </trkpt>
      <trkpt lat="47.78589878" lon="2.20247597">
        <ele>163.03</ele>
        <time>2025-04-08T11:49:27.000Z</time>
      </trkpt>
      <trkpt lat="47.78581815" lon="2.20255438">
        <ele>163.2</ele>
        <time>2025-04-08T11:49:35.000Z</time>
      </trkpt>
      <trkpt lat="47.7857421" lon="2.20263419">
        <ele>162.42</ele>
        <time>2025-04-08T11:49:43.000Z</time>
      </trkpt>
      <trkpt lat="47.7856658" lon="2.20271188">
        <ele>162.15</ele>
        <time>2025-04-08T11:49:52.000Z</time>
      </trkpt>
      <trkpt lat="47.78560056" lon="2.20280494">
        <ele>162.02</ele>
        <time>2025-04-08T11:50:00.000Z</time>
      </trkpt>
      <trkpt lat="47.78553161" lon="2.20289637">
        <ele>161.98</ele>
        <time>2025-04-08T11:50:07.000Z</time>
      </trkpt>
      <trkpt lat="47.78545406" lon="2.20297358">
        <ele>161.75</ele>
        <time>2025-04-08T11:50:15.000Z</time>
      </trkpt>
      <trkpt lat="47.78537219" lon="2.20305719">
        <ele>162.02</ele>
        <time>2025-04-08T11:50:24.000Z</time>
      </trkpt>
      <trkpt lat="47.78528933" lon="2.20311574">
        <ele>160.84</ele>
        <time>2025-04-08T11:50:31.000Z</time>
      </trkpt>
      <trkpt lat="47.78521597" lon="2.20321414">
        <ele>160.98</ele>
        <time>2025-04-08T11:50:39.000Z</time>
      </trkpt>
      <trkpt lat="47.78513845" lon="2.20328954">
        <ele>160.36</ele>
        <time>2025-04-08T11:50:48.000Z</time>
      </trkpt>
      <trkpt lat="47.78506159" lon="2.20335896">
        <ele>160.96</ele>
        <time>2025-04-08T11:50:55.000Z</time>
      </trkpt>
      <trkpt lat="47.78498533" lon="2.20342987">
        <ele>160.38</ele>
        <time>2025-04-08T11:51:02.000Z</time>
      </trkpt>
      <trkpt lat="47.78490989" lon="2.20350604">
        <ele>159.17</ele>
        <time>2025-04-08T11:51:10.000Z</time>
      </trkpt>
      <trkpt lat="47.78483346" lon="2.20360319">
        <ele>161.25</ele>
        <time>2025-04-08T11:51:19.000Z</time>
      </trkpt>
      <trkpt lat="47.78475496" lon="2.20368011">
        <ele>159.7</ele>
        <time>2025-04-08T11:51:27.000Z</time>
      </trkpt>
      <trkpt lat="47.78467098" lon="2.2037579">
        <ele>161.64</ele>
        <time>2025-04-08T11:51:36.000Z</time>
      </trkpt>
      <trkpt lat="47.78459805" lon="2.20384076">
        <ele>161.52</ele>
        <time>2025-04-08T11:51:44.000Z</time>
      </trkpt>
      <trkpt lat="47.78451661" lon="2.20391655">
        <ele>161.95</ele>
        <time>2025-04-08T11:52:03.000Z</time>
      </trkpt>
      <trkpt lat="47.78444408" lon="2.20399584">
        <ele>161.93</ele>
        <time>2025-04-08T11:52:12.000Z</time>
      </trkpt>
      <trkpt lat="47.78436721" lon="2.20407721">
        <ele>163.28</ele>
        <time>2025-04-08T11:52:20.000Z</time>
      </trkpt>
      <trkpt lat="47.78429103" lon="2.2041498">
        <ele>163.42</ele>
        <time>2025-04-08T11:52:29.000Z</time>
      </trkpt>
      <trkpt lat="47.78421482" lon="2.20422341">
        <ele>162.76</ele>
        <time>2025-04-08T11:52:36.000Z</time>
      </trkpt>
      <trkpt lat="47.78413024" lon="2.20428775">
        <ele>163.18</ele>
        <time>2025-04-08T11:52:44.000Z</time>
      </trkpt>
      <trkpt lat="47.78404187" lon="2.20435489">
        <ele>164.29</ele>
        <time>2025-04-08T11:52:53.000Z</time>
      </trkpt>
      <trkpt lat="47.78395036" lon="2.20440967">
        <ele>166.13</ele>
        <time>2025-04-08T11:53:00.000Z</time>
      </trkpt>
      <trkpt lat="47.78385907" lon="2.20444606">
        <ele>166.49</ele>
        <time>2025-04-08T11:53:08.000Z</time>
      </trkpt>
      <trkpt lat="47.78377649" lon="2.20450815">
        <ele>165.26</ele>
        <time>2025-04-08T11:53:17.000Z</time>
      </trkpt>
      <trkpt lat="47.78370035" lon="2.20457953">
        <ele>166.08</ele>
        <time>2025-04-08T11:53:24.000Z</time>
      </trkpt>
      <trkpt lat="47.78361388" lon="2.20463039">
        <ele>166.39</ele>
        <time>2025-04-08T11:53:31.000Z</time>
      </trkpt>
      <trkpt lat="47.78352932" lon="2.20471142">
        <ele>167.29</ele>
        <time>2025-04-08T11:53:41.000Z</time>
      </trkpt>
      <trkpt lat="47.78344957" lon="2.20477722">
        <ele>169.56</ele>
        <time>2025-04-08T11:53:48.000Z</time>
      </trkpt>
      <trkpt lat="47.78336276" lon="2.2048306">
        <ele>168.61</ele>
        <time>2025-04-08T11:53:56.000Z</time>
      </trkpt>
      <trkpt lat="47.78328327" lon="2.20490778">
        <ele>169.72</ele>
        <time>2025-04-08T11:54:06.000Z</time>
      </trkpt>
      <trkpt lat="47.78320171" lon="2.20498489">
        <ele>168.31</ele>
        <time>2025-04-08T11:54:14.000Z</time>
      </trkpt>
      <trkpt lat="47.78312871" lon="2.20507418">
        <ele>165.56</ele>
        <time>2025-04-08T11:54:21.000Z</time>
      </trkpt>
      <trkpt lat="47.78304795" lon="2.20516919">
        <ele>165.79</ele>
        <time>2025-04-08T11:54:29.000Z</time>
      </trkpt>
      <trkpt lat="47.78298087" lon="2.20528266">
        <ele>167.4</ele>
        <time>2025-04-08T11:54:36.000Z</time>
      </trkpt>
      <trkpt lat="47.78291548" lon="2.20538028">
        <ele>166.33</ele>
        <time>2025-04-08T11:54:43.000Z</time>
      </trkpt>
      <trkpt lat="47.78285346" lon="2.20548944">
        <ele>165.08</ele>
        <time>2025-04-08T11:54:52.000Z</time>
      </trkpt>
      <trkpt lat="47.78278993" lon="2.20560006">
        <ele>163.3</ele>
        <time>2025-04-08T11:55:00.000Z</time>
      </trkpt>
      <trkpt lat="47.78271905" lon="2.2056918">
        <ele>164.57</ele>
        <time>2025-04-08T11:55:09.000Z</time>
      </trkpt>
      <trkpt lat="47.78264847" lon="2.20577983">
        <ele>164.24</ele>
        <time>2025-04-08T11:55:16.000Z</time>
      </trkpt>
      <trkpt lat="47.78258461" lon="2.20588961">
        <ele>164.46</ele>
        <time>2025-04-08T11:55:25.000Z</time>
      </trkpt>
      <trkpt lat="47.78253499" lon="2.20600818">
        <ele>163.61</ele>
        <time>2025-04-08T11:55:33.000Z</time>
      </trkpt>
      <trkpt lat="47.78246736" lon="2.20611203">
        <ele>162.82</ele>
        <time>2025-04-08T11:55:41.000Z</time>
      </trkpt>
      <trkpt lat="47.7823918" lon="2.20620675">
        <ele>160.45</ele>
        <time>2025-04-08T11:55:50.000Z</time>
      </trkpt>
      <trkpt lat="47.78232083" lon="2.20629801">
        <ele>159.37</ele>
        <time>2025-04-08T11:55:58.000Z</time>
      </trkpt>
      <trkpt lat="47.78225579" lon="2.20639068">
        <ele>158.52</ele>
        <time>2025-04-08T11:56:06.000Z</time>
      </trkpt>
      <trkpt lat="47.78218898" lon="2.2065063">
        <ele>157.77</ele>
        <time>2025-04-08T11:56:15.000Z</time>
      </trkpt>
      <trkpt lat="47.78212236" lon="2.2066012">
        <ele>159.43</ele>
        <time>2025-04-08T11:56:22.000Z</time>
      </trkpt>
      <trkpt lat="47.78204864" lon="2.20667938">
        <ele>158.75</ele>
        <time>2025-04-08T11:56:30.000Z</time>
      </trkpt>
      <trkpt lat="47.78197573" lon="2.20678063">
        <ele>160.09</ele>
        <time>2025-04-08T11:56:39.000Z</time>
      </trkpt>
      <trkpt lat="47.78190449" lon="2.20688086">
        <ele>159.77</ele>
        <time>2025-04-08T11:56:47.000Z</time>
      </trkpt>
      <trkpt lat="47.7818627" lon="2.20700526">
        <ele>159.89</ele>
        <time>2025-04-08T11:56:57.000Z</time>
      </trkpt>
      <trkpt lat="47.78188158" lon="2.20713727">
        <ele>162.99</ele>
        <time>2025-04-08T11:57:38.000Z</time>
      </trkpt>
      <trkpt lat="47.78195901" lon="2.2072145">
        <ele>163.53</ele>
        <time>2025-04-08T11:57:47.000Z</time>
      </trkpt>
      <trkpt lat="47.78196142" lon="2.20722636">
        <ele>164.55</ele>
        <time>2025-04-08T12:00:25.000Z</time>
      </trkpt>
      <trkpt lat="47.78203954" lon="2.20729692">
        <ele>167.44</ele>
        <time>2025-04-08T12:00:34.000Z</time>
      </trkpt>
      <trkpt lat="47.78212081" lon="2.20736524">
        <ele>169.62</ele>
        <time>2025-04-08T12:00:42.000Z</time>
      </trkpt>
      <trkpt lat="47.78220198" lon="2.20743116">
        <ele>169.42</ele>
        <time>2025-04-08T12:00:51.000Z</time>
      </trkpt>
      <trkpt lat="47.78229688" lon="2.2074722">
        <ele>167.68</ele>
        <time>2025-04-08T12:00:59.000Z</time>
      </trkpt>
      <trkpt lat="47.7823882" lon="2.20750823">
        <ele>167.25</ele>
        <time>2025-04-08T12:01:08.000Z</time>
      </trkpt>
      <trkpt lat="47.78247879" lon="2.20757219">
        <ele>167.83</ele>
        <time>2025-04-08T12:01:16.000Z</time>
      </trkpt>
      <trkpt lat="47.78256054" lon="2.20762957">
        <ele>167.95</ele>
        <time>2025-04-08T12:01:24.000Z</time>
      </trkpt>
      <trkpt lat="47.78265085" lon="2.20769116">
        <ele>167.41</ele>
        <time>2025-04-08T12:01:32.000Z</time>
      </trkpt>
      <trkpt lat="47.78273823" lon="2.20776588">
        <ele>168.62</ele>
        <time>2025-04-08T12:01:40.000Z</time>
      </trkpt>
      <trkpt lat="47.78283329" lon="2.20780814">
        <ele>167.39</ele>
        <time>2025-04-08T12:01:48.000Z</time>
      </trkpt>
      <trkpt lat="47.78293031" lon="2.20785193">
        <ele>168.91</ele>
        <time>2025-04-08T12:01:57.000Z</time>
      </trkpt>
      <trkpt lat="47.78302784" lon="2.20789494">
        <ele>168.58</ele>
        <time>2025-04-08T12:02:07.000Z</time>
      </trkpt>
      <trkpt lat="47.7831099" lon="2.20796306">
        <ele>167.31</ele>
        <time>2025-04-08T12:02:15.000Z</time>
      </trkpt>
      <trkpt lat="47.78319431" lon="2.2080169">
        <ele>168.01</ele>
        <time>2025-04-08T12:02:23.000Z</time>
      </trkpt>
      <trkpt lat="47.78328155" lon="2.20807495">
        <ele>169.74</ele>
        <time>2025-04-08T12:02:31.000Z</time>
      </trkpt>
      <trkpt lat="47.78336894" lon="2.20811762">
        <ele>171.4</ele>
        <time>2025-04-08T12:02:39.000Z</time>
      </trkpt>
      <trkpt lat="47.78345987" lon="2.20817239">
        <ele>170.67</ele>
        <time>2025-04-08T12:02:47.000Z</time>
      </trkpt>
      <trkpt lat="47.78355073" lon="2.20821086">
        <ele>169.23</ele>
        <time>2025-04-08T12:02:55.000Z</time>
      </trkpt>
      <trkpt lat="47.7836475" lon="2.20824755">
        <ele>168.26</ele>
        <time>2025-04-08T12:03:03.000Z</time>
      </trkpt>
      <trkpt lat="47.78373405" lon="2.20829753">
        <ele>168.99</ele>
        <time>2025-04-08T12:03:10.000Z</time>
      </trkpt>
      <trkpt lat="47.78382661" lon="2.20834917">
        <ele>169.19</ele>
        <time>2025-04-08T12:03:18.000Z</time>
      </trkpt>
      <trkpt lat="47.78391299" lon="2.20840165">
        <ele>169.51</ele>
        <time>2025-04-08T12:03:26.000Z</time>
      </trkpt>
      <trkpt lat="47.78400123" lon="2.20846614">
        <ele>169.77</ele>
        <time>2025-04-08T12:03:34.000Z</time>
      </trkpt>
      <trkpt lat="47.78409" lon="2.20852628">
        <ele>169.03</ele>
        <time>2025-04-08T12:03:42.000Z</time>
      </trkpt>
      <trkpt lat="47.78417937" lon="2.20857986">
        <ele>169.68</ele>
        <time>2025-04-08T12:03:50.000Z</time>
      </trkpt>
      <trkpt lat="47.78426881" lon="2.20853604">
        <ele>171.72</ele>
        <time>2025-04-08T12:04:19.000Z</time>
      </trkpt>
      <trkpt lat="47.78435738" lon="2.20859507">
        <ele>170.46</ele>
        <time>2025-04-08T12:04:27.000Z</time>
      </trkpt>
      <trkpt lat="47.78444931" lon="2.20863417">
        <ele>166.19</ele>
        <time>2025-04-08T12:04:37.000Z</time>
      </trkpt>
      <trkpt lat="47.7845382" lon="2.20869434">
        <ele>165.38</ele>
        <time>2025-04-08T12:04:47.000Z</time>
      </trkpt>
      <trkpt lat="47.78463225" lon="2.20875401">
        <ele>162.38</ele>
        <time>2025-04-08T12:04:55.000Z</time>
      </trkpt>
      <trkpt lat="47.78469982" lon="2.20884406">
        <ele>160.94</ele>
        <time>2025-04-08T12:05:02.000Z</time>
      </trkpt>
      <trkpt lat="47.78477384" lon="2.20894394">
        <ele>161.19</ele>
        <time>2025-04-08T12:05:10.000Z</time>
      </trkpt>
      <trkpt lat="47.78484463" lon="2.20903198">
        <ele>161</ele>
        <time>2025-04-08T12:05:17.000Z</time>
      </trkpt>
      <trkpt lat="47.78491058" lon="2.20913792">
        <ele>161.14</ele>
        <time>2025-04-08T12:05:24.000Z</time>
      </trkpt>
      <trkpt lat="47.78497838" lon="2.20924407">
        <ele>161.77</ele>
        <time>2025-04-08T12:05:31.000Z</time>
      </trkpt>
      <trkpt lat="47.78504576" lon="2.20933659">
        <ele>162.23</ele>
        <time>2025-04-08T12:05:38.000Z</time>
      </trkpt>
      <trkpt lat="47.78512026" lon="2.20943629">
        <ele>162.08</ele>
        <time>2025-04-08T12:05:46.000Z</time>
      </trkpt>
      <trkpt lat="47.7851825" lon="2.2095515">
        <ele>163.88</ele>
        <time>2025-04-08T12:05:54.000Z</time>
      </trkpt>
      <trkpt lat="47.78524502" lon="2.2096725">
        <ele>164.81</ele>
        <time>2025-04-08T12:06:02.000Z</time>
      </trkpt>
      <trkpt lat="47.78531584" lon="2.20976393">
        <ele>163.37</ele>
        <time>2025-04-08T12:06:10.000Z</time>
      </trkpt>
      <trkpt lat="47.78539407" lon="2.20984267">
        <ele>162.73</ele>
        <time>2025-04-08T12:06:18.000Z</time>
      </trkpt>
      <trkpt lat="47.78545953" lon="2.20995284">
        <ele>161.51</ele>
        <time>2025-04-08T12:06:26.000Z</time>
      </trkpt>
      <trkpt lat="47.78553217" lon="2.21004378">
        <ele>161.57</ele>
        <time>2025-04-08T12:06:34.000Z</time>
      </trkpt>
      <trkpt lat="47.78560555" lon="2.21012253">
        <ele>161.99</ele>
        <time>2025-04-08T12:06:42.000Z</time>
      </trkpt>
      <trkpt lat="47.78567609" lon="2.21020705">
        <ele>162.51</ele>
        <time>2025-04-08T12:06:53.000Z</time>
      </trkpt>
      <trkpt lat="47.78574504" lon="2.21031156">
        <ele>159.86</ele>
        <time>2025-04-08T12:07:07.000Z</time>
      </trkpt>
      <trkpt lat="47.78582414" lon="2.21037896">
        <ele>160.04</ele>
        <time>2025-04-08T12:07:36.000Z</time>
      </trkpt>
      <trkpt lat="47.78588573" lon="2.21049733">
        <ele>159.96</ele>
        <time>2025-04-08T12:07:45.000Z</time>
      </trkpt>
      <trkpt lat="47.78596715" lon="2.21058178">
        <ele>160.18</ele>
        <time>2025-04-08T12:07:54.000Z</time>
      </trkpt>
      <trkpt lat="47.78603594" lon="2.2106821">
        <ele>160.98</ele>
        <time>2025-04-08T12:08:03.000Z</time>
      </trkpt>
      <trkpt lat="47.78608998" lon="2.21079997">
        <ele>161.3</ele>
        <time>2025-04-08T12:08:10.000Z</time>
      </trkpt>
      <trkpt lat="47.78616746" lon="2.21088597">
        <ele>161.33</ele>
        <time>2025-04-08T12:08:18.000Z</time>
      </trkpt>
      <trkpt lat="47.78623772" lon="2.21098605">
        <ele>160.98</ele>
        <time>2025-04-08T12:08:32.000Z</time>
      </trkpt>
      <trkpt lat="47.78630656" lon="2.21107671">
        <ele>160.7</ele>
        <time>2025-04-08T12:08:50.000Z</time>
      </trkpt>
      <trkpt lat="47.78639152" lon="2.21115995">
        <ele>159.57</ele>
        <time>2025-04-08T12:08:59.000Z</time>
      </trkpt>
      <trkpt lat="47.78646632" lon="2.2112446">
        <ele>160.41</ele>
        <time>2025-04-08T12:09:06.000Z</time>
      </trkpt>
      <trkpt lat="47.78652617" lon="2.21135215">
        <ele>160.77</ele>
        <time>2025-04-08T12:09:13.000Z</time>
      </trkpt>
      <trkpt lat="47.78659744" lon="2.21145133">
        <ele>160.13</ele>
        <time>2025-04-08T12:09:21.000Z</time>
      </trkpt>
      <trkpt lat="47.78666406" lon="2.21156557">
        <ele>161.14</ele>
        <time>2025-04-08T12:09:30.000Z</time>
      </trkpt>
      <trkpt lat="47.78672507" lon="2.21167172">
        <ele>160.2</ele>
        <time>2025-04-08T12:09:38.000Z</time>
      </trkpt>
      <trkpt lat="47.78679441" lon="2.2117757">
        <ele>159.65</ele>
        <time>2025-04-08T12:09:47.000Z</time>
      </trkpt>
      <trkpt lat="47.78683839" lon="2.21189838">
        <ele>159.85</ele>
        <time>2025-04-08T12:09:55.000Z</time>
      </trkpt>
      <trkpt lat="47.786888" lon="2.21203005">
        <ele>160.73</ele>
        <time>2025-04-08T12:10:03.000Z</time>
      </trkpt>
      <trkpt lat="47.78692769" lon="2.21215322">
        <ele>160.94</ele>
        <time>2025-04-08T12:10:10.000Z</time>
      </trkpt>
      <trkpt lat="47.78698119" lon="2.21227435">
        <ele>160.01</ele>
        <time>2025-04-08T12:10:18.000Z</time>
      </trkpt>
      <trkpt lat="47.78701925" lon="2.21240835">
        <ele>162.14</ele>
        <time>2025-04-08T12:10:41.000Z</time>
      </trkpt>
      <trkpt lat="47.78706003" lon="2.21254145">
        <ele>162.05</ele>
        <time>2025-04-08T12:10:51.000Z</time>
      </trkpt>
      <trkpt lat="47.78709171" lon="2.21266724">
        <ele>160.4</ele>
        <time>2025-04-08T12:11:00.000Z</time>
      </trkpt>
      <trkpt lat="47.78713968" lon="2.21279317">
        <ele>160.28</ele>
        <time>2025-04-08T12:11:09.000Z</time>
      </trkpt>
      <trkpt lat="47.78718061" lon="2.21292096">
        <ele>159.73</ele>
        <time>2025-04-08T12:11:18.000Z</time>
      </trkpt>
      <trkpt lat="47.78723281" lon="2.21304114">
        <ele>156.99</ele>
        <time>2025-04-08T12:11:29.000Z</time>
      </trkpt>
      <trkpt lat="47.78728113" lon="2.21316257">
        <ele>157.94</ele>
        <time>2025-04-08T12:11:37.000Z</time>
      </trkpt>
      <trkpt lat="47.78731862" lon="2.21329245">
        <ele>158.33</ele>
        <time>2025-04-08T12:11:44.000Z</time>
      </trkpt>
      <trkpt lat="47.78736279" lon="2.2134278">
        <ele>157.53</ele>
        <time>2025-04-08T12:11:52.000Z</time>
      </trkpt>
      <trkpt lat="47.78740567" lon="2.21355859">
        <ele>158.42</ele>
        <time>2025-04-08T12:12:01.000Z</time>
      </trkpt>
      <trkpt lat="47.78745319" lon="2.21368291">
        <ele>158.99</ele>
        <time>2025-04-08T12:12:09.000Z</time>
      </trkpt>
      <trkpt lat="47.78748962" lon="2.21380803">
        <ele>160.42</ele>
        <time>2025-04-08T12:12:16.000Z</time>
      </trkpt>
      <trkpt lat="47.7875333" lon="2.2139347">
        <ele>157.11</ele>
        <time>2025-04-08T12:12:25.000Z</time>
      </trkpt>
      <trkpt lat="47.78758945" lon="2.21404527">
        <ele>156.56</ele>
        <time>2025-04-08T12:12:33.000Z</time>
      </trkpt>
      <trkpt lat="47.78766249" lon="2.21414492">
        <ele>157.32</ele>
        <time>2025-04-08T12:12:40.000Z</time>
      </trkpt>
      <trkpt lat="47.78774222" lon="2.21420739">
        <ele>156.74</ele>
        <time>2025-04-08T12:12:47.000Z</time>
      </trkpt>
      <trkpt lat="47.78783713" lon="2.2142297">
        <ele>155.59</ele>
        <time>2025-04-08T12:12:55.000Z</time>
      </trkpt>
      <trkpt lat="47.78792774" lon="2.21428834">
        <ele>156.25</ele>
        <time>2025-04-08T12:13:04.000Z</time>
      </trkpt>
      <trkpt lat="47.78801651" lon="2.21432078">
        <ele>157.66</ele>
        <time>2025-04-08T12:13:12.000Z</time>
      </trkpt>
      <trkpt lat="47.78810744" lon="2.21435436">
        <ele>160.03</ele>
        <time>2025-04-08T12:13:23.000Z</time>
      </trkpt>
      <trkpt lat="47.78820254" lon="2.21440816">
        <ele>160.73</ele>
        <time>2025-04-08T12:13:32.000Z</time>
      </trkpt>
      <trkpt lat="47.78828883" lon="2.21444992">
        <ele>160.04</ele>
        <time>2025-04-08T12:13:40.000Z</time>
      </trkpt>
      <trkpt lat="47.78837248" lon="2.21450567">
        <ele>159.36</ele>
        <time>2025-04-08T12:13:49.000Z</time>
      </trkpt>
      <trkpt lat="47.78846166" lon="2.21454707">
        <ele>161.38</ele>
        <time>2025-04-08T12:13:57.000Z</time>
      </trkpt>
      <trkpt lat="47.78854126" lon="2.21461544">
        <ele>161.95</ele>
        <time>2025-04-08T12:14:04.000Z</time>
      </trkpt>
      <trkpt lat="47.78862414" lon="2.21468974">
        <ele>161.13</ele>
        <time>2025-04-08T12:14:13.000Z</time>
      </trkpt>
      <trkpt lat="47.78871013" lon="2.21475948">
        <ele>161.22</ele>
        <time>2025-04-08T12:14:21.000Z</time>
      </trkpt>
      <trkpt lat="47.78878832" lon="2.21483933">
        <ele>159.82</ele>
        <time>2025-04-08T12:14:27.000Z</time>
      </trkpt>
      <trkpt lat="47.78885845" lon="2.21493676">
        <ele>160.25</ele>
        <time>2025-04-08T12:14:35.000Z</time>
      </trkpt>
      <trkpt lat="47.78892705" lon="2.21502665">
        <ele>160.1</ele>
        <time>2025-04-08T12:14:43.000Z</time>
      </trkpt>
      <trkpt lat="47.78899229" lon="2.21513304">
        <ele>160.97</ele>
        <time>2025-04-08T12:14:50.000Z</time>
      </trkpt>
      <trkpt lat="47.78906028" lon="2.21522741">
        <ele>162.29</ele>
        <time>2025-04-08T12:14:58.000Z</time>
      </trkpt>
      <trkpt lat="47.78913529" lon="2.21532406">
        <ele>161.21</ele>
        <time>2025-04-08T12:15:07.000Z</time>
      </trkpt>
      <trkpt lat="47.78919906" lon="2.21543265">
        <ele>160.3</ele>
        <time>2025-04-08T12:15:15.000Z</time>
      </trkpt>
      <trkpt lat="47.78926425" lon="2.21553331">
        <ele>159.32</ele>
        <time>2025-04-08T12:15:24.000Z</time>
      </trkpt>
      <trkpt lat="47.78934074" lon="2.21561245">
        <ele>158.04</ele>
        <time>2025-04-08T12:15:32.000Z</time>
      </trkpt>
      <trkpt lat="47.78941811" lon="2.21568866">
        <ele>157.64</ele>
        <time>2025-04-08T12:15:39.000Z</time>
      </trkpt>
      <trkpt lat="47.78948753" lon="2.21578677">
        <ele>157.18</ele>
        <time>2025-04-08T12:15:47.000Z</time>
      </trkpt>
      <trkpt lat="47.78955912" lon="2.21586756">
        <ele>158.22</ele>
        <time>2025-04-08T12:15:54.000Z</time>
      </trkpt>
      <trkpt lat="47.78962305" lon="2.21596982">
        <ele>157.99</ele>
        <time>2025-04-08T12:16:01.000Z</time>
      </trkpt>
      <trkpt lat="47.7896929" lon="2.2160668">
        <ele>157.61</ele>
        <time>2025-04-08T12:16:10.000Z</time>
      </trkpt>
      <trkpt lat="47.78976155" lon="2.21617617">
        <ele>158.38</ele>
        <time>2025-04-08T12:16:18.000Z</time>
      </trkpt>
      <trkpt lat="47.78982093" lon="2.21628166">
        <ele>157.78</ele>
        <time>2025-04-08T12:16:26.000Z</time>
      </trkpt>
      <trkpt lat="47.78988378" lon="2.21639142">
        <ele>157.96</ele>
        <time>2025-04-08T12:16:35.000Z</time>
      </trkpt>
      <trkpt lat="47.78994169" lon="2.21650722">
        <ele>157.49</ele>
        <time>2025-04-08T12:16:43.000Z</time>
      </trkpt>
      <trkpt lat="47.78999383" lon="2.21662468">
        <ele>157.31</ele>
        <time>2025-04-08T12:16:52.000Z</time>
      </trkpt>
      <trkpt lat="47.7900527" lon="2.21674641">
        <ele>156.75</ele>
        <time>2025-04-08T12:17:00.000Z</time>
      </trkpt>
      <trkpt lat="47.79009979" lon="2.21686963">
        <ele>155.75</ele>
        <time>2025-04-08T12:17:09.000Z</time>
      </trkpt>
      <trkpt lat="47.79015048" lon="2.21698425">
        <ele>154.77</ele>
        <time>2025-04-08T12:17:17.000Z</time>
      </trkpt>
      <trkpt lat="47.7901963" lon="2.21711825">
        <ele>155.19</ele>
        <time>2025-04-08T12:17:25.000Z</time>
      </trkpt>
      <trkpt lat="47.79023047" lon="2.21724816">
        <ele>155.02</ele>
        <time>2025-04-08T12:17:34.000Z</time>
      </trkpt>
      <trkpt lat="47.7902789" lon="2.21736102">
        <ele>155.18</ele>
        <time>2025-04-08T12:17:42.000Z</time>
      </trkpt>
      <trkpt lat="47.79032501" lon="2.21748383">
        <ele>155.01</ele>
        <time>2025-04-08T12:17:50.000Z</time>
      </trkpt>
      <trkpt lat="47.79036823" lon="2.21761026">
        <ele>154.65</ele>
        <time>2025-04-08T12:17:58.000Z</time>
      </trkpt>
      <trkpt lat="47.79042199" lon="2.21773909">
        <ele>155.01</ele>
        <time>2025-04-08T12:18:06.000Z</time>
      </trkpt>
      <trkpt lat="47.79047678" lon="2.21785517">
        <ele>154.26</ele>
        <time>2025-04-08T12:18:15.000Z</time>
      </trkpt>
      <trkpt lat="47.79052916" lon="2.21796701">
        <ele>153.25</ele>
        <time>2025-04-08T12:18:23.000Z</time>
      </trkpt>
      <trkpt lat="47.79057779" lon="2.21809446">
        <ele>154.18</ele>
        <time>2025-04-08T12:18:31.000Z</time>
      </trkpt>
      <trkpt lat="47.7906296" lon="2.21821336">
        <ele>154.43</ele>
        <time>2025-04-08T12:18:39.000Z</time>
      </trkpt>
      <trkpt lat="47.79068587" lon="2.21832303">
        <ele>154.29</ele>
        <time>2025-04-08T12:18:47.000Z</time>
      </trkpt>
      <trkpt lat="47.79075557" lon="2.2184249">
        <ele>153.61</ele>
        <time>2025-04-08T12:18:56.000Z</time>
      </trkpt>
      <trkpt lat="47.79083429" lon="2.21851553">
        <ele>153.18</ele>
        <time>2025-04-08T12:19:05.000Z</time>
      </trkpt>
      <trkpt lat="47.79090613" lon="2.21860921">
        <ele>154.01</ele>
        <time>2025-04-08T12:19:13.000Z</time>
      </trkpt>
      <trkpt lat="47.790988" lon="2.21867749">
        <ele>152.09</ele>
        <time>2025-04-08T12:19:22.000Z</time>
      </trkpt>
      <trkpt lat="47.79107317" lon="2.21874497">
        <ele>153.93</ele>
        <time>2025-04-08T12:19:30.000Z</time>
      </trkpt>
      <trkpt lat="47.79116085" lon="2.21881238">
        <ele>154.97</ele>
        <time>2025-04-08T12:19:37.000Z</time>
      </trkpt>
      <trkpt lat="47.79124404" lon="2.21886366">
        <ele>154</ele>
        <time>2025-04-08T12:19:44.000Z</time>
      </trkpt>
      <trkpt lat="47.79132965" lon="2.2189293">
        <ele>155.05</ele>
        <time>2025-04-08T12:19:53.000Z</time>
      </trkpt>
      <trkpt lat="47.79141952" lon="2.21897039">
        <ele>156.5</ele>
        <time>2025-04-08T12:20:01.000Z</time>
      </trkpt>
      <trkpt lat="47.79151431" lon="2.21902522">
        <ele>157.33</ele>
        <time>2025-04-08T12:20:09.000Z</time>
      </trkpt>
      <trkpt lat="47.79160196" lon="2.21906665">
        <ele>156.74</ele>
        <time>2025-04-08T12:20:16.000Z</time>
      </trkpt>
      <trkpt lat="47.79168961" lon="2.21910828">
        <ele>158.56</ele>
        <time>2025-04-08T12:20:24.000Z</time>
      </trkpt>
      <trkpt lat="47.79178309" lon="2.21914642">
        <ele>158.78</ele>
        <time>2025-04-08T12:20:33.000Z</time>
      </trkpt>
      <trkpt lat="47.79187177" lon="2.21917934">
        <ele>158.18</ele>
        <time>2025-04-08T12:20:40.000Z</time>
      </trkpt>
      <trkpt lat="47.79196426" lon="2.21919493">
        <ele>156.84</ele>
        <time>2025-04-08T12:20:47.000Z</time>
      </trkpt>
      <trkpt lat="47.79205396" lon="2.21921021">
        <ele>157.26</ele>
        <time>2025-04-08T12:20:55.000Z</time>
      </trkpt>
      <trkpt lat="47.79214468" lon="2.21921626">
        <ele>157.15</ele>
        <time>2025-04-08T12:21:03.000Z</time>
      </trkpt>
      <trkpt lat="47.79224338" lon="2.21922108">
        <ele>158.25</ele>
        <time>2025-04-08T12:21:11.000Z</time>
      </trkpt>
      <trkpt lat="47.79233687" lon="2.21923125">
        <ele>160.15</ele>
        <time>2025-04-08T12:21:19.000Z</time>
      </trkpt>
      <trkpt lat="47.79242642" lon="2.21924924">
        <ele>159.73</ele>
        <time>2025-04-08T12:21:28.000Z</time>
      </trkpt>
      <trkpt lat="47.79251635" lon="2.21925459">
        <ele>159.41</ele>
        <time>2025-04-08T12:21:35.000Z</time>
      </trkpt>
      <trkpt lat="47.79261471" lon="2.21925751">
        <ele>158.26</ele>
        <time>2025-04-08T12:21:43.000Z</time>
      </trkpt>
      <trkpt lat="47.79271147" lon="2.21927643">
        <ele>156.62</ele>
        <time>2025-04-08T12:21:52.000Z</time>
      </trkpt>
      <trkpt lat="47.79280506" lon="2.21927887">
        <ele>155.73</ele>
        <time>2025-04-08T12:22:00.000Z</time>
      </trkpt>
      <trkpt lat="47.79289556" lon="2.21928226">
        <ele>155.82</ele>
        <time>2025-04-08T12:22:08.000Z</time>
      </trkpt>
      <trkpt lat="47.79298648" lon="2.21928841">
        <ele>155.68</ele>
        <time>2025-04-08T12:22:17.000Z</time>
      </trkpt>
      <trkpt lat="47.79308476" lon="2.21931361">
        <ele>155.48</ele>
        <time>2025-04-08T12:22:25.000Z</time>
      </trkpt>
      <trkpt lat="47.79317834" lon="2.21932459">
        <ele>155.13</ele>
        <time>2025-04-08T12:22:33.000Z</time>
      </trkpt>
      <trkpt lat="47.79328052" lon="2.21933343">
        <ele>154.33</ele>
        <time>2025-04-08T12:22:44.000Z</time>
      </trkpt>
      <trkpt lat="47.7933746" lon="2.21934213">
        <ele>155.09</ele>
        <time>2025-04-08T12:22:51.000Z</time>
      </trkpt>
      <trkpt lat="47.79346666" lon="2.21935109">
        <ele>155.24</ele>
        <time>2025-04-08T12:22:59.000Z</time>
      </trkpt>
      <trkpt lat="47.7935596" lon="2.21936938">
        <ele>154.33</ele>
        <time>2025-04-08T12:23:08.000Z</time>
      </trkpt>
      <trkpt lat="47.7936485" lon="2.21941572">
        <ele>153.57</ele>
        <time>2025-04-08T12:23:15.000Z</time>
      </trkpt>
      <trkpt lat="47.79373341" lon="2.21947581">
        <ele>151.73</ele>
        <time>2025-04-08T12:23:23.000Z</time>
      </trkpt>
      <trkpt lat="47.79381976" lon="2.21952304">
        <ele>152.42</ele>
        <time>2025-04-08T12:23:32.000Z</time>
      </trkpt>
      <trkpt lat="47.7939066" lon="2.21957703">
        <ele>152.38</ele>
        <time>2025-04-08T12:23:51.000Z</time>
      </trkpt>
      <trkpt lat="47.79393189" lon="2.21944675">
        <ele>153.86</ele>
        <time>2025-04-08T12:25:29.000Z</time>
      </trkpt>
      <trkpt lat="47.79396702" lon="2.21925414">
        <ele>153.24</ele>
        <time>2025-04-08T12:25:41.000Z</time>
      </trkpt>
      <trkpt lat="47.79396976" lon="2.21910292">
        <ele>152</ele>
        <time>2025-04-08T12:25:52.000Z</time>
      </trkpt>
      <trkpt lat="47.79397414" lon="2.21896641">
        <ele>151.69</ele>
        <time>2025-04-08T12:26:00.000Z</time>
      </trkpt>
      <trkpt lat="47.79397565" lon="2.21882335">
        <ele>151.81</ele>
        <time>2025-04-08T12:26:09.000Z</time>
      </trkpt>
      <trkpt lat="47.7939778" lon="2.2186896">
        <ele>151.78</ele>
        <time>2025-04-08T12:26:17.000Z</time>
      </trkpt>
      <trkpt lat="47.79398883" lon="2.21855608">
        <ele>150.7</ele>
        <time>2025-04-08T12:26:25.000Z</time>
      </trkpt>
      <trkpt lat="47.79399349" lon="2.21840885">
        <ele>150</ele>
        <time>2025-04-08T12:26:34.000Z</time>
      </trkpt>
      <trkpt lat="47.79401148" lon="2.21827786">
        <ele>151.44</ele>
        <time>2025-04-08T12:26:42.000Z</time>
      </trkpt>
      <trkpt lat="47.79403189" lon="2.21814019">
        <ele>151.88</ele>
        <time>2025-04-08T12:26:51.000Z</time>
      </trkpt>
      <trkpt lat="47.79405153" lon="2.21800958">
        <ele>153.13</ele>
        <time>2025-04-08T12:27:00.000Z</time>
      </trkpt>
      <trkpt lat="47.79406181" lon="2.2178731">
        <ele>153.88</ele>
        <time>2025-04-08T12:27:09.000Z</time>
      </trkpt>
      <trkpt lat="47.79414527" lon="2.21781235">
        <ele>153.99</ele>
        <time>2025-04-08T12:27:18.000Z</time>
      </trkpt>
      <trkpt lat="47.79423812" lon="2.21781158">
        <ele>153.05</ele>
        <time>2025-04-08T12:27:27.000Z</time>
      </trkpt>
      <trkpt lat="47.79433185" lon="2.21784915">
        <ele>153.96</ele>
        <time>2025-04-08T12:27:36.000Z</time>
      </trkpt>
      <trkpt lat="47.79442688" lon="2.21788397">
        <ele>152.16</ele>
        <time>2025-04-08T12:27:45.000Z</time>
      </trkpt>
      <trkpt lat="47.79451706" lon="2.21792199">
        <ele>151.92</ele>
        <time>2025-04-08T12:27:53.000Z</time>
      </trkpt>
      <trkpt lat="47.79461264" lon="2.21796855">
        <ele>151.06</ele>
        <time>2025-04-08T12:28:01.000Z</time>
      </trkpt>
      <trkpt lat="47.79470712" lon="2.21800711">
        <ele>149.88</ele>
        <time>2025-04-08T12:28:09.000Z</time>
      </trkpt>
      <trkpt lat="47.79480723" lon="2.21804629">
        <ele>149.97</ele>
        <time>2025-04-08T12:28:17.000Z</time>
      </trkpt>
      <trkpt lat="47.79490614" lon="2.21808471">
        <ele>150.06</ele>
        <time>2025-04-08T12:28:25.000Z</time>
      </trkpt>
      <trkpt lat="47.79499727" lon="2.21811505">
        <ele>151.72</ele>
        <time>2025-04-08T12:28:33.000Z</time>
      </trkpt>
      <trkpt lat="47.79509303" lon="2.21813481">
        <ele>152.16</ele>
        <time>2025-04-08T12:28:41.000Z</time>
      </trkpt>
      <trkpt lat="47.79518374" lon="2.21814681">
        <ele>150.06</ele>
        <time>2025-04-08T12:28:48.000Z</time>
      </trkpt>
      <trkpt lat="47.79527443" lon="2.21814453">
        <ele>149.95</ele>
        <time>2025-04-08T12:28:56.000Z</time>
      </trkpt>
      <trkpt lat="47.79531435" lon="2.21802127">
        <ele>148.96</ele>
        <time>2025-04-08T12:29:20.000Z</time>
      </trkpt>
      <trkpt lat="47.79535707" lon="2.21790124">
        <ele>151.87</ele>
        <time>2025-04-08T12:29:32.000Z</time>
      </trkpt>
      <trkpt lat="47.79540548" lon="2.21778853">
        <ele>149.86</ele>
        <time>2025-04-08T12:29:41.000Z</time>
      </trkpt>
      <trkpt lat="47.7954191" lon="2.21765008">
        <ele>148.73</ele>
        <time>2025-04-08T12:29:50.000Z</time>
      </trkpt>
      <trkpt lat="47.79545474" lon="2.21752329">
        <ele>145.3</ele>
        <time>2025-04-08T12:30:08.000Z</time>
      </trkpt>
      <trkpt lat="47.79549806" lon="2.21740261">
        <ele>142.96</ele>
        <time>2025-04-08T12:30:16.000Z</time>
      </trkpt>
      <trkpt lat="47.79552025" lon="2.21727102">
        <ele>146.02</ele>
        <time>2025-04-08T12:30:25.000Z</time>
      </trkpt>
      <trkpt lat="47.79556998" lon="2.21714027">
        <ele>148.78</ele>
        <time>2025-04-08T12:30:33.000Z</time>
      </trkpt>
      <trkpt lat="47.79562506" lon="2.21701769">
        <ele>145.62</ele>
        <time>2025-04-08T12:30:43.000Z</time>
      </trkpt>
      <trkpt lat="47.79565462" lon="2.21688591">
        <ele>146.85</ele>
        <time>2025-04-08T12:30:51.000Z</time>
      </trkpt>
      <trkpt lat="47.79570053" lon="2.21677064">
        <ele>151.76</ele>
        <time>2025-04-08T12:30:58.000Z</time>
      </trkpt>
      <trkpt lat="47.79574606" lon="2.21664634">
        <ele>153.48</ele>
        <time>2025-04-08T12:31:07.000Z</time>
      </trkpt>
      <trkpt lat="47.79578481" lon="2.21651334">
        <ele>155.36</ele>
        <time>2025-04-08T12:31:15.000Z</time>
      </trkpt>
      <trkpt lat="47.79582687" lon="2.2163884">
        <ele>158.28</ele>
        <time>2025-04-08T12:31:23.000Z</time>
      </trkpt>
      <trkpt lat="47.79586564" lon="2.2162594">
        <ele>157.5</ele>
        <time>2025-04-08T12:31:32.000Z</time>
      </trkpt>
      <trkpt lat="47.79589689" lon="2.2161238">
        <ele>154.28</ele>
        <time>2025-04-08T12:31:40.000Z</time>
      </trkpt>
      <trkpt lat="47.7959445" lon="2.21600176">
        <ele>152.58</ele>
        <time>2025-04-08T12:31:49.000Z</time>
      </trkpt>
      <trkpt lat="47.79597673" lon="2.21587185">
        <ele>153.64</ele>
        <time>2025-04-08T12:31:56.000Z</time>
      </trkpt>
      <trkpt lat="47.79602015" lon="2.21574598">
        <ele>152.15</ele>
        <time>2025-04-08T12:32:05.000Z</time>
      </trkpt>
      <trkpt lat="47.79605471" lon="2.21561512">
        <ele>154.02</ele>
        <time>2025-04-08T12:32:13.000Z</time>
      </trkpt>
      <trkpt lat="47.79610904" lon="2.21548616">
        <ele>156.44</ele>
        <time>2025-04-08T12:32:21.000Z</time>
      </trkpt>
      <trkpt lat="47.79616253" lon="2.21535759">
        <ele>158.23</ele>
        <time>2025-04-08T12:32:29.000Z</time>
      </trkpt>
      <trkpt lat="47.79621168" lon="2.215227">
        <ele>158.54</ele>
        <time>2025-04-08T12:32:37.000Z</time>
      </trkpt>
      <trkpt lat="47.79625822" lon="2.21510702">
        <ele>157.69</ele>
        <time>2025-04-08T12:32:45.000Z</time>
      </trkpt>
      <trkpt lat="47.79630495" lon="2.214975">
        <ele>155.78</ele>
        <time>2025-04-08T12:32:55.000Z</time>
      </trkpt>
      <trkpt lat="47.7963446" lon="2.21483924">
        <ele>156.83</ele>
        <time>2025-04-08T12:33:14.000Z</time>
      </trkpt>
      <trkpt lat="47.79640299" lon="2.21472974">
        <ele>156.07</ele>
        <time>2025-04-08T12:33:23.000Z</time>
      </trkpt>
      <trkpt lat="47.79644996" lon="2.21460898">
        <ele>154.93</ele>
        <time>2025-04-08T12:33:32.000Z</time>
      </trkpt>
      <trkpt lat="47.79649248" lon="2.21449126">
        <ele>154.41</ele>
        <time>2025-04-08T12:33:39.000Z</time>
      </trkpt>
      <trkpt lat="47.796538" lon="2.21436685">
        <ele>152.19</ele>
        <time>2025-04-08T12:33:48.000Z</time>
      </trkpt>
      <trkpt lat="47.79657665" lon="2.21424523">
        <ele>151.74</ele>
        <time>2025-04-08T12:33:55.000Z</time>
      </trkpt>
      <trkpt lat="47.79662293" lon="2.21412835">
        <ele>149.56</ele>
        <time>2025-04-08T12:34:04.000Z</time>
      </trkpt>
      <trkpt lat="47.79668171" lon="2.21401711">
        <ele>150.51</ele>
        <time>2025-04-08T12:34:14.000Z</time>
      </trkpt>
      <trkpt lat="47.79675164" lon="2.21392181">
        <ele>151.8</ele>
        <time>2025-04-08T12:34:23.000Z</time>
      </trkpt>
      <trkpt lat="47.79681312" lon="2.21382396">
        <ele>152.82</ele>
        <time>2025-04-08T12:34:32.000Z</time>
      </trkpt>
      <trkpt lat="47.79687216" lon="2.21371241">
        <ele>152.79</ele>
        <time>2025-04-08T12:34:41.000Z</time>
      </trkpt>
      <trkpt lat="47.79692442" lon="2.21358658">
        <ele>151.43</ele>
        <time>2025-04-08T12:34:50.000Z</time>
      </trkpt>
      <trkpt lat="47.79697058" lon="2.21347168">
        <ele>152.63</ele>
        <time>2025-04-08T12:34:58.000Z</time>
      </trkpt>
      <trkpt lat="47.79701405" lon="2.21334133">
        <ele>151.47</ele>
        <time>2025-04-08T12:35:07.000Z</time>
      </trkpt>
      <trkpt lat="47.79706812" lon="2.21321675">
        <ele>151.82</ele>
        <time>2025-04-08T12:35:16.000Z</time>
      </trkpt>
      <trkpt lat="47.79710101" lon="2.2130732">
        <ele>150.61</ele>
        <time>2025-04-08T12:35:25.000Z</time>
      </trkpt>
      <trkpt lat="47.79711095" lon="2.21292784">
        <ele>150.49</ele>
        <time>2025-04-08T12:35:34.000Z</time>
      </trkpt>
      <trkpt lat="47.79711501" lon="2.21279118">
        <ele>151.79</ele>
        <time>2025-04-08T12:35:43.000Z</time>
      </trkpt>
      <trkpt lat="47.79710134" lon="2.21265617">
        <ele>151.31</ele>
        <time>2025-04-08T12:36:18.000Z</time>
      </trkpt>
      <trkpt lat="47.7970785" lon="2.21252373">
        <ele>152.03</ele>
        <time>2025-04-08T12:36:28.000Z</time>
      </trkpt>
      <trkpt lat="47.79706255" lon="2.21238567">
        <ele>150.85</ele>
        <time>2025-04-08T12:36:35.000Z</time>
      </trkpt>
      <trkpt lat="47.79702509" lon="2.21226366">
        <ele>153.91</ele>
        <time>2025-04-08T12:36:43.000Z</time>
      </trkpt>
      <trkpt lat="47.79700641" lon="2.21212971">
        <ele>152.8</ele>
        <time>2025-04-08T12:36:55.000Z</time>
      </trkpt>
      <trkpt lat="47.7969729" lon="2.21199691">
        <ele>154.49</ele>
        <time>2025-04-08T12:37:05.000Z</time>
      </trkpt>
      <trkpt lat="47.79694058" lon="2.21186465">
        <ele>151.41</ele>
        <time>2025-04-08T12:37:29.000Z</time>
      </trkpt>
      <trkpt lat="47.79692108" lon="2.21172223">
        <ele>148.57</ele>
        <time>2025-04-08T12:37:38.000Z</time>
      </trkpt>
      <trkpt lat="47.79693264" lon="2.21158085">
        <ele>147.73</ele>
        <time>2025-04-08T12:37:48.000Z</time>
      </trkpt>
      <trkpt lat="47.79695146" lon="2.21144477">
        <ele>148.82</ele>
        <time>2025-04-08T12:37:55.000Z</time>
      </trkpt>
      <trkpt lat="47.79696278" lon="2.21129933">
        <ele>147.03</ele>
        <time>2025-04-08T12:38:04.000Z</time>
      </trkpt>
      <trkpt lat="47.79696425" lon="2.21114918">
        <ele>148.36</ele>
        <time>2025-04-08T12:38:13.000Z</time>
      </trkpt>
      <trkpt lat="47.79697664" lon="2.21100809">
        <ele>149.04</ele>
        <time>2025-04-08T12:38:22.000Z</time>
      </trkpt>
      <trkpt lat="47.79697175" lon="2.21086272">
        <ele>151.4</ele>
        <time>2025-04-08T12:38:31.000Z</time>
      </trkpt>
      <trkpt lat="47.79696678" lon="2.21072742">
        <ele>151.34</ele>
        <time>2025-04-08T12:38:39.000Z</time>
      </trkpt>
      <trkpt lat="47.79695782" lon="2.21059058">
        <ele>152.89</ele>
        <time>2025-04-08T12:38:48.000Z</time>
      </trkpt>
      <trkpt lat="47.79694656" lon="2.21044548">
        <ele>152.13</ele>
        <time>2025-04-08T12:38:55.000Z</time>
      </trkpt>
      <trkpt lat="47.79694642" lon="2.21030659">
        <ele>150.64</ele>
        <time>2025-04-08T12:39:04.000Z</time>
      </trkpt>
      <trkpt lat="47.79694663" lon="2.21017037">
        <ele>152.31</ele>
        <time>2025-04-08T12:39:50.000Z</time>
      </trkpt>
      <trkpt lat="47.79694341" lon="2.21003384">
        <ele>150.43</ele>
        <time>2025-04-08T12:39:59.000Z</time>
      </trkpt>
      <trkpt lat="47.796961" lon="2.20988805">
        <ele>153.43</ele>
        <time>2025-04-08T12:40:09.000Z</time>
      </trkpt>
      <trkpt lat="47.7969842" lon="2.20974872">
        <ele>153.63</ele>
        <time>2025-04-08T12:40:16.000Z</time>
      </trkpt>
      <trkpt lat="47.79700766" lon="2.20960674">
        <ele>154.34</ele>
        <time>2025-04-08T12:40:23.000Z</time>
      </trkpt>
      <trkpt lat="47.79701226" lon="2.20945383">
        <ele>154.45</ele>
        <time>2025-04-08T12:40:31.000Z</time>
      </trkpt>
      <trkpt lat="47.79700495" lon="2.20930797">
        <ele>153.03</ele>
        <time>2025-04-08T12:40:39.000Z</time>
      </trkpt>
      <trkpt lat="47.79699426" lon="2.20915853">
        <ele>154.3</ele>
        <time>2025-04-08T12:40:47.000Z</time>
      </trkpt>
      <trkpt lat="47.79698762" lon="2.20901727">
        <ele>153.41</ele>
        <time>2025-04-08T12:40:55.000Z</time>
      </trkpt>
      <trkpt lat="47.79698141" lon="2.20887388">
        <ele>153.16</ele>
        <time>2025-04-08T12:41:05.000Z</time>
      </trkpt>
      <trkpt lat="47.79695298" lon="2.20873646">
        <ele>153.87</ele>
        <time>2025-04-08T12:41:13.000Z</time>
      </trkpt>
      <trkpt lat="47.79693964" lon="2.20859686">
        <ele>153.31</ele>
        <time>2025-04-08T12:41:20.000Z</time>
      </trkpt>
      <trkpt lat="47.79690996" lon="2.20846106">
        <ele>149.93</ele>
        <time>2025-04-08T12:41:27.000Z</time>
      </trkpt>
      <trkpt lat="47.79687219" lon="2.208329">
        <ele>150.56</ele>
        <time>2025-04-08T12:41:35.000Z</time>
      </trkpt>
      <trkpt lat="47.79686203" lon="2.2081827">
        <ele>150</ele>
        <time>2025-04-08T12:41:43.000Z</time>
      </trkpt>
      <trkpt lat="47.7968599" lon="2.20804226">
        <ele>150.96</ele>
        <time>2025-04-08T12:41:52.000Z</time>
      </trkpt>
      <trkpt lat="47.79684782" lon="2.20790747">
        <ele>149.92</ele>
        <time>2025-04-08T12:42:00.000Z</time>
      </trkpt>
      <trkpt lat="47.79683195" lon="2.2077682">
        <ele>151.23</ele>
        <time>2025-04-08T12:42:09.000Z</time>
      </trkpt>
      <trkpt lat="47.79682424" lon="2.20763158">
        <ele>152.21</ele>
        <time>2025-04-08T12:42:18.000Z</time>
      </trkpt>
      <trkpt lat="47.79680155" lon="2.20748599">
        <ele>153.53</ele>
        <time>2025-04-08T12:42:29.000Z</time>
      </trkpt>
      <trkpt lat="47.79676352" lon="2.20734607">
        <ele>153.72</ele>
        <time>2025-04-08T12:42:38.000Z</time>
      </trkpt>
      <trkpt lat="47.79670805" lon="2.2072298">
        <ele>153.7</ele>
        <time>2025-04-08T12:42:49.000Z</time>
      </trkpt>
      <trkpt lat="47.79665701" lon="2.20711455">
        <ele>152.95</ele>
        <time>2025-04-08T12:42:58.000Z</time>
      </trkpt>
      <trkpt lat="47.79662794" lon="2.20697098">
        <ele>154.15</ele>
        <time>2025-04-08T12:43:06.000Z</time>
      </trkpt>
      <trkpt lat="47.79662641" lon="2.20683524">
        <ele>154.21</ele>
        <time>2025-04-08T12:43:15.000Z</time>
      </trkpt>
      <trkpt lat="47.79661942" lon="2.20669625">
        <ele>156.07</ele>
        <time>2025-04-08T12:43:23.000Z</time>
      </trkpt>
      <trkpt lat="47.79660707" lon="2.20654871">
        <ele>158.36</ele>
        <time>2025-04-08T12:43:33.000Z</time>
      </trkpt>
      <trkpt lat="47.79660566" lon="2.20640178">
        <ele>157.53</ele>
        <time>2025-04-08T12:43:41.000Z</time>
      </trkpt>
      <trkpt lat="47.79659789" lon="2.20625986">
        <ele>156.69</ele>
        <time>2025-04-08T12:43:49.000Z</time>
      </trkpt>
      <trkpt lat="47.79660099" lon="2.2061187">
        <ele>155.7</ele>
        <time>2025-04-08T12:43:57.000Z</time>
      </trkpt>
      <trkpt lat="47.79659693" lon="2.20597347">
        <ele>156.64</ele>
        <time>2025-04-08T12:44:07.000Z</time>
      </trkpt>
      <trkpt lat="47.79658142" lon="2.20583198">
        <ele>158.56</ele>
        <time>2025-04-08T12:44:15.000Z</time>
      </trkpt>
      <trkpt lat="47.79656766" lon="2.20569303">
        <ele>161.35</ele>
        <time>2025-04-08T12:44:24.000Z</time>
      </trkpt>
      <trkpt lat="47.79656576" lon="2.20554413">
        <ele>161</ele>
        <time>2025-04-08T12:44:33.000Z</time>
      </trkpt>
      <trkpt lat="47.79654307" lon="2.20540492">
        <ele>165.09</ele>
        <time>2025-04-08T12:44:41.000Z</time>
      </trkpt>
      <trkpt lat="47.79651576" lon="2.2052724">
        <ele>159.74</ele>
        <time>2025-04-08T12:44:49.000Z</time>
      </trkpt>
      <trkpt lat="47.79648932" lon="2.20512847">
        <ele>156.96</ele>
        <time>2025-04-08T12:44:58.000Z</time>
      </trkpt>
      <trkpt lat="47.79647471" lon="2.20499049">
        <ele>154.06</ele>
        <time>2025-04-08T12:45:06.000Z</time>
      </trkpt>
      <trkpt lat="47.79644117" lon="2.20486051">
        <ele>154.19</ele>
        <time>2025-04-08T12:45:13.000Z</time>
      </trkpt>
      <trkpt lat="47.79640425" lon="2.2047216">
        <ele>154.55</ele>
        <time>2025-04-08T12:45:22.000Z</time>
      </trkpt>
      <trkpt lat="47.79636936" lon="2.20459548">
        <ele>154.82</ele>
        <time>2025-04-08T12:45:29.000Z</time>
      </trkpt>
      <trkpt lat="47.79632756" lon="2.20446107">
        <ele>154.81</ele>
        <time>2025-04-08T12:45:38.000Z</time>
      </trkpt>
      <trkpt lat="47.79629504" lon="2.20431715">
        <ele>152.69</ele>
        <time>2025-04-08T12:45:46.000Z</time>
      </trkpt>
      <trkpt lat="47.79624121" lon="2.204195">
        <ele>152.93</ele>
        <time>2025-04-08T12:45:54.000Z</time>
      </trkpt>
      <trkpt lat="47.79619161" lon="2.20406486">
        <ele>152.54</ele>
        <time>2025-04-08T12:46:03.000Z</time>
      </trkpt>
      <trkpt lat="47.79618316" lon="2.20392153">
        <ele>151.18</ele>
        <time>2025-04-08T12:46:14.000Z</time>
      </trkpt>
      <trkpt lat="47.79615036" lon="2.20379478">
        <ele>148.11</ele>
        <time>2025-04-08T12:46:23.000Z</time>
      </trkpt>
      <trkpt lat="47.79612218" lon="2.20366356">
        <ele>149.02</ele>
        <time>2025-04-08T12:46:30.000Z</time>
      </trkpt>
      <trkpt lat="47.79609981" lon="2.20353298">
        <ele>149.92</ele>
        <time>2025-04-08T12:46:37.000Z</time>
      </trkpt>
      <trkpt lat="47.79607997" lon="2.2033962">
        <ele>149.13</ele>
        <time>2025-04-08T12:46:46.000Z</time>
      </trkpt>
      <trkpt lat="47.79605942" lon="2.20326006">
        <ele>149.66</ele>
        <time>2025-04-08T12:46:54.000Z</time>
      </trkpt>
      <trkpt lat="47.7960484" lon="2.20311882">
        <ele>149.98</ele>
        <time>2025-04-08T12:47:03.000Z</time>
      </trkpt>
      <trkpt lat="47.79604182" lon="2.20297121">
        <ele>152.15</ele>
        <time>2025-04-08T12:47:11.000Z</time>
      </trkpt>
      <trkpt lat="47.79603564" lon="2.20283131">
        <ele>151.51</ele>
        <time>2025-04-08T12:47:20.000Z</time>
      </trkpt>
      <trkpt lat="47.79602557" lon="2.20268385">
        <ele>150.82</ele>
        <time>2025-04-08T12:47:28.000Z</time>
      </trkpt>
      <trkpt lat="47.79600797" lon="2.20254421">
        <ele>150.76</ele>
        <time>2025-04-08T12:47:37.000Z</time>
      </trkpt>
      <trkpt lat="47.79598997" lon="2.2023957">
        <ele>152.32</ele>
        <time>2025-04-08T12:47:45.000Z</time>
      </trkpt>
      <trkpt lat="47.7959578" lon="2.20225591">
        <ele>151.4</ele>
        <time>2025-04-08T12:47:53.000Z</time>
      </trkpt>
      <trkpt lat="47.79594819" lon="2.20211383">
        <ele>151.9</ele>
        <time>2025-04-08T12:48:02.000Z</time>
      </trkpt>
      <trkpt lat="47.79593989" lon="2.20196812">
        <ele>151.18</ele>
        <time>2025-04-08T12:48:10.000Z</time>
      </trkpt>
      <trkpt lat="47.7959308" lon="2.20183522">
        <ele>151.88</ele>
        <time>2025-04-08T12:48:18.000Z</time>
      </trkpt>
      <trkpt lat="47.79591208" lon="2.20169257">
        <ele>151.57</ele>
        <time>2025-04-08T12:48:26.000Z</time>
      </trkpt>
      <trkpt lat="47.79590117" lon="2.20154749">
        <ele>151.07</ele>
        <time>2025-04-08T12:48:39.000Z</time>
      </trkpt>
      <trkpt lat="47.79585939" lon="2.20142785">
        <ele>151.82</ele>
        <time>2025-04-08T12:49:29.000Z</time>
      </trkpt>
      <trkpt lat="47.79601263" lon="2.20145063">
        <ele>152.91</ele>
        <time>2025-04-08T12:50:38.000Z</time>
      </trkpt>
      <trkpt lat="47.79610454" lon="2.20150201">
        <ele>152.84</ele>
        <time>2025-04-08T12:50:47.000Z</time>
      </trkpt>
      <trkpt lat="47.79619543" lon="2.20153603">
        <ele>154.85</ele>
        <time>2025-04-08T12:50:58.000Z</time>
      </trkpt>
      <trkpt lat="47.79629601" lon="2.20154415">
        <ele>155.81</ele>
        <time>2025-04-08T12:51:07.000Z</time>
      </trkpt>
      <trkpt lat="47.79638824" lon="2.20154648">
        <ele>157.12</ele>
        <time>2025-04-08T12:51:15.000Z</time>
      </trkpt>
      <trkpt lat="47.79647068" lon="2.20149023">
        <ele>154.65</ele>
        <time>2025-04-08T12:51:26.000Z</time>
      </trkpt>
      <trkpt lat="47.79643061" lon="2.20136147">
        <ele>153.65</ele>
        <time>2025-04-08T12:51:36.000Z</time>
      </trkpt>
      <trkpt lat="47.79638843" lon="2.20124112">
        <ele>155.43</ele>
        <time>2025-04-08T12:51:44.000Z</time>
      </trkpt>
      <trkpt lat="47.79633223" lon="2.20112723">
        <ele>159.89</ele>
        <time>2025-04-08T12:52:01.000Z</time>
      </trkpt>
      <trkpt lat="47.79626727" lon="2.20102004">
        <ele>163.49</ele>
        <time>2025-04-08T12:52:10.000Z</time>
      </trkpt>
      <trkpt lat="47.7962065" lon="2.20090759">
        <ele>164.1</ele>
        <time>2025-04-08T12:52:19.000Z</time>
      </trkpt>
      <trkpt lat="47.79615998" lon="2.20078847">
        <ele>161.4</ele>
        <time>2025-04-08T12:52:28.000Z</time>
      </trkpt>
      <trkpt lat="47.79610972" lon="2.20067776">
        <ele>157.05</ele>
        <time>2025-04-08T12:52:36.000Z</time>
      </trkpt>
      <trkpt lat="47.79607211" lon="2.20055266">
        <ele>156.65</ele>
        <time>2025-04-08T12:52:55.000Z</time>
      </trkpt>
      <trkpt lat="47.79605439" lon="2.20042175">
        <ele>156.08</ele>
        <time>2025-04-08T12:53:06.000Z</time>
      </trkpt>
      <trkpt lat="47.79603584" lon="2.20028591">
        <ele>154.58</ele>
        <time>2025-04-08T12:53:29.000Z</time>
      </trkpt>
      <trkpt lat="47.79602611" lon="2.20014092">
        <ele>156.16</ele>
        <time>2025-04-08T12:53:56.000Z</time>
      </trkpt>
      <trkpt lat="47.79604041" lon="2.20000198">
        <ele>155.19</ele>
        <time>2025-04-08T12:54:07.000Z</time>
      </trkpt>
      <trkpt lat="47.79605296" lon="2.19986067">
        <ele>156.4</ele>
        <time>2025-04-08T12:54:27.000Z</time>
      </trkpt>
      <trkpt lat="47.79604345" lon="2.19970966">
        <ele>154.29</ele>
        <time>2025-04-08T12:54:33.000Z</time>
      </trkpt>
      <trkpt lat="47.79604006" lon="2.1995671">
        <ele>155.08</ele>
        <time>2025-04-08T12:54:42.000Z</time>
      </trkpt>
      <trkpt lat="47.79604489" lon="2.1994295">
        <ele>154.32</ele>
        <time>2025-04-08T12:54:51.000Z</time>
      </trkpt>
      <trkpt lat="47.79604938" lon="2.19928909">
        <ele>154.69</ele>
        <time>2025-04-08T12:55:01.000Z</time>
      </trkpt>
      <trkpt lat="47.79606297" lon="2.19914857">
        <ele>153.99</ele>
        <time>2025-04-08T12:55:11.000Z</time>
      </trkpt>
      <trkpt lat="47.7960795" lon="2.19900223">
        <ele>153.54</ele>
        <time>2025-04-08T12:55:20.000Z</time>
      </trkpt>
      <trkpt lat="47.79610397" lon="2.1988687">
        <ele>152.14</ele>
        <time>2025-04-08T12:55:27.000Z</time>
      </trkpt>
      <trkpt lat="47.79611306" lon="2.1987272">
        <ele>153.22</ele>
        <time>2025-04-08T12:55:35.000Z</time>
      </trkpt>
      <trkpt lat="47.79609038" lon="2.19858991">
        <ele>153.02</ele>
        <time>2025-04-08T12:55:44.000Z</time>
      </trkpt>
      <trkpt lat="47.79606907" lon="2.19844873">
        <ele>149.15</ele>
        <time>2025-04-08T12:55:51.000Z</time>
      </trkpt>
      <trkpt lat="47.79607937" lon="2.19831582">
        <ele>149.14</ele>
        <time>2025-04-08T12:56:00.000Z</time>
      </trkpt>
      <trkpt lat="47.79613118" lon="2.1981991">
        <ele>150.27</ele>
        <time>2025-04-08T12:56:09.000Z</time>
      </trkpt>
      <trkpt lat="47.79618337" lon="2.19808384">
        <ele>148.38</ele>
        <time>2025-04-08T12:56:17.000Z</time>
      </trkpt>
      <trkpt lat="47.79617194" lon="2.1979395">
        <ele>147.18</ele>
        <time>2025-04-08T12:56:25.000Z</time>
      </trkpt>
      <trkpt lat="47.79612162" lon="2.19780639">
        <ele>148.76</ele>
        <time>2025-04-08T12:56:34.000Z</time>
      </trkpt>
      <trkpt lat="47.79607164" lon="2.19769">
        <ele>150.18</ele>
        <time>2025-04-08T12:56:58.000Z</time>
      </trkpt>
      <trkpt lat="47.79598188" lon="2.19771152">
        <ele>154.33</ele>
        <time>2025-04-08T12:58:37.000Z</time>
      </trkpt>
      <trkpt lat="47.79588753" lon="2.19773584">
        <ele>156.18</ele>
        <time>2025-04-08T12:58:46.000Z</time>
      </trkpt>
      <trkpt lat="47.79579469" lon="2.19776465">
        <ele>156.15</ele>
        <time>2025-04-08T12:58:55.000Z</time>
      </trkpt>
      <trkpt lat="47.79570803" lon="2.19780391">
        <ele>155.8</ele>
        <time>2025-04-08T12:59:03.000Z</time>
      </trkpt>
      <trkpt lat="47.79561504" lon="2.1978392">
        <ele>156.07</ele>
        <time>2025-04-08T12:59:12.000Z</time>
      </trkpt>
      <trkpt lat="47.7955229" lon="2.19785601">
        <ele>156.12</ele>
        <time>2025-04-08T12:59:21.000Z</time>
      </trkpt>
      <trkpt lat="47.79549709" lon="2.19771246">
        <ele>157.26</ele>
        <time>2025-04-08T12:59:49.000Z</time>
      </trkpt>
      <trkpt lat="47.79552173" lon="2.19757739">
        <ele>154.76</ele>
        <time>2025-04-08T12:59:56.000Z</time>
      </trkpt>
      <trkpt lat="47.79552776" lon="2.19744207">
        <ele>152.35</ele>
        <time>2025-04-08T13:01:50.000Z</time>
      </trkpt>
      <trkpt lat="47.79555564" lon="2.19730941">
        <ele>152.37</ele>
        <time>2025-04-08T13:01:59.000Z</time>
      </trkpt>
      <trkpt lat="47.79557157" lon="2.19716883">
        <ele>153.02</ele>
        <time>2025-04-08T13:02:06.000Z</time>
      </trkpt>
      <trkpt lat="47.79561037" lon="2.19703321">
        <ele>153.02</ele>
        <time>2025-04-08T13:02:16.000Z</time>
      </trkpt>
      <trkpt lat="47.79562504" lon="2.19689334">
        <ele>153.11</ele>
        <time>2025-04-08T13:02:25.000Z</time>
      </trkpt>
      <trkpt lat="47.79564309" lon="2.19676011">
        <ele>153.14</ele>
        <time>2025-04-08T13:02:33.000Z</time>
      </trkpt>
      <trkpt lat="47.79565265" lon="2.19661336">
        <ele>154.58</ele>
        <time>2025-04-08T13:02:49.000Z</time>
      </trkpt>
      <trkpt lat="47.79565864" lon="2.1964775">
        <ele>154.81</ele>
        <time>2025-04-08T13:02:56.000Z</time>
      </trkpt>
      <trkpt lat="47.79565572" lon="2.19634348">
        <ele>154.6</ele>
        <time>2025-04-08T13:03:05.000Z</time>
      </trkpt>
      <trkpt lat="47.79565824" lon="2.19620097">
        <ele>154.52</ele>
        <time>2025-04-08T13:03:13.000Z</time>
      </trkpt>
      <trkpt lat="47.79566606" lon="2.19605853">
        <ele>154.27</ele>
        <time>2025-04-08T13:03:20.000Z</time>
      </trkpt>
      <trkpt lat="47.79566591" lon="2.19591121">
        <ele>154.44</ele>
        <time>2025-04-08T13:03:28.000Z</time>
      </trkpt>
      <trkpt lat="47.79564552" lon="2.19577571">
        <ele>155.29</ele>
        <time>2025-04-08T13:03:37.000Z</time>
      </trkpt>
      <trkpt lat="47.79559174" lon="2.19566783">
        <ele>154.79</ele>
        <time>2025-04-08T13:03:44.000Z</time>
      </trkpt>
      <trkpt lat="47.79551618" lon="2.19556622">
        <ele>155.21</ele>
        <time>2025-04-08T13:03:52.000Z</time>
      </trkpt>
      <trkpt lat="47.79544634" lon="2.19548178">
        <ele>154.77</ele>
        <time>2025-04-08T13:04:00.000Z</time>
      </trkpt>
      <trkpt lat="47.79540117" lon="2.19536392">
        <ele>153.42</ele>
        <time>2025-04-08T13:04:18.000Z</time>
      </trkpt>
      <trkpt lat="47.79542797" lon="2.1952354">
        <ele>153.82</ele>
        <time>2025-04-08T13:05:29.000Z</time>
      </trkpt>
      <trkpt lat="47.79544717" lon="2.19509431">
        <ele>155.28</ele>
        <time>2025-04-08T13:05:49.000Z</time>
      </trkpt>
      <trkpt lat="47.795482" lon="2.19496925">
        <ele>156.72</ele>
        <time>2025-04-08T13:05:58.000Z</time>
      </trkpt>
      <trkpt lat="47.79549781" lon="2.19483145">
        <ele>157.2</ele>
        <time>2025-04-08T13:06:06.000Z</time>
      </trkpt>
      <trkpt lat="47.79549437" lon="2.19468058">
        <ele>157.11</ele>
        <time>2025-04-08T13:06:14.000Z</time>
      </trkpt>
      <trkpt lat="47.79550563" lon="2.19453363">
        <ele>156.99</ele>
        <time>2025-04-08T13:06:21.000Z</time>
      </trkpt>
      <trkpt lat="47.79550969" lon="2.19438746">
        <ele>154.71</ele>
        <time>2025-04-08T13:06:42.000Z</time>
      </trkpt>
      <trkpt lat="47.79551101" lon="2.1942495">
        <ele>155.01</ele>
        <time>2025-04-08T13:06:50.000Z</time>
      </trkpt>
      <trkpt lat="47.79552237" lon="2.19411431">
        <ele>154</ele>
        <time>2025-04-08T13:06:57.000Z</time>
      </trkpt>
      <trkpt lat="47.79553075" lon="2.19397102">
        <ele>153.66</ele>
        <time>2025-04-08T13:07:05.000Z</time>
      </trkpt>
      <trkpt lat="47.79553575" lon="2.19383207">
        <ele>153.75</ele>
        <time>2025-04-08T13:07:13.000Z</time>
      </trkpt>
      <trkpt lat="47.79552875" lon="2.19369272">
        <ele>154.23</ele>
        <time>2025-04-08T13:07:22.000Z</time>
      </trkpt>
      <trkpt lat="47.79552649" lon="2.19354662">
        <ele>154.59</ele>
        <time>2025-04-08T13:07:31.000Z</time>
      </trkpt>
      <trkpt lat="47.79551101" lon="2.19340543">
        <ele>154.97</ele>
        <time>2025-04-08T13:07:39.000Z</time>
      </trkpt>
      <trkpt lat="47.79550581" lon="2.19325889">
        <ele>154.81</ele>
        <time>2025-04-08T13:07:48.000Z</time>
      </trkpt>
      <trkpt lat="47.79551086" lon="2.19311045">
        <ele>156.92</ele>
        <time>2025-04-08T13:07:56.000Z</time>
      </trkpt>
      <trkpt lat="47.79552327" lon="2.19297123">
        <ele>157.35</ele>
        <time>2025-04-08T13:08:05.000Z</time>
      </trkpt>
      <trkpt lat="47.79553963" lon="2.19283467">
        <ele>158.12</ele>
        <time>2025-04-08T13:08:14.000Z</time>
      </trkpt>
      <trkpt lat="47.79555168" lon="2.19268991">
        <ele>156.27</ele>
        <time>2025-04-08T13:08:22.000Z</time>
      </trkpt>
      <trkpt lat="47.79557668" lon="2.19255772">
        <ele>155.45</ele>
        <time>2025-04-08T13:08:30.000Z</time>
      </trkpt>
      <trkpt lat="47.79560682" lon="2.19242417">
        <ele>154.98</ele>
        <time>2025-04-08T13:08:39.000Z</time>
      </trkpt>
      <trkpt lat="47.79563382" lon="2.19228548">
        <ele>156.32</ele>
        <time>2025-04-08T13:08:47.000Z</time>
      </trkpt>
      <trkpt lat="47.79565286" lon="2.19214157">
        <ele>157.13</ele>
        <time>2025-04-08T13:08:56.000Z</time>
      </trkpt>
      <trkpt lat="47.79567833" lon="2.19199274">
        <ele>158.08</ele>
        <time>2025-04-08T13:09:04.000Z</time>
      </trkpt>
      <trkpt lat="47.79572054" lon="2.19185537">
        <ele>156.66</ele>
        <time>2025-04-08T13:09:12.000Z</time>
      </trkpt>
      <trkpt lat="47.79573924" lon="2.19171632">
        <ele>155.65</ele>
        <time>2025-04-08T13:09:21.000Z</time>
      </trkpt>
      <trkpt lat="47.79578893" lon="2.19160383">
        <ele>156.76</ele>
        <time>2025-04-08T13:09:29.000Z</time>
      </trkpt>
      <trkpt lat="47.79583688" lon="2.19148291">
        <ele>156.93</ele>
        <time>2025-04-08T13:09:36.000Z</time>
      </trkpt>
      <trkpt lat="47.79587691" lon="2.19136171">
        <ele>157.02</ele>
        <time>2025-04-08T13:09:44.000Z</time>
      </trkpt>
      <trkpt lat="47.79591904" lon="2.19122626">
        <ele>156.16</ele>
        <time>2025-04-08T13:09:53.000Z</time>
      </trkpt>
      <trkpt lat="47.79596232" lon="2.19109425">
        <ele>155.02</ele>
        <time>2025-04-08T13:10:01.000Z</time>
      </trkpt>
      <trkpt lat="47.79601107" lon="2.1909704">
        <ele>154.32</ele>
        <time>2025-04-08T13:10:09.000Z</time>
      </trkpt>
      <trkpt lat="47.79604613" lon="2.1908387">
        <ele>153.96</ele>
        <time>2025-04-08T13:10:19.000Z</time>
      </trkpt>
      <trkpt lat="47.79608706" lon="2.1907146">
        <ele>153.84</ele>
        <time>2025-04-08T13:10:26.000Z</time>
      </trkpt>
      <trkpt lat="47.79612669" lon="2.1905874">
        <ele>153.59</ele>
        <time>2025-04-08T13:10:34.000Z</time>
      </trkpt>
      <trkpt lat="47.79616814" lon="2.19045612">
        <ele>152.58</ele>
        <time>2025-04-08T13:10:43.000Z</time>
      </trkpt>
      <trkpt lat="47.79620519" lon="2.19033262">
        <ele>152.68</ele>
        <time>2025-04-08T13:10:50.000Z</time>
      </trkpt>
      <trkpt lat="47.79624373" lon="2.19019073">
        <ele>154.05</ele>
        <time>2025-04-08T13:10:58.000Z</time>
      </trkpt>
      <trkpt lat="47.79628302" lon="2.19007057">
        <ele>152.64</ele>
        <time>2025-04-08T13:11:07.000Z</time>
      </trkpt>
      <trkpt lat="47.79631535" lon="2.1899383">
        <ele>153.44</ele>
        <time>2025-04-08T13:11:15.000Z</time>
      </trkpt>
      <trkpt lat="47.79634449" lon="2.18980394">
        <ele>152.69</ele>
        <time>2025-04-08T13:11:23.000Z</time>
      </trkpt>
      <trkpt lat="47.7963928" lon="2.18967605">
        <ele>152.65</ele>
        <time>2025-04-08T13:11:32.000Z</time>
      </trkpt>
      <trkpt lat="47.79644095" lon="2.18955081">
        <ele>152.6</ele>
        <time>2025-04-08T13:11:41.000Z</time>
      </trkpt>
      <trkpt lat="47.79647248" lon="2.18942555">
        <ele>153.57</ele>
        <time>2025-04-08T13:11:48.000Z</time>
      </trkpt>
      <trkpt lat="47.7965062" lon="2.18929247">
        <ele>151.91</ele>
        <time>2025-04-08T13:11:57.000Z</time>
      </trkpt>
      <trkpt lat="47.79654553" lon="2.18916537">
        <ele>152.99</ele>
        <time>2025-04-08T13:12:04.000Z</time>
      </trkpt>
      <trkpt lat="47.79658867" lon="2.1890362">
        <ele>152.81</ele>
        <time>2025-04-08T13:12:12.000Z</time>
      </trkpt>
      <trkpt lat="47.7966244" lon="2.18891217">
        <ele>151.65</ele>
        <time>2025-04-08T13:12:21.000Z</time>
      </trkpt>
      <trkpt lat="47.79667305" lon="2.18879336">
        <ele>152.12</ele>
        <time>2025-04-08T13:12:31.000Z</time>
      </trkpt>
      <trkpt lat="47.796724" lon="2.18867626">
        <ele>150.88</ele>
        <time>2025-04-08T13:12:40.000Z</time>
      </trkpt>
      <trkpt lat="47.79677978" lon="2.18856006">
        <ele>151.39</ele>
        <time>2025-04-08T13:12:47.000Z</time>
      </trkpt>
      <trkpt lat="47.79685016" lon="2.18845744">
        <ele>149.65</ele>
        <time>2025-04-08T13:12:56.000Z</time>
      </trkpt>
      <trkpt lat="47.79691666" lon="2.18836355">
        <ele>149.22</ele>
        <time>2025-04-08T13:13:04.000Z</time>
      </trkpt>
      <trkpt lat="47.79699108" lon="2.18826676">
        <ele>149.92</ele>
        <time>2025-04-08T13:13:12.000Z</time>
      </trkpt>
      <trkpt lat="47.79707766" lon="2.1881921">
        <ele>148.48</ele>
        <time>2025-04-08T13:13:22.000Z</time>
      </trkpt>
      <trkpt lat="47.79717311" lon="2.18814982">
        <ele>148.07</ele>
        <time>2025-04-08T13:13:30.000Z</time>
      </trkpt>
      <trkpt lat="47.79726707" lon="2.18812705">
        <ele>148.28</ele>
        <time>2025-04-08T13:13:39.000Z</time>
      </trkpt>
      <trkpt lat="47.79736283" lon="2.18809742">
        <ele>149.52</ele>
        <time>2025-04-08T13:13:48.000Z</time>
      </trkpt>
      <trkpt lat="47.79743109" lon="2.18799991">
        <ele>148.57</ele>
        <time>2025-04-08T13:13:55.000Z</time>
      </trkpt>
      <trkpt lat="47.7974992" lon="2.18789363">
        <ele>148.25</ele>
        <time>2025-04-08T13:14:05.000Z</time>
      </trkpt>
      <trkpt lat="47.79755344" lon="2.18776917">
        <ele>147.65</ele>
        <time>2025-04-08T13:14:14.000Z</time>
      </trkpt>
      <trkpt lat="47.7976164" lon="2.18764648">
        <ele>147.41</ele>
        <time>2025-04-08T13:14:22.000Z</time>
      </trkpt>
      <trkpt lat="47.79766683" lon="2.18751947">
        <ele>148.11</ele>
        <time>2025-04-08T13:14:29.000Z</time>
      </trkpt>
      <trkpt lat="47.79771339" lon="2.18739326">
        <ele>147.89</ele>
        <time>2025-04-08T13:14:37.000Z</time>
      </trkpt>
      <trkpt lat="47.79776982" lon="2.1872551">
        <ele>146.74</ele>
        <time>2025-04-08T13:14:47.000Z</time>
      </trkpt>
      <trkpt lat="47.79780157" lon="2.1871191">
        <ele>146.21</ele>
        <time>2025-04-08T13:14:56.000Z</time>
      </trkpt>
      <trkpt lat="47.79784326" lon="2.18698024">
        <ele>147.08</ele>
        <time>2025-04-08T13:15:04.000Z</time>
      </trkpt>
      <trkpt lat="47.79790263" lon="2.1868738">
        <ele>147.47</ele>
        <time>2025-04-08T13:15:10.000Z</time>
      </trkpt>
      <trkpt lat="47.79794967" lon="2.18675092">
        <ele>146.42</ele>
        <time>2025-04-08T13:15:19.000Z</time>
      </trkpt>
      <trkpt lat="47.79800066" lon="2.18664044">
        <ele>146.91</ele>
        <time>2025-04-08T13:15:27.000Z</time>
      </trkpt>
      <trkpt lat="47.7980492" lon="2.18652203">
        <ele>147.95</ele>
        <time>2025-04-08T13:15:34.000Z</time>
      </trkpt>
      <trkpt lat="47.79810814" lon="2.1864079">
        <ele>149</ele>
        <time>2025-04-08T13:15:43.000Z</time>
      </trkpt>
      <trkpt lat="47.7981563" lon="2.18629304">
        <ele>148.15</ele>
        <time>2025-04-08T13:15:52.000Z</time>
      </trkpt>
      <trkpt lat="47.79820764" lon="2.18617847">
        <ele>147.91</ele>
        <time>2025-04-08T13:15:59.000Z</time>
      </trkpt>
      <trkpt lat="47.7982615" lon="2.18605592">
        <ele>147.44</ele>
        <time>2025-04-08T13:16:08.000Z</time>
      </trkpt>
      <trkpt lat="47.79830766" lon="2.18594067">
        <ele>146.92</ele>
        <time>2025-04-08T13:16:16.000Z</time>
      </trkpt>
      <trkpt lat="47.79835003" lon="2.18582081">
        <ele>148.13</ele>
        <time>2025-04-08T13:16:23.000Z</time>
      </trkpt>
      <trkpt lat="47.79840633" lon="2.18571042">
        <ele>149.08</ele>
        <time>2025-04-08T13:16:31.000Z</time>
      </trkpt>
      <trkpt lat="47.79845373" lon="2.18559069">
        <ele>150.92</ele>
        <time>2025-04-08T13:16:39.000Z</time>
      </trkpt>
      <trkpt lat="47.79850638" lon="2.18547734">
        <ele>151.41</ele>
        <time>2025-04-08T13:16:46.000Z</time>
      </trkpt>
      <trkpt lat="47.79856005" lon="2.18537015">
        <ele>150.81</ele>
        <time>2025-04-08T13:16:54.000Z</time>
      </trkpt>
      <trkpt lat="47.79861819" lon="2.18525797">
        <ele>151.17</ele>
        <time>2025-04-08T13:17:03.000Z</time>
      </trkpt>
      <trkpt lat="47.79866765" lon="2.18514462">
        <ele>151.81</ele>
        <time>2025-04-08T13:17:10.000Z</time>
      </trkpt>
      <trkpt lat="47.79871426" lon="2.18502392">
        <ele>152.18</ele>
        <time>2025-04-08T13:17:27.000Z</time>
      </trkpt>
      <trkpt lat="47.79877179" lon="2.1849148">
        <ele>152.95</ele>
        <time>2025-04-08T13:17:36.000Z</time>
      </trkpt>
      <trkpt lat="47.79882738" lon="2.18480101">
        <ele>154.12</ele>
        <time>2025-04-08T13:17:43.000Z</time>
      </trkpt>
      <trkpt lat="47.79886687" lon="2.18467815">
        <ele>153.03</ele>
        <time>2025-04-08T13:17:51.000Z</time>
      </trkpt>
      <trkpt lat="47.79890807" lon="2.18454792">
        <ele>150.47</ele>
        <time>2025-04-08T13:18:01.000Z</time>
      </trkpt>
      <trkpt lat="47.7989357" lon="2.18441755">
        <ele>149.96</ele>
        <time>2025-04-08T13:18:08.000Z</time>
      </trkpt>
      <trkpt lat="47.79895057" lon="2.18427886">
        <ele>150.09</ele>
        <time>2025-04-08T13:18:15.000Z</time>
      </trkpt>
      <trkpt lat="47.7989869" lon="2.18413817">
        <ele>150.74</ele>
        <time>2025-04-08T13:18:23.000Z</time>
      </trkpt>
      <trkpt lat="47.79900551" lon="2.18399583">
        <ele>151.05</ele>
        <time>2025-04-08T13:18:31.000Z</time>
      </trkpt>
      <trkpt lat="47.7990351" lon="2.1838682">
        <ele>151.08</ele>
        <time>2025-04-08T13:18:39.000Z</time>
      </trkpt>
      <trkpt lat="47.79906476" lon="2.18373373">
        <ele>149.69</ele>
        <time>2025-04-08T13:19:20.000Z</time>
      </trkpt>
      <trkpt lat="47.79909171" lon="2.1835957">
        <ele>149.36</ele>
        <time>2025-04-08T13:19:28.000Z</time>
      </trkpt>
      <trkpt lat="47.79912433" lon="2.18345785">
        <ele>149.73</ele>
        <time>2025-04-08T13:19:37.000Z</time>
      </trkpt>
      <trkpt lat="47.79915666" lon="2.18332533">
        <ele>150.17</ele>
        <time>2025-04-08T13:19:45.000Z</time>
      </trkpt>
      <trkpt lat="47.79918153" lon="2.18318265">
        <ele>149.97</ele>
        <time>2025-04-08T13:19:54.000Z</time>
      </trkpt>
      <trkpt lat="47.79920695" lon="2.18304313">
        <ele>150.15</ele>
        <time>2025-04-08T13:20:03.000Z</time>
      </trkpt>
      <trkpt lat="47.79923029" lon="2.18291236">
        <ele>150.23</ele>
        <time>2025-04-08T13:20:11.000Z</time>
      </trkpt>
      <trkpt lat="47.79926946" lon="2.18279156">
        <ele>150.47</ele>
        <time>2025-04-08T13:20:25.000Z</time>
      </trkpt>
      <trkpt lat="47.7992958" lon="2.18265027">
        <ele>149.51</ele>
        <time>2025-04-08T13:20:34.000Z</time>
      </trkpt>
      <trkpt lat="47.79933318" lon="2.18251492">
        <ele>149.21</ele>
        <time>2025-04-08T13:20:43.000Z</time>
      </trkpt>
      <trkpt lat="47.79936723" lon="2.18238021">
        <ele>149.47</ele>
        <time>2025-04-08T13:20:51.000Z</time>
      </trkpt>
      <trkpt lat="47.79939945" lon="2.18225231">
        <ele>150.35</ele>
        <time>2025-04-08T13:20:59.000Z</time>
      </trkpt>
      <trkpt lat="47.79943685" lon="2.18212991">
        <ele>150.15</ele>
        <time>2025-04-08T13:21:11.000Z</time>
      </trkpt>
      <trkpt lat="47.79946855" lon="2.18199768">
        <ele>150.84</ele>
        <time>2025-04-08T13:21:19.000Z</time>
      </trkpt>
      <trkpt lat="47.79945075" lon="2.18190815">
        <ele>151.43</ele>
        <time>2025-04-08T13:23:20.000Z</time>
      </trkpt>
      <trkpt lat="47.79950681" lon="2.18170061">
        <ele>150.38</ele>
        <time>2025-04-08T13:24:30.000Z</time>
      </trkpt>
      <trkpt lat="47.79954175" lon="2.18157231">
        <ele>150.33</ele>
        <time>2025-04-08T13:24:39.000Z</time>
      </trkpt>
      <trkpt lat="47.79957409" lon="2.181447">
        <ele>150.49</ele>
        <time>2025-04-08T13:24:47.000Z</time>
      </trkpt>
      <trkpt lat="47.79959277" lon="2.18130984">
        <ele>151.02</ele>
        <time>2025-04-08T13:25:10.000Z</time>
      </trkpt>
      <trkpt lat="47.7996302" lon="2.18118331">
        <ele>151.56</ele>
        <time>2025-04-08T13:25:18.000Z</time>
      </trkpt>
      <trkpt lat="47.79966538" lon="2.18104562">
        <ele>149.01</ele>
        <time>2025-04-08T13:25:27.000Z</time>
      </trkpt>
      <trkpt lat="47.79969456" lon="2.18090077">
        <ele>149.67</ele>
        <time>2025-04-08T13:25:36.000Z</time>
      </trkpt>
      <trkpt lat="47.79972796" lon="2.18077253">
        <ele>149.8</ele>
        <time>2025-04-08T13:25:44.000Z</time>
      </trkpt>
      <trkpt lat="47.79976814" lon="2.18065308">
        <ele>151.88</ele>
        <time>2025-04-08T13:25:52.000Z</time>
      </trkpt>
      <trkpt lat="47.7997994" lon="2.18052772">
        <ele>148.9</ele>
        <time>2025-04-08T13:26:00.000Z</time>
      </trkpt>
      <trkpt lat="47.79982586" lon="2.18039333">
        <ele>151.09</ele>
        <time>2025-04-08T13:26:08.000Z</time>
      </trkpt>
      <trkpt lat="47.79986486" lon="2.1802614">
        <ele>150.29</ele>
        <time>2025-04-08T13:26:17.000Z</time>
      </trkpt>
      <trkpt lat="47.79989161" lon="2.18013178">
        <ele>151</ele>
        <time>2025-04-08T13:26:24.000Z</time>
      </trkpt>
      <trkpt lat="47.79992057" lon="2.17999237">
        <ele>152.01</ele>
        <time>2025-04-08T13:26:32.000Z</time>
      </trkpt>
      <trkpt lat="47.79994034" lon="2.17985352">
        <ele>151.86</ele>
        <time>2025-04-08T13:26:40.000Z</time>
      </trkpt>
      <trkpt lat="47.79997548" lon="2.17971899">
        <ele>152.66</ele>
        <time>2025-04-08T13:26:48.000Z</time>
      </trkpt>
      <trkpt lat="47.79998995" lon="2.17957955">
        <ele>151.31</ele>
        <time>2025-04-08T13:26:56.000Z</time>
      </trkpt>
      <trkpt lat="47.80003337" lon="2.17945232">
        <ele>153.69</ele>
        <time>2025-04-08T13:27:07.000Z</time>
      </trkpt>
      <trkpt lat="47.80006865" lon="2.17931162">
        <ele>152.56</ele>
        <time>2025-04-08T13:27:15.000Z</time>
      </trkpt>
      <trkpt lat="47.80010263" lon="2.17918172">
        <ele>151.19</ele>
        <time>2025-04-08T13:27:24.000Z</time>
      </trkpt>
      <trkpt lat="47.80013659" lon="2.17905238">
        <ele>150.61</ele>
        <time>2025-04-08T13:27:33.000Z</time>
      </trkpt>
      <trkpt lat="47.80015786" lon="2.17891855">
        <ele>151.09</ele>
        <time>2025-04-08T13:27:42.000Z</time>
      </trkpt>
      <trkpt lat="47.80018719" lon="2.17877559">
        <ele>151.95</ele>
        <time>2025-04-08T13:27:52.000Z</time>
      </trkpt>
      <trkpt lat="47.80021555" lon="2.17864665">
        <ele>154.08</ele>
        <time>2025-04-08T13:27:59.000Z</time>
      </trkpt>
      <trkpt lat="47.80024624" lon="2.17850868">
        <ele>153.84</ele>
        <time>2025-04-08T13:28:08.000Z</time>
      </trkpt>
      <trkpt lat="47.80027281" lon="2.17837038">
        <ele>153.01</ele>
        <time>2025-04-08T13:28:16.000Z</time>
      </trkpt>
      <trkpt lat="47.80029977" lon="2.178242">
        <ele>152.57</ele>
        <time>2025-04-08T13:28:24.000Z</time>
      </trkpt>
      <trkpt lat="47.80033698" lon="2.17810582">
        <ele>151.58</ele>
        <time>2025-04-08T13:28:32.000Z</time>
      </trkpt>
      <trkpt lat="47.80038034" lon="2.17797526">
        <ele>150.05</ele>
        <time>2025-04-08T13:28:40.000Z</time>
      </trkpt>
      <trkpt lat="47.80042584" lon="2.17785821">
        <ele>150.4</ele>
        <time>2025-04-08T13:28:48.000Z</time>
      </trkpt>
      <trkpt lat="47.80047356" lon="2.1777355">
        <ele>151.56</ele>
        <time>2025-04-08T13:28:56.000Z</time>
      </trkpt>
      <trkpt lat="47.80052838" lon="2.17762366">
        <ele>152.36</ele>
        <time>2025-04-08T13:29:03.000Z</time>
      </trkpt>
      <trkpt lat="47.80058648" lon="2.17751927">
        <ele>153.57</ele>
        <time>2025-04-08T13:29:10.000Z</time>
      </trkpt>
      <trkpt lat="47.80064963" lon="2.17740995">
        <ele>153.67</ele>
        <time>2025-04-08T13:29:18.000Z</time>
      </trkpt>
      <trkpt lat="47.80070356" lon="2.17728776">
        <ele>153.44</ele>
        <time>2025-04-08T13:29:26.000Z</time>
      </trkpt>
      <trkpt lat="47.80074806" lon="2.17715927">
        <ele>152.54</ele>
        <time>2025-04-08T13:29:33.000Z</time>
      </trkpt>
      <trkpt lat="47.80079654" lon="2.17704619">
        <ele>152.34</ele>
        <time>2025-04-08T13:29:40.000Z</time>
      </trkpt>
      <trkpt lat="47.80084757" lon="2.17692295">
        <ele>152.37</ele>
        <time>2025-04-08T13:29:48.000Z</time>
      </trkpt>
      <trkpt lat="47.80089991" lon="2.17679984">
        <ele>152.65</ele>
        <time>2025-04-08T13:29:57.000Z</time>
      </trkpt>
      <trkpt lat="47.80094268" lon="2.17667904">
        <ele>153.35</ele>
        <time>2025-04-08T13:30:04.000Z</time>
      </trkpt>
      <trkpt lat="47.8009788" lon="2.1765558">
        <ele>152.68</ele>
        <time>2025-04-08T13:30:12.000Z</time>
      </trkpt>
      <trkpt lat="47.80101091" lon="2.17641332">
        <ele>150.9</ele>
        <time>2025-04-08T13:30:20.000Z</time>
      </trkpt>
      <trkpt lat="47.80103762" lon="2.17627974">
        <ele>152.4</ele>
        <time>2025-04-08T13:30:28.000Z</time>
      </trkpt>
      <trkpt lat="47.80105165" lon="2.17613524">
        <ele>151.59</ele>
        <time>2025-04-08T13:30:35.000Z</time>
      </trkpt>
      <trkpt lat="47.80108684" lon="2.17600975">
        <ele>152.96</ele>
        <time>2025-04-08T13:30:43.000Z</time>
      </trkpt>
      <trkpt lat="47.80111934" lon="2.17587888">
        <ele>153.16</ele>
        <time>2025-04-08T13:30:51.000Z</time>
      </trkpt>
      <trkpt lat="47.80112931" lon="2.17572858">
        <ele>153.37</ele>
        <time>2025-04-08T13:30:59.000Z</time>
      </trkpt>
      <trkpt lat="47.80115501" lon="2.17559882">
        <ele>157.06</ele>
        <time>2025-04-08T13:31:06.000Z</time>
      </trkpt>
      <trkpt lat="47.80117686" lon="2.17545701">
        <ele>158.61</ele>
        <time>2025-04-08T13:31:14.000Z</time>
      </trkpt>
      <trkpt lat="47.80120913" lon="2.17532594">
        <ele>158.63</ele>
        <time>2025-04-08T13:31:22.000Z</time>
      </trkpt>
      <trkpt lat="47.80123217" lon="2.17519678">
        <ele>156.86</ele>
        <time>2025-04-08T13:31:29.000Z</time>
      </trkpt>
      <trkpt lat="47.80123722" lon="2.17505319">
        <ele>153.08</ele>
        <time>2025-04-08T13:31:37.000Z</time>
      </trkpt>
      <trkpt lat="47.80125324" lon="2.17490772">
        <ele>155.55</ele>
        <time>2025-04-08T13:31:46.000Z</time>
      </trkpt>
      <trkpt lat="47.80128188" lon="2.17477751">
        <ele>156.48</ele>
        <time>2025-04-08T13:31:53.000Z</time>
      </trkpt>
      <trkpt lat="47.80130665" lon="2.17464847">
        <ele>157.92</ele>
        <time>2025-04-08T13:32:00.000Z</time>
      </trkpt>
      <trkpt lat="47.8013183" lon="2.1745113">
        <ele>155.62</ele>
        <time>2025-04-08T13:32:08.000Z</time>
      </trkpt>
      <trkpt lat="47.80134175" lon="2.1743797">
        <ele>157.49</ele>
        <time>2025-04-08T13:32:16.000Z</time>
      </trkpt>
      <trkpt lat="47.80135351" lon="2.17423126">
        <ele>157.5</ele>
        <time>2025-04-08T13:32:25.000Z</time>
      </trkpt>
      <trkpt lat="47.801381" lon="2.17409447">
        <ele>158.64</ele>
        <time>2025-04-08T13:32:32.000Z</time>
      </trkpt>
      <trkpt lat="47.80140125" lon="2.17396309">
        <ele>158.07</ele>
        <time>2025-04-08T13:32:39.000Z</time>
      </trkpt>
      <trkpt lat="47.80142043" lon="2.17382546">
        <ele>158.79</ele>
        <time>2025-04-08T13:32:47.000Z</time>
      </trkpt>
      <trkpt lat="47.80144298" lon="2.17368692">
        <ele>157.85</ele>
        <time>2025-04-08T13:32:55.000Z</time>
      </trkpt>
      <trkpt lat="47.80146473" lon="2.1735532">
        <ele>156.32</ele>
        <time>2025-04-08T13:33:02.000Z</time>
      </trkpt>
      <trkpt lat="47.80148634" lon="2.17341655">
        <ele>156.66</ele>
        <time>2025-04-08T13:33:09.000Z</time>
      </trkpt>
      <trkpt lat="47.80151191" lon="2.1732787">
        <ele>156.3</ele>
        <time>2025-04-08T13:33:16.000Z</time>
      </trkpt>
      <trkpt lat="47.8015403" lon="2.17313699">
        <ele>154.35</ele>
        <time>2025-04-08T13:33:24.000Z</time>
      </trkpt>
      <trkpt lat="47.80157171" lon="2.17300606">
        <ele>155.1</ele>
        <time>2025-04-08T13:33:32.000Z</time>
      </trkpt>
      <trkpt lat="47.80158663" lon="2.17287349">
        <ele>155.08</ele>
        <time>2025-04-08T13:33:39.000Z</time>
      </trkpt>
      <trkpt lat="47.80160731" lon="2.17273773">
        <ele>154.49</ele>
        <time>2025-04-08T13:33:46.000Z</time>
      </trkpt>
      <trkpt lat="47.80162353" lon="2.1725962">
        <ele>154.7</ele>
        <time>2025-04-08T13:33:54.000Z</time>
      </trkpt>
      <trkpt lat="47.80166636" lon="2.17246911">
        <ele>157.07</ele>
        <time>2025-04-08T13:34:02.000Z</time>
      </trkpt>
      <trkpt lat="47.80168167" lon="2.17233273">
        <ele>158.16</ele>
        <time>2025-04-08T13:34:09.000Z</time>
      </trkpt>
      <trkpt lat="47.80169951" lon="2.1721839">
        <ele>156.75</ele>
        <time>2025-04-08T13:34:17.000Z</time>
      </trkpt>
      <trkpt lat="47.80172862" lon="2.17203979">
        <ele>156.22</ele>
        <time>2025-04-08T13:34:25.000Z</time>
      </trkpt>
      <trkpt lat="47.8017545" lon="2.17189864">
        <ele>154.75</ele>
        <time>2025-04-08T13:34:33.000Z</time>
      </trkpt>
      <trkpt lat="47.80177429" lon="2.17176384">
        <ele>152.36</ele>
        <time>2025-04-08T13:34:41.000Z</time>
      </trkpt>
      <trkpt lat="47.80179775" lon="2.17161836">
        <ele>151.88</ele>
        <time>2025-04-08T13:34:49.000Z</time>
      </trkpt>
      <trkpt lat="47.80182514" lon="2.17147673">
        <ele>153.9</ele>
        <time>2025-04-08T13:34:57.000Z</time>
      </trkpt>
      <trkpt lat="47.80184224" lon="2.17133003">
        <ele>155.45</ele>
        <time>2025-04-08T13:35:05.000Z</time>
      </trkpt>
      <trkpt lat="47.80186859" lon="2.17118658">
        <ele>156.22</ele>
        <time>2025-04-08T13:35:13.000Z</time>
      </trkpt>
      <trkpt lat="47.80189487" lon="2.17105369">
        <ele>154.35</ele>
        <time>2025-04-08T13:35:21.000Z</time>
      </trkpt>
      <trkpt lat="47.80191979" lon="2.17090895">
        <ele>152.72</ele>
        <time>2025-04-08T13:35:29.000Z</time>
      </trkpt>
      <trkpt lat="47.80193934" lon="2.17077467">
        <ele>152.53</ele>
        <time>2025-04-08T13:35:36.000Z</time>
      </trkpt>
      <trkpt lat="47.8019711" lon="2.17064623">
        <ele>153.97</ele>
        <time>2025-04-08T13:35:43.000Z</time>
      </trkpt>
      <trkpt lat="47.8020021" lon="2.17050582">
        <ele>153.18</ele>
        <time>2025-04-08T13:35:52.000Z</time>
      </trkpt>
      <trkpt lat="47.80203151" lon="2.17037592">
        <ele>152.99</ele>
        <time>2025-04-08T13:36:00.000Z</time>
      </trkpt>
      <trkpt lat="47.80206019" lon="2.17024364">
        <ele>153.72</ele>
        <time>2025-04-08T13:36:08.000Z</time>
      </trkpt>
      <trkpt lat="47.80208717" lon="2.1701126">
        <ele>155.87</ele>
        <time>2025-04-08T13:36:16.000Z</time>
      </trkpt>
      <trkpt lat="47.80211237" lon="2.16996584">
        <ele>154.66</ele>
        <time>2025-04-08T13:36:24.000Z</time>
      </trkpt>
      <trkpt lat="47.80213203" lon="2.16983037">
        <ele>156.35</ele>
        <time>2025-04-08T13:36:32.000Z</time>
      </trkpt>
      <trkpt lat="47.80212695" lon="2.16969044">
        <ele>153.78</ele>
        <time>2025-04-08T13:36:40.000Z</time>
      </trkpt>
      <trkpt lat="47.80212892" lon="2.16954179">
        <ele>153.42</ele>
        <time>2025-04-08T13:36:49.000Z</time>
      </trkpt>
      <trkpt lat="47.8021415" lon="2.16940783">
        <ele>155.45</ele>
        <time>2025-04-08T13:36:57.000Z</time>
      </trkpt>
      <trkpt lat="47.80215112" lon="2.16926785">
        <ele>153.03</ele>
        <time>2025-04-08T13:37:05.000Z</time>
      </trkpt>
      <trkpt lat="47.80213484" lon="2.169192">
        <ele>151.71</ele>
        <time>2025-04-08T13:39:06.000Z</time>
      </trkpt>
      <trkpt lat="47.802213" lon="2.16900963">
        <ele>150.18</ele>
        <time>2025-04-08T13:40:13.000Z</time>
      </trkpt>
      <trkpt lat="47.80227134" lon="2.16889942">
        <ele>153.14</ele>
        <time>2025-04-08T13:40:22.000Z</time>
      </trkpt>
      <trkpt lat="47.802298" lon="2.16877162">
        <ele>152.77</ele>
        <time>2025-04-08T13:40:30.000Z</time>
      </trkpt>
      <trkpt lat="47.80233111" lon="2.16863766">
        <ele>155.65</ele>
        <time>2025-04-08T13:40:39.000Z</time>
      </trkpt>
      <trkpt lat="47.80236608" lon="2.16851217">
        <ele>154.4</ele>
        <time>2025-04-08T13:40:48.000Z</time>
      </trkpt>
      <trkpt lat="47.80238992" lon="2.16836795">
        <ele>155.73</ele>
        <time>2025-04-08T13:40:57.000Z</time>
      </trkpt>
      <trkpt lat="47.80241705" lon="2.16823915">
        <ele>155.71</ele>
        <time>2025-04-08T13:41:05.000Z</time>
      </trkpt>
      <trkpt lat="47.80244804" lon="2.16810806">
        <ele>154.2</ele>
        <time>2025-04-08T13:41:13.000Z</time>
      </trkpt>
      <trkpt lat="47.80246518" lon="2.16796635">
        <ele>152.79</ele>
        <time>2025-04-08T13:41:21.000Z</time>
      </trkpt>
      <trkpt lat="47.80248559" lon="2.16783224">
        <ele>152.79</ele>
        <time>2025-04-08T13:41:28.000Z</time>
      </trkpt>
      <trkpt lat="47.80251492" lon="2.16768697">
        <ele>152.11</ele>
        <time>2025-04-08T13:41:36.000Z</time>
      </trkpt>
      <trkpt lat="47.80253569" lon="2.16754054">
        <ele>152.1</ele>
        <time>2025-04-08T13:41:45.000Z</time>
      </trkpt>
      <trkpt lat="47.80257308" lon="2.16739876">
        <ele>154.1</ele>
        <time>2025-04-08T13:41:54.000Z</time>
      </trkpt>
      <trkpt lat="47.80261229" lon="2.16726054">
        <ele>153.4</ele>
        <time>2025-04-08T13:42:02.000Z</time>
      </trkpt>
      <trkpt lat="47.8026458" lon="2.16711897">
        <ele>151.55</ele>
        <time>2025-04-08T13:42:10.000Z</time>
      </trkpt>
      <trkpt lat="47.80267146" lon="2.16698613">
        <ele>152.41</ele>
        <time>2025-04-08T13:42:17.000Z</time>
      </trkpt>
      <trkpt lat="47.80269478" lon="2.16685607">
        <ele>153.7</ele>
        <time>2025-04-08T13:42:24.000Z</time>
      </trkpt>
      <trkpt lat="47.80272857" lon="2.16672934">
        <ele>154.41</ele>
        <time>2025-04-08T13:42:31.000Z</time>
      </trkpt>
      <trkpt lat="47.80276235" lon="2.16659023">
        <ele>156.74</ele>
        <time>2025-04-08T13:42:39.000Z</time>
      </trkpt>
      <trkpt lat="47.80280113" lon="2.16645242">
        <ele>155.48</ele>
        <time>2025-04-08T13:42:47.000Z</time>
      </trkpt>
      <trkpt lat="47.80283049" lon="2.16632224">
        <ele>154.45</ele>
        <time>2025-04-08T13:42:55.000Z</time>
      </trkpt>
      <trkpt lat="47.80285514" lon="2.16619346">
        <ele>152.16</ele>
        <time>2025-04-08T13:43:03.000Z</time>
      </trkpt>
      <trkpt lat="47.80287758" lon="2.16605906">
        <ele>150.63</ele>
        <time>2025-04-08T13:43:11.000Z</time>
      </trkpt>
      <trkpt lat="47.80289999" lon="2.16591681">
        <ele>148.96</ele>
        <time>2025-04-08T13:43:19.000Z</time>
      </trkpt>
      <trkpt lat="47.80292884" lon="2.16577063">
        <ele>152.58</ele>
        <time>2025-04-08T13:43:28.000Z</time>
      </trkpt>
      <trkpt lat="47.8029596" lon="2.16564464">
        <ele>153.91</ele>
        <time>2025-04-08T13:43:36.000Z</time>
      </trkpt>
      <trkpt lat="47.80297885" lon="2.16551169">
        <ele>150.83</ele>
        <time>2025-04-08T13:43:43.000Z</time>
      </trkpt>
      <trkpt lat="47.80300861" lon="2.16537633">
        <ele>150.82</ele>
        <time>2025-04-08T13:43:51.000Z</time>
      </trkpt>
      <trkpt lat="47.80303614" lon="2.16522884">
        <ele>150.53</ele>
        <time>2025-04-08T13:43:59.000Z</time>
      </trkpt>
      <trkpt lat="47.80307107" lon="2.16510297">
        <ele>152.76</ele>
        <time>2025-04-08T13:44:06.000Z</time>
      </trkpt>
      <trkpt lat="47.80308994" lon="2.16495708">
        <ele>153.19</ele>
        <time>2025-04-08T13:44:14.000Z</time>
      </trkpt>
      <trkpt lat="47.80313312" lon="2.16482755">
        <ele>153.8</ele>
        <time>2025-04-08T13:44:21.000Z</time>
      </trkpt>
      <trkpt lat="47.80315482" lon="2.16467667">
        <ele>153.58</ele>
        <time>2025-04-08T13:44:29.000Z</time>
      </trkpt>
      <trkpt lat="47.80316661" lon="2.16454175">
        <ele>150.93</ele>
        <time>2025-04-08T13:44:37.000Z</time>
      </trkpt>
      <trkpt lat="47.80319515" lon="2.16441261">
        <ele>150.82</ele>
        <time>2025-04-08T13:44:45.000Z</time>
      </trkpt>
      <trkpt lat="47.80323536" lon="2.1642912">
        <ele>148.91</ele>
        <time>2025-04-08T13:44:53.000Z</time>
      </trkpt>
      <trkpt lat="47.80327197" lon="2.16415751">
        <ele>150.12</ele>
        <time>2025-04-08T13:45:01.000Z</time>
      </trkpt>
      <trkpt lat="47.80330635" lon="2.16401883">
        <ele>147.7</ele>
        <time>2025-04-08T13:45:09.000Z</time>
      </trkpt>
      <trkpt lat="47.80333368" lon="2.16388352">
        <ele>147.6</ele>
        <time>2025-04-08T13:45:17.000Z</time>
      </trkpt>
      <trkpt lat="47.80336792" lon="2.16375004">
        <ele>149.72</ele>
        <time>2025-04-08T13:45:25.000Z</time>
      </trkpt>
      <trkpt lat="47.80339679" lon="2.16361295">
        <ele>149.44</ele>
        <time>2025-04-08T13:45:33.000Z</time>
      </trkpt>
      <trkpt lat="47.80343352" lon="2.16347475">
        <ele>150.6</ele>
        <time>2025-04-08T13:45:42.000Z</time>
      </trkpt>
      <trkpt lat="47.80345529" lon="2.16334446">
        <ele>151.16</ele>
        <time>2025-04-08T13:45:50.000Z</time>
      </trkpt>
      <trkpt lat="47.80346248" lon="2.1632031">
        <ele>151.33</ele>
        <time>2025-04-08T13:46:00.000Z</time>
      </trkpt>
      <trkpt lat="47.80349597" lon="2.16307882">
        <ele>152.28</ele>
        <time>2025-04-08T13:46:23.000Z</time>
      </trkpt>
      <trkpt lat="47.80355076" lon="2.16296052">
        <ele>151.23</ele>
        <time>2025-04-08T13:47:27.000Z</time>
      </trkpt>
      <trkpt lat="47.80358824" lon="2.16279039">
        <ele>154.01</ele>
        <time>2025-04-08T13:47:39.000Z</time>
      </trkpt>
      <trkpt lat="47.8035954" lon="2.1626538">
        <ele>153.1</ele>
        <time>2025-04-08T13:47:47.000Z</time>
      </trkpt>
      <trkpt lat="47.80360066" lon="2.16251625">
        <ele>151.37</ele>
        <time>2025-04-08T13:47:54.000Z</time>
      </trkpt>
      <trkpt lat="47.80362601" lon="2.16237203">
        <ele>153.19</ele>
        <time>2025-04-08T13:48:02.000Z</time>
      </trkpt>
      <trkpt lat="47.8036677" lon="2.16223976">
        <ele>152.33</ele>
        <time>2025-04-08T13:48:10.000Z</time>
      </trkpt>
      <trkpt lat="47.80368778" lon="2.16210173">
        <ele>150.94</ele>
        <time>2025-04-08T13:48:19.000Z</time>
      </trkpt>
      <trkpt lat="47.80371639" lon="2.16196974">
        <ele>151.22</ele>
        <time>2025-04-08T13:48:27.000Z</time>
      </trkpt>
      <trkpt lat="47.80374322" lon="2.16183249">
        <ele>152.04</ele>
        <time>2025-04-08T13:48:34.000Z</time>
      </trkpt>
      <trkpt lat="47.80377701" lon="2.16169945">
        <ele>152.24</ele>
        <time>2025-04-08T13:48:42.000Z</time>
      </trkpt>
      <trkpt lat="47.80380576" lon="2.16157235">
        <ele>152.72</ele>
        <time>2025-04-08T13:48:50.000Z</time>
      </trkpt>
      <trkpt lat="47.80383429" lon="2.16144423">
        <ele>152.22</ele>
        <time>2025-04-08T13:48:57.000Z</time>
      </trkpt>
      <trkpt lat="47.8038642" lon="2.1613165">
        <ele>153.16</ele>
        <time>2025-04-08T13:49:04.000Z</time>
      </trkpt>
      <trkpt lat="47.80388411" lon="2.16116985">
        <ele>152.09</ele>
        <time>2025-04-08T13:49:13.000Z</time>
      </trkpt>
      <trkpt lat="47.80390304" lon="2.16103776">
        <ele>152.08</ele>
        <time>2025-04-08T13:49:21.000Z</time>
      </trkpt>
      <trkpt lat="47.80393096" lon="2.1609061">
        <ele>153.48</ele>
        <time>2025-04-08T13:49:29.000Z</time>
      </trkpt>
      <trkpt lat="47.80396542" lon="2.16077276">
        <ele>153.7</ele>
        <time>2025-04-08T13:49:36.000Z</time>
      </trkpt>
      <trkpt lat="47.80398087" lon="2.16064072">
        <ele>152.96</ele>
        <time>2025-04-08T13:49:43.000Z</time>
      </trkpt>
      <trkpt lat="47.80398493" lon="2.16049121">
        <ele>153.97</ele>
        <time>2025-04-08T13:49:51.000Z</time>
      </trkpt>
      <trkpt lat="47.80399566" lon="2.16035618">
        <ele>151.89</ele>
        <time>2025-04-08T13:49:59.000Z</time>
      </trkpt>
      <trkpt lat="47.80403102" lon="2.16021716">
        <ele>153.67</ele>
        <time>2025-04-08T13:50:08.000Z</time>
      </trkpt>
      <trkpt lat="47.80407298" lon="2.16009891">
        <ele>152.91</ele>
        <time>2025-04-08T13:50:17.000Z</time>
      </trkpt>
      <trkpt lat="47.80409707" lon="2.15994851">
        <ele>152.37</ele>
        <time>2025-04-08T13:50:24.000Z</time>
      </trkpt>
      <trkpt lat="47.80411278" lon="2.15980063">
        <ele>149.72</ele>
        <time>2025-04-08T13:50:31.000Z</time>
      </trkpt>
      <trkpt lat="47.80415347" lon="2.15967739">
        <ele>152.32</ele>
        <time>2025-04-08T13:50:38.000Z</time>
      </trkpt>
      <trkpt lat="47.80419016" lon="2.15955548">
        <ele>152.55</ele>
        <time>2025-04-08T13:50:45.000Z</time>
      </trkpt>
      <trkpt lat="47.80423935" lon="2.15942544">
        <ele>153.36</ele>
        <time>2025-04-08T13:50:54.000Z</time>
      </trkpt>
      <trkpt lat="47.80428294" lon="2.15930384">
        <ele>153.2</ele>
        <time>2025-04-08T13:51:03.000Z</time>
      </trkpt>
      <trkpt lat="47.80432602" lon="2.15917919">
        <ele>153.72</ele>
        <time>2025-04-08T13:51:10.000Z</time>
      </trkpt>
      <trkpt lat="47.80436836" lon="2.15904733">
        <ele>153.43</ele>
        <time>2025-04-08T13:51:18.000Z</time>
      </trkpt>
      <trkpt lat="47.80440406" lon="2.15890886">
        <ele>152.53</ele>
        <time>2025-04-08T13:51:26.000Z</time>
      </trkpt>
      <trkpt lat="47.80444255" lon="2.15877382">
        <ele>151.97</ele>
        <time>2025-04-08T13:51:34.000Z</time>
      </trkpt>
      <trkpt lat="47.80446601" lon="2.15863027">
        <ele>151.59</ele>
        <time>2025-04-08T13:51:42.000Z</time>
      </trkpt>
      <trkpt lat="47.80448025" lon="2.15848537">
        <ele>150.76</ele>
        <time>2025-04-08T13:51:51.000Z</time>
      </trkpt>
      <trkpt lat="47.80451747" lon="2.15835396">
        <ele>150.61</ele>
        <time>2025-04-08T13:52:01.000Z</time>
      </trkpt>
      <trkpt lat="47.80457404" lon="2.1582362">
        <ele>149.09</ele>
        <time>2025-04-08T13:52:09.000Z</time>
      </trkpt>
      <trkpt lat="47.80463945" lon="2.15813268">
        <ele>148.69</ele>
        <time>2025-04-08T13:52:17.000Z</time>
      </trkpt>
      <trkpt lat="47.80472121" lon="2.15804892">
        <ele>147.77</ele>
        <time>2025-04-08T13:52:26.000Z</time>
      </trkpt>
      <trkpt lat="47.80479957" lon="2.15797255">
        <ele>147.43</ele>
        <time>2025-04-08T13:52:35.000Z</time>
      </trkpt>
      <trkpt lat="47.80487409" lon="2.15787981">
        <ele>148.5</ele>
        <time>2025-04-08T13:52:44.000Z</time>
      </trkpt>
      <trkpt lat="47.80492602" lon="2.15776864">
        <ele>149.71</ele>
        <time>2025-04-08T13:52:51.000Z</time>
      </trkpt>
      <trkpt lat="47.80496053" lon="2.15762784">
        <ele>150.36</ele>
        <time>2025-04-08T13:53:13.000Z</time>
      </trkpt>
      <trkpt lat="47.80498612" lon="2.15748586">
        <ele>150.31</ele>
        <time>2025-04-08T13:53:21.000Z</time>
      </trkpt>
      <trkpt lat="47.8050061" lon="2.15734131">
        <ele>150.28</ele>
        <time>2025-04-08T13:53:29.000Z</time>
      </trkpt>
      <trkpt lat="47.80502203" lon="2.15719071">
        <ele>150.49</ele>
        <time>2025-04-08T13:53:37.000Z</time>
      </trkpt>
      <trkpt lat="47.80503147" lon="2.15704176">
        <ele>150.43</ele>
        <time>2025-04-08T13:53:45.000Z</time>
      </trkpt>
      <trkpt lat="47.80503875" lon="2.15690191">
        <ele>150.19</ele>
        <time>2025-04-08T13:53:54.000Z</time>
      </trkpt>
      <trkpt lat="47.8051282" lon="2.15685892">
        <ele>152.3</ele>
        <time>2025-04-08T13:54:39.000Z</time>
      </trkpt>
      <trkpt lat="47.80516648" lon="2.15669669">
        <ele>151.14</ele>
        <time>2025-04-08T13:56:16.000Z</time>
      </trkpt>
      <trkpt lat="47.80513286" lon="2.15656447">
        <ele>151.18</ele>
        <time>2025-04-08T13:56:26.000Z</time>
      </trkpt>
      <trkpt lat="47.80511032" lon="2.1564315">
        <ele>150.85</ele>
        <time>2025-04-08T13:56:35.000Z</time>
      </trkpt>
      <trkpt lat="47.80508969" lon="2.15629426">
        <ele>150.42</ele>
        <time>2025-04-08T13:56:43.000Z</time>
      </trkpt>
      <trkpt lat="47.80506152" lon="2.15616059">
        <ele>149.93</ele>
        <time>2025-04-08T13:56:51.000Z</time>
      </trkpt>
      <trkpt lat="47.80503789" lon="2.15601681">
        <ele>150.03</ele>
        <time>2025-04-08T13:56:59.000Z</time>
      </trkpt>
      <trkpt lat="47.8050187" lon="2.15587034">
        <ele>149.3</ele>
        <time>2025-04-08T13:57:07.000Z</time>
      </trkpt>
      <trkpt lat="47.8050083" lon="2.15572902">
        <ele>149.25</ele>
        <time>2025-04-08T13:57:15.000Z</time>
      </trkpt>
      <trkpt lat="47.804991" lon="2.15558057">
        <ele>150.03</ele>
        <time>2025-04-08T13:57:23.000Z</time>
      </trkpt>
      <trkpt lat="47.80497082" lon="2.15545044">
        <ele>149.55</ele>
        <time>2025-04-08T13:57:30.000Z</time>
      </trkpt>
      <trkpt lat="47.80494957" lon="2.15530793">
        <ele>149.33</ele>
        <time>2025-04-08T13:57:38.000Z</time>
      </trkpt>
      <trkpt lat="47.804924" lon="2.15517198">
        <ele>149.06</ele>
        <time>2025-04-08T13:57:46.000Z</time>
      </trkpt>
      <trkpt lat="47.80490315" lon="2.15502991">
        <ele>148.9</ele>
        <time>2025-04-08T13:57:54.000Z</time>
      </trkpt>
      <trkpt lat="47.80488338" lon="2.15488667">
        <ele>149.25</ele>
        <time>2025-04-08T13:58:03.000Z</time>
      </trkpt>
      <trkpt lat="47.80486895" lon="2.15474853">
        <ele>150.31</ele>
        <time>2025-04-08T13:58:11.000Z</time>
      </trkpt>
      <trkpt lat="47.80485308" lon="2.15460915">
        <ele>151.39</ele>
        <time>2025-04-08T13:58:19.000Z</time>
      </trkpt>
      <trkpt lat="47.80483564" lon="2.15447077">
        <ele>150.31</ele>
        <time>2025-04-08T13:58:27.000Z</time>
      </trkpt>
      <trkpt lat="47.8048153" lon="2.15433569">
        <ele>150.69</ele>
        <time>2025-04-08T13:58:35.000Z</time>
      </trkpt>
      <trkpt lat="47.80480131" lon="2.15419783">
        <ele>150.48</ele>
        <time>2025-04-08T13:58:43.000Z</time>
      </trkpt>
      <trkpt lat="47.80479501" lon="2.15405613">
        <ele>150.57</ele>
        <time>2025-04-08T13:58:51.000Z</time>
      </trkpt>
      <trkpt lat="47.80479447" lon="2.15391769">
        <ele>150.47</ele>
        <time>2025-04-08T13:58:59.000Z</time>
      </trkpt>
      <trkpt lat="47.80479463" lon="2.15377713">
        <ele>150.52</ele>
        <time>2025-04-08T13:59:07.000Z</time>
      </trkpt>
      <trkpt lat="47.80479048" lon="2.1536327">
        <ele>149.27</ele>
        <time>2025-04-08T13:59:15.000Z</time>
      </trkpt>
      <trkpt lat="47.80479474" lon="2.15348583">
        <ele>149.4</ele>
        <time>2025-04-08T13:59:23.000Z</time>
      </trkpt>
      <trkpt lat="47.80479437" lon="2.15334451">
        <ele>149</ele>
        <time>2025-04-08T13:59:31.000Z</time>
      </trkpt>
      <trkpt lat="47.80479558" lon="2.15320625">
        <ele>148.87</ele>
        <time>2025-04-08T13:59:39.000Z</time>
      </trkpt>
      <trkpt lat="47.80479293" lon="2.15306556">
        <ele>149.05</ele>
        <time>2025-04-08T13:59:47.000Z</time>
      </trkpt>
      <trkpt lat="47.80480021" lon="2.15292478">
        <ele>149.21</ele>
        <time>2025-04-08T13:59:55.000Z</time>
      </trkpt>
      <trkpt lat="47.80480709" lon="2.15278969">
        <ele>149.22</ele>
        <time>2025-04-08T14:00:03.000Z</time>
      </trkpt>
      <trkpt lat="47.80480953" lon="2.15265544">
        <ele>149.48</ele>
        <time>2025-04-08T14:00:11.000Z</time>
      </trkpt>
      <trkpt lat="47.80481251" lon="2.15252103">
        <ele>150.14</ele>
        <time>2025-04-08T14:00:19.000Z</time>
      </trkpt>
      <trkpt lat="47.8048168" lon="2.15237954">
        <ele>150.39</ele>
        <time>2025-04-08T14:00:27.000Z</time>
      </trkpt>
      <trkpt lat="47.80482326" lon="2.15223793">
        <ele>150.68</ele>
        <time>2025-04-08T14:00:35.000Z</time>
      </trkpt>
      <trkpt lat="47.80482743" lon="2.15209737">
        <ele>150.52</ele>
        <time>2025-04-08T14:00:43.000Z</time>
      </trkpt>
      <trkpt lat="47.80482669" lon="2.15195772">
        <ele>150.13</ele>
        <time>2025-04-08T14:00:51.000Z</time>
      </trkpt>
      <trkpt lat="47.80482927" lon="2.15181771">
        <ele>150.99</ele>
        <time>2025-04-08T14:00:59.000Z</time>
      </trkpt>
      <trkpt lat="47.80483303" lon="2.15168107">
        <ele>150.59</ele>
        <time>2025-04-08T14:01:07.000Z</time>
      </trkpt>
      <trkpt lat="47.80484228" lon="2.15153842">
        <ele>150.54</ele>
        <time>2025-04-08T14:01:15.000Z</time>
      </trkpt>
      <trkpt lat="47.8048458" lon="2.15139176">
        <ele>149.77</ele>
        <time>2025-04-08T14:01:23.000Z</time>
      </trkpt>
      <trkpt lat="47.80485132" lon="2.15125462">
        <ele>149.34</ele>
        <time>2025-04-08T14:01:31.000Z</time>
      </trkpt>
      <trkpt lat="47.80485511" lon="2.15111252">
        <ele>149.74</ele>
        <time>2025-04-08T14:01:39.000Z</time>
      </trkpt>
      <trkpt lat="47.80486656" lon="2.15097683">
        <ele>150.08</ele>
        <time>2025-04-08T14:01:47.000Z</time>
      </trkpt>
      <trkpt lat="47.8048788" lon="2.15084226">
        <ele>150.23</ele>
        <time>2025-04-08T14:01:56.000Z</time>
      </trkpt>
      <trkpt lat="47.80487871" lon="2.15070704">
        <ele>150.48</ele>
        <time>2025-04-08T14:02:04.000Z</time>
      </trkpt>
      <trkpt lat="47.80488206" lon="2.15056967">
        <ele>149.76</ele>
        <time>2025-04-08T14:02:12.000Z</time>
      </trkpt>
      <trkpt lat="47.80488489" lon="2.15042947">
        <ele>148.58</ele>
        <time>2025-04-08T14:02:20.000Z</time>
      </trkpt>
      <trkpt lat="47.80488629" lon="2.15029411">
        <ele>148.53</ele>
        <time>2025-04-08T14:02:28.000Z</time>
      </trkpt>
      <trkpt lat="47.80489061" lon="2.15015582">
        <ele>147.61</ele>
        <time>2025-04-08T14:02:36.000Z</time>
      </trkpt>
      <trkpt lat="47.80489311" lon="2.15002209">
        <ele>147.99</ele>
        <time>2025-04-08T14:02:43.000Z</time>
      </trkpt>
      <trkpt lat="47.8049012" lon="2.14988684">
        <ele>101.11796957775994</ele>
        <time>2025-04-08T14:02:51.720Z</time>
      </trkpt>
      <trkpt lat="47.804960256173594" lon="2.1492231565430324">
        <ele>101.61926117134325</ele>
        <time>2025-04-08T14:03:34.716Z</time>
      </trkpt>
      <trkpt lat="47.805019312347184" lon="2.148559473086065">
        <ele>101.96602142853723</ele>
        <time>2025-04-08T14:04:17.712Z</time>
      </trkpt>
      <trkpt lat="47.805078368520775" lon="2.1478957896290973">
        <ele>101.0295585589721</ele>
        <time>2025-04-08T14:05:00.708Z</time>
      </trkpt>
      <trkpt lat="47.805137424694365" lon="2.14723210617213">
        <ele>99.39933994476894</ele>
        <time>2025-04-08T14:05:43.704Z</time>
      </trkpt>
      <trkpt lat="47.805196480867956" lon="2.1465684227151622">
        <ele>100.80139864250486</ele>
        <time>2025-04-08T14:06:26.700Z</time>
      </trkpt>
      <trkpt lat="47.805255537041546" lon="2.145904739258195">
        <ele>101.76326533313936</ele>
        <time>2025-04-08T14:07:09.695Z</time>
      </trkpt>
      <trkpt lat="47.80531459321514" lon="2.145241055801227">
        <ele>101.31412384528896</ele>
        <time>2025-04-08T14:07:52.690Z</time>
      </trkpt>
      <trkpt lat="47.805373649388734" lon="2.14457737234426">
        <ele>102.5862635741479</ele>
        <time>2025-04-08T14:08:35.685Z</time>
      </trkpt>
      <trkpt lat="47.805432705562325" lon="2.143913688887292">
        <ele>102.6276128077885</ele>
        <time>2025-04-08T14:09:18.680Z</time>
      </trkpt>
      <trkpt lat="47.805491761735915" lon="2.1432500054303243">
        <ele>101.39105939376647</ele>
        <time>2025-04-08T14:10:01.675Z</time>
      </trkpt>
      <trkpt lat="47.80549439866576" lon="2.1432203711582645">
        <ele>101.38108231246991</ele>
        <time>2025-04-08T14:10:03.594Z</time>
      </trkpt>
      <trkpt lat="47.80549439866576" lon="2.1432203711582645">
        <ele>101.38108231246991</ele>
        <time>2025-04-08T14:10:03.594Z</time>
      </trkpt>
      <trkpt lat="47.80512067293579" lon="2.1428480906980663">
        <ele>101.87293032598751</ele>
        <time>2025-04-08T14:10:46.590Z</time>
      </trkpt>
      <trkpt lat="47.80474694720582" lon="2.1424758102378676">
        <ele>102.56623145970605</ele>
        <time>2025-04-08T14:11:29.586Z</time>
      </trkpt>
      <trkpt lat="47.804373221475856" lon="2.1421035297776694">
        <ele>101.95243867395202</ele>
        <time>2025-04-08T14:12:12.583Z</time>
      </trkpt>
      <trkpt lat="47.80399949574589" lon="2.1417312493174707">
        <ele>102.3862786502591</ele>
        <time>2025-04-08T14:12:55.580Z</time>
      </trkpt>
      <trkpt lat="47.80362577001593" lon="2.1413589688572725">
        <ele>104.60792623837517</ele>
        <time>2025-04-08T14:13:38.577Z</time>
      </trkpt>
      <trkpt lat="47.80353782330761" lon="2.1412713622559068">
        <ele>104.87608900256522</ele>
        <time>2025-04-08T14:13:48.695Z</time>
      </trkpt>
      <trkpt lat="47.80312387433613" lon="2.141009909001472">
        <ele>104.88662762190278</ele>
        <time>2025-04-08T14:14:31.691Z</time>
      </trkpt>
      <trkpt lat="47.802709925364645" lon="2.140748455747037">
        <ele>106.90331414861251</ele>
        <time>2025-04-08T14:15:14.687Z</time>
      </trkpt>
      <trkpt lat="47.80229597639317" lon="2.140487002492602">
        <ele>108.736699693744</ele>
        <time>2025-04-08T14:15:57.684Z</time>
      </trkpt>
      <trkpt lat="47.80188202742169" lon="2.140225549238167">
        <ele>107.94707725336855</ele>
        <time>2025-04-08T14:16:40.681Z</time>
      </trkpt>
      <trkpt lat="47.8016797122969" lon="2.140097765498041">
        <ele>107.81046417032448</ele>
        <time>2025-04-08T14:17:01.695Z</time>
      </trkpt>
      <trkpt lat="47.8016797122969" lon="2.140097765498041">
        <ele>107.81046417032448</ele>
        <time>2025-04-08T14:17:01.695Z</time>
      </trkpt>
      <trkpt lat="47.80130057773799" lon="2.1397378353042193">
        <ele>108.60177973951266</ele>
        <time>2025-04-08T14:17:42.854Z</time>
      </trkpt>
      <trkpt lat="47.80092144317907" lon="2.139377905110398">
        <ele>108.82103634784106</ele>
        <time>2025-04-08T14:18:25.851Z</time>
      </trkpt>
      <trkpt lat="47.800708400544266" lon="2.1391756537591675">
        <ele>108.70194784213993</ele>
        <time>2025-04-08T14:18:50.009Z</time>
      </trkpt>
      <trkpt lat="47.800708400544266" lon="2.1391756537591675">
        <ele>108.70194784213993</ele>
        <time>2025-04-08T14:18:50.009Z</time>
      </trkpt>
      <trkpt lat="47.80074110622456" lon="2.1385080010439768">
        <ele>108</ele>
        <time>2025-04-08T14:19:33.002Z</time>
      </trkpt>
      <trkpt lat="47.80077381190485" lon="2.137840348328786">
        <ele>108.79399271407257</ele>
        <time>2025-04-08T14:20:15.995Z</time>
      </trkpt>
      <trkpt lat="47.80080651758514" lon="2.1371726956135952">
        <ele>110.20646443853697</ele>
        <time>2025-04-08T14:20:58.988Z</time>
      </trkpt>
      <trkpt lat="47.80083922326543" lon="2.136505042898404">
        <ele>110.90000000000147</ele>
        <time>2025-04-08T14:21:41.980Z</time>
      </trkpt>
      <trkpt lat="47.800871928945725" lon="2.1358373901832133">
        <ele>110.80208817990585</ele>
        <time>2025-04-08T14:22:24.972Z</time>
      </trkpt>
      <trkpt lat="47.80088596508929" lon="2.1355508567956463">
        <ele>110.57897839502303</ele>
        <time>2025-04-08T14:22:43.422Z</time>
      </trkpt>
      <trkpt lat="47.80088596508929" lon="2.1355508567956463">
        <ele>110.57897839502303</ele>
        <time>2025-04-08T14:22:43.422Z</time>
      </trkpt>
      <trkpt lat="47.80096403542208" lon="2.1352826418308553">
        <ele>110.0469942142723</ele>
        <time>2025-04-08T14:23:02.195Z</time>
      </trkpt>
      <trkpt lat="47.80115398" lon="2.1353668">
        <ele>110</ele>
        <time>2025-04-08T14:23:21.143Z</time>
      </trkpt>
    </trkseg>
  </trk>
</gpx>
